GFSMW_850_thetae_000.txt.gz
Theta_e
318 318 319 319 319 319 319 318 319 318 319 320 323 326 327 328 328 329 329 330 330 330 330 329 328 327 327 327 327 327 327 327 328 328 327 327 326 326 325 324 325 324 324
317 317 317 317 317 317 318 318 318 319 320 322 325 326 327 328 328 327 326 324 323 323 323 323 323 322 323 324 324 325 326 327 327 327 327 325 326 326 326 326 326 326 325
317 317 317 317 317 317 317 317 317 317 317 318 322 326 327 324 322 318 316 316 317 317 316 315 314 314 313 314 315 316 316 319 322 325 325 324 325 326 325 325 325 325 326
316 317 316 316 316 316 315 315 315 315 315 315 316 316 316 315 314 314 314 314 313 313 313 313 312 311 310 309 308 308 308 310 311 313 318 321 322 324 324 324 324 324 325
317 316 316 316 315 315 315 315 315 314 314 314 314 314 314 314 314 313 312 311 310 309 309 309 308 308 308 307 306 306 305 304 304 305 306 309 311 314 317 318 319 317 318
316 316 315 315 315 315 315 315 315 314 314 313 313 312 311 310 310 309 309 309 308 308 308 307 306 306 305 304 304 303 303 304 304 304 304 306 308 309 311 313 314 315 316
316 316 315 315 315 315 315 315 315 314 313 311 309 309 309 308 308 308 308 308 308 308 307 306 305 303 302 301 300 300 300 301 302 303 304 305 306 307 307 306 309 312 312
316 316 315 315 315 315 315 315 315 314 313 311 308 307 307 307 307 307 307 306 305 304 302 301 299 298 296 295 294 295 296 298 299 302 305 305 304 304 303 306 308 310 310
315 315 315 315 315 315 315 315 314 314 312 308 306 307 307 307 308 308 307 305 301 299 296 294 293 293 293 292 292 292 292 294 298 303 304 299 299 300 304 305 305 304 307
315 315 315 315 314 314 314 314 313 312 309 306 307 307 308 308 307 305 302 298 295 293 293 293 293 293 292 292 292 291 291 291 296 296 294 293 295 300 301 296 296 295 301
315 315 314 314 314 314 313 313 311 309 306 306 307 308 307 305 301 298 295 293 293 293 293 293 293 292 292 292 291 290 290 289 290 290 290 293 299 301 296 294 294 292 295
316 315 314 313 313 313 312 310 308 306 306 307 307 307 304 301 296 293 293 292 293 292 292 292 292 292 292 291 290 289 288 288 289 290 292 294 293 293 292 292 291 292 298
315 314 313 312 312 311 310 308 306 305 307 307 307 304 300 295 292 292 292 292 292 292 292 292 291 291 291 290 290 289 288 288 289 292 291 291 290 289 289 289 290 294 296
314 313 312 312 311 310 308 306 304 306 306 306 303 297 294 292 291 291 291 291 291 291 291 291 290 290 290 289 289 288 288 288 289 290 289 288 288 288 289 290 291 293 293
313 313 312 311 310 308 305 304 305 306 306 302 297 293 292 291 290 290 290 290 290 290 290 290 290 289 289 288 287 287 287 287 288 288 287 287 287 288 289 290 290 291 291
312 312 311 310 309 306 304 305 305 304 303 298 296 292 291 290 290 290 290 290 289 290 289 289 289 288 287 287 286 286 288 287 287 287 287 287 287 288 289 289 289 290 290
313 311 310 309 307 303 305 305 304 303 301 300 295 291 290 290 289 289 289 289 289 289 288 288 287 287 286 285 285 286 287 287 287 287 287 287 288 289 288 288 289 289 289
312 310 309 307 304 304 305 304 302 302 299 295 291 290 289 289 289 288 289 289 288 287 287 287 286 285 285 284 284 286 286 286 286 286 286 287 288 287 288 288 289 289 287
311 309 308 305 304 304 302 302 301 298 293 290 289 289 288 288 288 288 288 287 287 286 286 285 285 284 284 284 284 286 286 286 286 286 287 288 287 287 288 288 288 287 287
308 307 306 304 303 302 303 301 299 295 290 289 289 288 288 287 288 287 287 286 286 285 285 285 284 284 283 284 285 286 286 286 286 287 287 286 286 287 288 287 286 286 285
306 305 304 303 302 302 301 300 293 290 289 288 288 288 287 287 287 287 286 286 285 284 284 284 284 283 283 284 284 285 286 286 287 287 286 285 286 287 285 285 285 285 286
306 304 303 302 303 302 299 291 288 288 288 288 287 287 287 287 286 286 286 285 284 284 284 283 283 283 283 283 284 285 285 286 286 286 285 285 286 284 284 284 284 284 285
305 303 302 302 300 296 292 288 288 288 287 287 287 287 287 287 286 285 285 284 284 283 282 282 283 283 283 283 283 284 285 285 285 285 286 285 283 282 282 282 282 282 282
303 301 300 298 295 291 288 287 287 287 287 287 286 286 286 286 285 285 284 283 282 282 282 283 283 283 283 283 283 285 285 285 285 286 286 283 282 281 281 281 280 281 281
302 301 299 295 292 289 288 287 287 286 286 286 286 286 286 285 285 284 283 282 282 282 283 283 283 283 283 283 284 285 285 285 285 284 283 281 281 280 280 280 280 280 281
299 298 296 295 289 288 287 287 286 286 285 285 286 285 285 284 283 282 282 281 281 282 282 283 283 283 283 283 284 284 284 284 282 281 281 281 280 280 280 280 279 280 281

GFSMW_850_thetae_003.txt.gz
Theta_e
317 318 318 318 319 319 318 318 318 319 320 321 323 325 326 327 328 328 327 326 323 321 320 320 320 319 319 317 316 315 316 316 317 320 322 322 322 324 324 326 326 326 325
317 316 317 317 317 317 317 317 316 317 318 319 324 326 327 326 324 321 319 316 315 314 313 312 311 311 310 310 309 309 308 308 308 315 316 321 320 323 324 323 323 324 327
316 316 317 317 316 316 316 316 315 315 315 317 320 322 321 318 315 313 313 313 313 312 310 309 308 308 308 307 307 307 306 305 306 306 308 316 316 313 313 317 318 323 324
316 316 316 315 315 315 315 315 314 314 314 314 314 314 314 314 313 313 312 309 308 308 308 308 308 307 306 305 304 303 303 303 303 303 306 305 307 311 312 311 312 313 318
316 316 315 315 315 315 314 314 314 313 313 313 312 312 312 311 309 309 308 309 309 309 309 308 307 304 302 300 299 298 298 298 299 301 303 305 307 308 310 311 310 310 311
316 315 315 315 315 315 314 314 314 313 312 311 310 310 309 309 308 309 309 310 310 309 308 306 302 299 296 295 294 293 293 293 293 296 300 305 307 307 306 306 307 307 307
316 315 315 315 315 315 315 314 314 313 312 311 309 308 308 308 309 309 310 310 310 308 304 299 295 294 294 294 294 293 293 292 292 293 297 302 303 302 302 301 303 305 307
315 315 315 315 315 315 315 314 314 314 312 309 308 308 308 309 310 310 309 307 303 298 295 294 294 294 294 294 294 293 293 292 291 291 292 293 292 293 296 298 301 304 304
315 315 314 314 314 314 314 314 314 313 310 308 307 308 309 310 309 307 305 301 296 295 294 293 293 293 293 293 293 293 292 292 291 290 290 289 290 293 297 299 301 299 301
315 314 314 314 314 313 313 313 313 311 309 307 308 309 309 308 306 303 299 295 293 293 292 292 292 292 292 292 292 292 292 291 290 289 289 290 292 293 294 295 296 297 295
314 314 313 313 313 313 312 312 311 308 306 307 308 308 307 305 301 297 294 293 292 292 292 292 292 292 292 292 291 291 290 289 288 289 289 291 291 289 288 290 291 291 290
314 314 313 313 312 312 311 310 308 306 306 307 307 306 304 301 297 294 292 292 291 291 291 291 291 291 291 291 290 290 288 287 287 288 290 289 288 287 288 288 290 289 291
314 313 312 312 311 311 309 308 306 305 305 307 306 304 301 297 294 293 291 291 291 291 291 291 291 291 291 290 289 288 287 287 286 287 288 287 287 287 288 289 289 290 290
314 313 312 311 310 309 308 306 304 305 306 306 304 302 300 296 293 291 290 290 290 290 290 290 290 290 290 289 288 287 286 286 286 286 287 287 287 287 288 289 289 289 289
312 312 312 311 310 309 306 304 304 305 305 305 302 299 296 293 291 290 290 290 290 290 290 290 290 289 289 287 286 285 285 285 285 286 286 287 287 287 288 289 289 289 289
312 312 311 311 309 307 305 304 304 305 305 302 298 296 293 290 290 289 289 289 289 290 290 290 289 288 287 286 285 285 285 286 286 286 286 286 286 287 288 288 288 289 289
312 312 312 310 308 306 303 303 304 305 302 298 295 293 290 289 289 289 289 289 290 290 289 288 288 287 286 285 284 284 286 286 286 286 285 286 287 287 286 287 288 288 287
312 311 310 309 307 304 303 303 304 303 300 296 293 290 289 289 288 288 289 289 289 289 288 287 286 286 285 284 284 284 286 285 285 285 285 286 287 287 287 287 288 286 285
311 310 309 308 305 303 302 302 303 300 297 293 290 289 288 288 288 288 289 289 288 288 287 286 285 285 284 283 283 285 285 285 285 285 286 287 286 286 287 287 285 285 285
310 309 307 306 303 301 301 302 300 298 293 290 289 288 287 287 288 288 288 288 287 287 286 285 284 283 283 283 284 285 285 285 285 286 286 286 285 286 286 286 284 284 283
308 307 305 303 301 301 302 300 296 294 290 289 288 287 287 287 288 288 288 287 286 286 285 284 283 283 283 283 284 284 285 285 285 286 286 285 286 286 285 284 283 283 284
306 305 302 301 301 301 300 296 292 290 289 288 287 287 287 287 287 287 287 286 285 284 283 283 283 283 283 283 283 284 285 285 286 285 285 286 287 285 283 282 282 283 283
304 302 301 300 300 299 295 292 291 288 287 287 287 287 287 287 287 287 286 285 284 283 282 282 282 283 282 283 283 284 284 285 285 285 286 284 283 283 282 281 281 281 280
303 302 300 299 299 296 292 291 288 287 287 287 286 286 287 287 287 286 284 283 282 281 282 282 283 283 282 283 283 284 284 285 285 285 283 282 281 282 281 280 280 280 280
302 301 300 299 295 294 289 287 287 287 287 286 286 287 287 286 285 284 282 281 281 282 282 282 282 283 283 283 284 284 284 285 285 283 281 280 281 280 280 279 279 279 280
301 300 298 295 294 288 287 287 286 286 286 286 287 287 285 284 283 282 281 281 281 281 282 282 282 283 283 283 283 283 284 284 282 281 279 280 280 279 279 279 279 279 280

GFSMW_850_thetae_006.txt.gz
Theta_e
317 318 319 319 319 319 318 319 320 321 322 325 326 326 327 327 326 325 322 319 315 313 312 311 310 309 308 308 307 308 309 310 311 311 312 312 315 318 317 323 321 317 321
317 316 317 317 316 316 316 316 316 317 320 324 325 326 325 323 321 316 313 312 312 310 309 308 309 309 308 307 306 305 305 307 307 309 308 310 311 312 312 310 312 314 314
317 316 316 316 315 315 315 315 315 315 316 318 320 319 318 315 313 313 312 309 308 309 309 309 308 307 305 303 300 299 299 303 304 305 306 308 309 308 308 309 310 312 312
317 316 316 315 315 315 315 315 314 314 314 314 314 314 313 312 310 309 308 309 309 310 309 307 305 302 299 297 296 295 295 299 301 302 303 304 304 306 307 306 307 307 309
317 316 315 315 314 314 314 314 314 313 313 312 311 311 310 309 308 309 309 310 310 308 305 302 299 297 296 295 294 294 294 295 298 299 300 302 303 303 303 303 302 302 302
316 315 315 315 314 314 314 314 314 313 311 311 310 309 308 309 309 310 311 308 306 305 303 300 297 295 294 294 294 294 294 294 294 295 298 300 300 300 299 298 298 299 299
316 315 315 314 314 314 314 314 313 313 311 310 309 309 309 310 311 309 308 307 306 303 300 296 294 294 294 294 294 294 293 293 293 294 297 297 296 295 295 295 298 299 299
316 316 315 314 315 314 314 313 312 312 310 309 309 309 310 310 309 309 307 305 301 297 294 293 293 293 293 293 293 293 292 292 292 292 293 295 294 294 295 296 297 299 299
316 315 315 314 314 314 313 313 312 310 309 308 308 309 310 309 309 306 304 301 297 294 293 293 292 292 292 292 292 292 292 291 292 291 293 293 293 294 294 294 293 293 296
315 315 314 314 314 313 313 312 311 309 308 307 308 309 309 307 305 303 300 297 294 292 292 292 292 292 292 291 291 291 290 290 290 291 291 292 292 292 291 291 290 291 292
315 314 313 313 313 313 312 311 309 308 306 306 307 308 307 304 302 300 297 295 293 292 291 291 291 291 291 291 291 290 289 289 290 290 290 290 291 291 290 289 289 290 290
315 314 313 313 313 312 311 310 308 306 305 306 307 305 304 302 300 297 296 293 291 291 290 290 290 291 291 291 290 288 288 289 289 289 289 289 289 289 288 289 289 289 290
314 313 312 312 312 311 310 309 307 305 304 306 305 304 302 301 299 295 292 291 290 290 289 290 290 291 290 289 289 287 288 288 289 289 289 288 288 288 288 288 288 289 289
314 313 311 309 309 309 309 307 305 304 304 305 304 301 300 299 295 292 290 289 289 289 289 290 290 290 289 289 287 287 287 288 288 288 288 288 287 287 287 288 288 289 289
313 312 311 309 308 308 307 306 304 303 304 304 302 299 298 295 293 290 289 289 289 289 290 290 289 289 289 287 286 286 287 288 288 288 287 287 287 287 287 288 288 288 288
312 312 311 309 307 307 307 305 303 303 304 303 300 299 296 293 290 289 288 288 289 289 290 289 289 288 287 287 285 285 287 287 287 287 287 287 286 287 287 288 289 288 289
312 312 310 308 307 308 306 303 302 303 303 301 298 296 293 290 289 288 288 288 289 289 289 288 287 287 286 285 284 285 286 286 287 286 286 286 286 287 287 287 287 287 288
312 312 311 310 309 307 305 303 302 303 302 299 296 294 289 288 288 288 288 289 289 289 288 287 286 285 284 284 284 285 286 286 286 286 286 286 287 287 287 287 287 287 286
311 310 310 310 309 306 303 301 302 302 299 297 294 289 288 287 287 288 288 289 288 288 286 285 284 284 284 283 284 285 285 286 286 286 286 287 286 286 287 287 286 286 284
309 309 309 308 306 303 301 300 301 299 296 294 290 288 287 287 287 288 288 288 287 286 285 284 284 283 283 284 284 285 285 285 285 286 286 286 286 287 287 286 285 284 283
307 307 307 306 304 301 300 301 299 296 294 291 288 287 287 287 287 287 287 286 285 284 284 284 283 283 284 284 284 285 285 285 285 285 286 285 286 286 285 284 284 283 283
306 306 305 304 302 300 300 299 296 293 291 289 287 287 287 287 287 287 286 285 284 284 283 283 284 284 284 284 284 285 285 285 286 285 285 286 285 283 283 283 283 283 282
305 305 304 302 301 300 299 296 293 290 289 288 287 287 286 287 287 286 285 284 283 283 283 283 284 284 284 284 284 284 285 285 285 285 285 284 283 282 282 282 282 281 281
304 304 303 301 300 299 297 293 291 289 288 287 287 286 287 287 286 284 283 283 283 283 283 284 284 284 284 284 284 284 284 284 284 285 283 282 282 281 281 281 280 280 280
303 302 301 299 298 296 292 291 288 288 287 286 286 287 286 285 284 284 283 282 282 282 283 283 283 283 283 283 284 284 284 284 284 283 282 281 281 280 280 280 280 280 280
302 301 299 298 295 292 291 288 288 287 286 285 286 286 286 284 284 282 282 282 282 282 282 282 282 283 283 283 283 283 283 284 283 281 281 280 280 280 279 279 279 279 280

GFSMW_850_thetae_009.txt.gz
Theta_e
320 320 321 321 322 325 328 328 329 330 332 332 329 325 322 322 324 322 316 312 312 310 309 310 310 310 309 308 307 306 305 305 306 305 306 304 310 309 312 313 312 310 310
320 319 319 319 319 320 320 323 327 330 327 325 324 322 321 319 315 313 312 309 309 310 310 310 309 307 305 304 301 300 299 301 301 303 303 305 305 306 302 304 307 307 310
319 319 319 318 318 316 316 316 316 318 320 321 320 318 315 314 312 309 309 310 310 310 309 307 304 303 301 299 297 297 297 299 300 300 301 302 303 303 303 302 305 306 303
319 319 318 318 317 315 315 315 315 314 315 317 317 316 314 311 309 309 310 311 310 308 307 304 303 300 297 296 295 295 295 296 299 298 298 299 300 302 302 301 300 300 300
319 319 318 317 315 314 314 314 314 313 313 313 312 311 310 309 310 311 310 308 307 307 306 302 300 297 295 295 294 295 294 294 297 296 296 297 299 299 298 298 297 297 297
319 318 317 316 314 314 314 313 313 312 312 311 310 310 310 310 311 310 309 308 306 305 304 301 297 295 294 294 294 294 293 293 295 295 295 295 296 297 296 296 296 296 297
318 317 317 316 315 314 313 313 312 312 311 310 310 310 311 311 311 310 310 308 306 305 303 299 295 294 293 293 293 293 293 293 294 293 294 293 294 295 295 295 295 296 296
318 317 317 317 316 314 313 313 312 311 310 310 310 310 310 310 310 310 308 306 305 302 299 295 293 293 293 292 292 292 292 292 292 292 292 292 293 293 293 293 294 295 294
319 318 317 317 315 314 313 313 312 310 309 309 309 309 309 309 309 307 306 304 302 299 296 293 292 292 292 291 292 292 292 291 291 291 291 291 291 292 292 292 293 292 292
319 318 317 316 315 313 313 313 311 310 308 308 308 308 308 307 306 306 304 302 299 297 294 292 292 291 291 291 291 291 290 290 290 290 290 291 291 291 291 291 291 290 290
318 317 317 316 313 312 313 312 311 309 307 306 307 307 307 306 305 304 301 299 296 294 292 291 291 291 291 291 290 290 289 289 289 290 290 290 290 290 290 289 289 289 290
318 317 316 315 311 311 311 311 309 307 306 305 306 306 306 305 303 301 299 295 293 292 291 290 290 291 290 290 289 289 288 288 288 289 289 289 289 289 289 288 289 289 288
318 316 316 314 311 309 309 308 306 305 305 304 305 305 304 303 300 298 295 293 291 290 290 290 291 290 290 289 288 288 287 287 288 288 289 289 289 289 288 288 288 288 288
317 316 315 313 311 309 306 305 304 304 304 304 304 304 302 301 299 295 293 291 290 289 290 290 290 290 288 288 288 287 287 287 287 288 288 288 288 288 287 287 288 288 288
317 316 315 313 311 308 305 302 302 304 303 303 303 303 301 299 296 292 290 289 289 289 290 290 289 288 288 287 287 286 286 286 287 287 287 288 287 287 288 288 288 288 288
317 316 315 314 310 307 303 301 302 303 302 303 303 302 299 296 292 290 289 289 289 290 289 289 288 288 287 287 287 286 286 286 286 287 287 287 287 287 287 288 288 288 288
316 315 314 313 310 306 302 301 301 302 302 303 301 299 296 293 290 289 289 289 289 288 288 288 288 287 286 286 286 286 285 286 286 286 286 287 287 287 287 287 288 287 288
314 314 313 311 307 304 301 299 301 301 302 301 298 296 293 291 289 288 288 288 288 288 288 288 287 286 285 285 285 285 285 286 286 286 286 286 286 286 287 287 287 286 285
312 313 311 308 305 304 302 302 300 301 301 298 296 293 291 289 288 288 288 288 288 288 287 286 286 285 285 285 285 285 285 285 286 286 286 286 287 287 287 287 286 284 284
310 310 308 307 306 302 302 300 299 299 299 296 294 291 290 288 288 288 288 288 288 287 286 285 285 285 284 285 285 286 285 285 286 285 286 286 286 287 286 285 284 284 284
307 307 307 305 301 302 301 296 299 299 296 294 293 290 288 288 287 288 288 288 287 286 285 284 284 284 285 285 285 285 286 286 286 285 285 285 286 286 285 284 283 283 284
305 306 304 302 301 301 299 299 299 297 295 294 290 288 288 287 287 288 288 287 285 285 284 284 284 284 285 285 285 285 286 285 285 285 285 285 285 284 283 283 283 283 283
304 304 302 301 300 299 299 299 299 296 295 290 288 287 287 287 288 288 286 285 284 284 284 284 284 284 284 284 284 285 285 285 285 284 285 284 283 283 282 281 282 282 281
303 303 302 300 299 300 299 299 297 296 290 288 287 286 287 289 288 286 285 284 284 283 283 283 283 283 283 283 283 284 284 284 283 284 284 283 282 282 281 281 280 280 280
303 302 301 298 297 300 299 297 295 290 288 287 286 287 288 287 286 285 284 284 283 283 283 283 283 283 283 283 284 284 283 283 284 284 282 281 281 280 280 280 280 280 280
303 302 300 300 299 299 296 295 289 288 287 287 287 288 287 286 285 284 284 283 283 283 283 283 283 283 283 283 283 283 283 283 283 282 281 280 280 280 280 280 279 280 280

GFSMW_850_thetae_012.txt.gz
Theta_e
321 321 322 324 328 329 328 329 329 330 331 332 332 332 329 325 324 320 313 311 309 310 311 310 309 308 306 305 303 301 300 299 298 299 298 300 300 301 305 301 301 301 304
320 320 321 322 325 328 330 331 332 332 332 330 327 323 323 319 314 311 310 310 310 311 310 309 308 307 305 303 300 298 297 297 296 297 297 299 298 300 297 301 299 304 305
320 319 319 319 321 322 323 326 327 327 327 324 323 320 314 313 310 309 310 311 311 310 309 308 305 303 301 299 296 296 295 296 296 295 296 298 298 297 299 297 300 299 296
319 319 319 318 317 317 317 318 319 319 318 317 316 314 312 310 309 310 311 310 310 309 308 306 304 301 298 296 295 295 295 294 294 294 294 294 295 297 297 297 295 295 294
319 319 318 318 316 316 315 315 315 316 317 317 315 311 310 310 311 311 310 309 309 310 308 306 304 301 298 296 295 294 294 294 293 294 294 293 294 293 294 295 295 294 294
319 319 318 317 316 315 314 313 313 313 312 312 311 310 311 311 310 310 310 309 308 308 307 305 302 298 296 295 294 294 293 293 293 293 293 292 293 292 293 294 293 293 293
319 318 318 317 315 314 313 312 312 311 311 310 310 311 311 310 310 310 310 309 308 307 306 304 301 297 295 294 293 293 292 293 292 292 291 291 291 291 292 293 292 293 292
319 318 317 316 314 313 312 311 311 311 310 310 310 310 310 310 310 310 308 308 307 306 304 301 298 295 293 293 292 292 292 292 291 291 290 290 290 291 291 291 292 291 291
318 317 317 316 315 313 312 311 311 310 310 310 310 310 309 309 309 308 308 307 306 303 300 297 295 293 292 291 291 292 292 291 290 290 290 289 289 290 290 290 290 291 291
318 317 317 317 315 313 312 311 311 310 309 309 309 309 308 308 308 307 306 305 303 300 296 294 293 292 291 291 292 292 291 290 289 289 289 288 289 289 289 290 290 289 289
318 318 317 317 315 313 312 311 311 310 309 308 308 308 307 307 307 306 305 303 300 296 294 293 292 291 291 292 292 291 290 289 288 288 287 288 288 289 289 289 289 289 288
318 318 317 316 314 313 311 311 310 309 308 307 307 306 306 306 305 304 303 300 297 294 292 291 290 291 291 292 291 289 288 288 288 287 286 286 287 288 288 288 288 288 287
318 318 317 315 313 311 310 309 309 308 307 305 305 305 305 304 303 302 300 297 294 292 291 290 291 291 291 290 289 288 287 287 287 286 285 286 286 287 288 288 287 287 287
318 317 316 315 312 310 309 308 307 306 306 304 304 304 304 303 302 301 298 295 292 290 290 290 290 291 290 289 288 288 287 287 287 286 285 286 287 287 287 287 288 288 288
318 317 316 315 312 310 308 306 304 304 304 303 303 303 303 302 301 299 295 292 290 290 290 290 290 290 289 288 288 288 287 287 286 285 286 286 287 287 287 288 288 288 287
318 317 315 314 312 309 307 305 303 303 302 301 302 303 302 301 299 295 292 290 289 289 290 290 289 288 287 287 287 287 287 286 285 285 286 286 286 286 287 287 287 288 288
317 316 315 314 312 309 307 304 303 302 300 301 302 302 301 299 296 292 289 289 289 289 290 289 288 287 286 286 287 287 286 286 285 285 285 286 286 285 285 286 287 288 286
317 316 315 314 311 308 305 303 302 300 300 301 301 300 299 296 292 290 289 289 289 290 289 288 287 286 285 285 286 286 286 286 285 285 285 285 285 286 287 287 287 286 285
314 314 314 312 310 307 304 302 300 299 300 301 299 297 294 292 290 289 289 289 290 289 288 287 286 285 285 285 285 286 286 286 285 286 286 286 285 286 287 287 286 285 284
313 313 311 310 307 304 303 301 300 299 300 299 296 295 292 290 289 289 289 290 289 287 287 286 285 284 284 284 285 286 286 286 286 286 285 285 285 285 286 286 285 284 283
309 309 308 307 305 303 301 299 299 299 298 296 295 293 289 289 288 289 290 289 287 287 286 285 284 284 284 284 285 285 286 286 285 285 284 284 284 285 285 284 284 283 284
306 306 305 304 302 301 299 299 299 298 297 295 293 289 289 288 289 289 288 288 287 286 285 284 284 283 283 283 284 285 285 285 285 284 284 283 285 284 283 283 282 283 282
304 304 304 303 301 300 299 299 299 297 295 292 289 289 288 289 289 288 288 287 286 285 284 283 283 283 283 283 283 284 284 284 284 283 283 284 283 282 281 281 281 281 280
303 302 302 301 301 299 299 299 297 295 293 289 288 288 289 289 289 289 287 286 285 284 284 284 284 283 283 283 283 284 284 284 283 283 284 282 281 280 280 280 279 279 280
302 302 301 300 299 299 298 297 295 294 289 288 288 288 289 289 289 288 286 284 284 284 284 284 284 283 283 283 284 284 284 283 283 284 282 280 280 279 279 279 279 279 279
302 301 299 298 298 298 298 295 294 289 288 288 287 288 289 289 288 286 285 284 283 283 283 283 283 283 283 284 284 283 283 283 283 281 280 279 279 279 279 279 279 279 279

GFSMW_850_thetae_015.txt.gz
Theta_e
321 321 321 325 326 326 327 328 326 329 333 335 335 333 333 331 330 327 316 310 310 310 310 310 309 308 306 304 303 301 301 300 299 299 300 300 300 300 299 297 297 297 300
321 321 323 328 328 329 329 329 330 332 333 334 333 332 331 327 320 312 310 310 311 310 309 309 308 307 304 302 300 298 298 297 295 295 296 296 297 298 295 298 295 298 299
320 321 322 326 329 330 331 331 331 331 331 331 330 325 321 315 311 310 310 311 310 309 310 309 308 306 303 300 298 296 296 296 296 295 295 295 295 293 296 294 296 294 294
320 320 320 322 326 330 330 330 331 331 329 324 322 319 315 311 310 311 311 310 310 310 310 309 308 305 301 298 297 295 295 294 294 294 293 293 293 293 294 293 292 293 292
320 319 319 319 320 322 326 326 324 323 320 317 314 313 311 310 311 310 310 310 310 309 309 308 306 303 300 298 296 295 294 293 293 293 293 292 292 291 292 292 291 291 291
319 319 318 317 317 318 318 318 317 317 317 316 314 310 311 311 310 310 310 309 308 308 308 306 303 300 298 296 295 294 293 293 292 293 292 291 290 290 290 290 291 291 291
319 318 318 317 316 316 316 316 316 316 315 313 310 310 311 310 310 309 308 307 308 308 307 304 301 298 296 294 294 293 292 292 293 292 291 290 290 290 289 290 290 290 290
318 318 318 316 315 314 313 313 313 312 311 310 310 310 310 310 309 308 308 308 308 307 305 302 299 296 294 293 292 292 292 292 292 291 290 289 289 288 288 289 289 290 289
318 318 318 316 314 313 312 312 311 311 310 310 310 310 309 309 308 308 308 307 306 305 303 300 297 294 293 291 291 292 292 291 291 290 289 288 288 287 287 288 288 289 289
318 318 317 315 313 312 312 311 310 310 310 309 309 309 308 308 307 307 307 306 305 303 300 297 294 292 291 291 291 291 291 290 289 289 288 288 287 286 286 287 288 288 288
318 317 316 315 314 312 312 311 310 309 309 308 308 307 307 307 307 307 306 305 304 301 297 293 291 290 291 291 291 291 290 289 288 288 287 287 286 285 286 286 287 288 288
317 317 317 316 314 313 312 311 310 309 307 307 306 306 306 306 306 306 305 304 301 296 293 291 290 290 291 291 290 289 288 288 287 287 287 286 285 285 286 287 287 287 287
317 317 317 316 315 313 312 311 310 308 307 306 305 305 305 305 305 304 304 301 297 294 291 290 290 291 291 290 289 288 288 287 287 287 287 286 285 286 286 287 287 287 287
317 317 317 316 315 313 312 310 309 307 306 304 304 303 303 304 304 303 301 298 294 291 290 290 290 291 290 289 288 287 287 287 287 287 286 285 285 286 286 287 287 287 287
317 317 317 316 315 313 311 309 307 306 305 303 302 302 303 303 303 301 300 295 291 290 290 290 290 290 288 287 287 287 287 287 287 286 286 285 285 286 286 287 286 286 287
316 317 316 316 314 313 310 308 306 304 303 301 301 301 302 302 301 300 296 292 290 289 290 290 289 288 287 286 286 287 287 287 286 286 285 285 285 285 286 285 286 287 287
317 317 316 315 315 312 310 307 305 303 302 300 300 302 301 300 299 295 291 290 289 290 290 289 288 287 286 285 286 286 286 286 286 286 285 285 285 285 285 285 286 286 286
318 317 316 315 313 311 308 306 303 302 301 300 301 301 299 298 296 292 289 288 290 290 289 288 287 286 285 284 285 286 286 286 286 285 285 285 285 285 285 285 286 286 285
317 316 315 314 312 310 307 305 303 301 299 300 300 299 298 296 292 289 288 290 290 290 289 288 286 285 284 283 285 286 286 285 285 285 285 285 284 284 285 286 286 284 283
316 315 314 313 311 307 306 304 301 300 299 299 298 297 296 291 289 288 290 290 290 289 287 286 285 284 284 283 284 285 284 285 284 284 284 284 284 284 285 285 284 282 282
313 313 312 310 308 306 304 302 301 299 299 298 297 296 291 288 288 290 290 290 289 288 286 285 284 284 284 283 284 284 284 284 285 284 284 283 283 285 284 284 282 282 283
310 310 309 307 304 304 303 301 299 299 298 297 295 290 288 288 290 290 290 289 287 286 285 284 284 284 283 283 283 284 284 285 285 284 283 283 284 283 282 281 282 282 282
306 305 305 303 301 300 299 299 299 298 297 295 290 288 288 290 290 290 289 287 286 284 284 284 284 283 283 283 283 284 284 285 284 283 283 283 282 281 280 280 281 281 279
303 303 302 301 300 298 298 298 299 296 295 290 288 288 289 290 290 289 287 286 285 283 284 284 283 283 283 283 283 284 284 284 283 283 282 281 280 279 279 279 279 279 279
301 301 301 300 299 299 298 298 296 294 289 288 288 289 290 290 290 288 286 285 284 283 283 283 283 283 283 283 284 284 283 283 283 283 281 279 279 279 279 279 279 279 279
301 300 299 299 298 298 298 296 294 289 288 288 288 289 289 289 288 287 286 284 283 282 282 282 283 283 283 283 283 283 283 283 282 281 279 278 278 278 278 278 279 279 279

GFSMW_850_thetae_018.txt.gz
Theta_e
321 322 321 320 321 322 323 323 324 325 331 335 336 334 332 331 331 329 329 319 310 310 310 309 308 308 307 305 303 301 300 300 299 299 301 300 298 298 300 297 297 296 296
321 321 321 321 323 323 325 325 323 324 332 334 335 334 332 330 329 328 313 310 310 310 309 309 310 309 307 303 301 299 298 297 296 296 297 296 297 297 295 295 294 295 294
322 321 321 323 325 326 328 328 327 329 332 334 335 333 331 330 326 311 310 310 310 310 310 310 309 307 304 301 299 297 296 296 295 294 294 293 293 292 294 293 293 292 292
321 321 323 326 326 327 329 330 331 332 333 333 333 332 331 324 311 310 311 310 310 310 310 309 308 305 302 299 297 295 294 294 294 293 293 292 291 291 291 292 292 291 291
321 321 322 326 328 328 330 330 330 330 330 329 327 324 319 311 310 311 310 310 310 310 309 308 307 303 300 297 295 294 293 293 292 292 292 292 291 290 290 290 290 289 290
320 321 323 326 329 329 329 330 331 330 326 322 318 314 311 311 311 310 310 310 309 309 308 307 304 301 298 295 294 293 292 292 292 292 292 291 290 289 289 289 288 288 288
320 320 322 323 325 328 328 327 326 323 318 315 313 310 310 311 310 310 309 309 308 307 307 305 302 299 296 294 293 292 291 292 292 292 291 290 289 289 288 288 287 288 288
318 319 319 320 320 321 322 320 318 317 316 315 311 309 310 310 309 309 308 308 307 306 305 303 299 296 294 292 291 291 292 292 291 291 290 289 288 288 287 287 286 287 287
318 318 318 318 318 318 317 317 317 316 315 313 310 310 310 309 309 308 307 307 306 305 304 301 298 295 292 291 291 291 291 291 291 290 289 288 288 287 287 286 285 287 287
317 318 317 317 316 316 315 315 314 313 311 310 309 310 309 308 308 307 306 306 305 304 302 299 295 292 291 291 291 291 291 290 289 288 288 287 287 287 286 285 286 286 287
317 318 317 316 314 313 312 312 310 310 309 308 309 308 308 307 306 306 305 305 305 303 299 295 293 291 291 291 291 290 289 288 288 287 287 287 287 286 285 285 286 286 287
317 318 317 315 313 312 311 310 309 309 308 308 307 307 306 305 305 304 305 304 303 300 296 292 291 290 291 291 290 289 288 287 287 287 287 287 286 285 285 285 286 286 286
316 317 316 314 313 312 311 310 309 308 307 306 305 305 304 304 304 304 304 303 301 296 292 291 290 291 291 290 289 287 287 287 287 287 287 286 286 285 285 285 286 286 286
317 317 316 315 313 312 311 310 309 307 306 304 304 303 303 303 303 304 303 301 297 293 291 290 291 291 289 288 287 287 287 287 287 287 286 286 285 285 286 286 286 286 286
316 316 316 315 314 313 311 310 308 307 305 304 303 302 302 302 303 302 300 297 293 290 290 291 291 289 288 287 286 286 287 287 286 286 286 286 285 285 286 286 286 286 286
315 316 316 316 315 314 312 310 308 306 305 304 302 301 301 302 301 299 297 293 291 289 291 291 289 288 287 286 286 286 286 286 286 286 286 285 285 285 285 285 285 286 286
316 316 317 316 316 314 312 310 308 306 304 302 300 300 301 300 299 297 294 291 289 291 291 289 288 287 286 286 285 286 286 286 285 285 284 284 284 284 283 284 285 285 286
316 316 316 316 315 313 311 309 306 304 302 301 299 300 300 298 297 294 290 289 291 291 289 288 287 286 285 285 284 284 285 284 284 284 284 284 284 283 284 285 285 285 284
317 317 317 316 315 313 310 307 304 302 301 299 299 299 298 297 295 290 289 291 291 290 288 287 286 285 285 284 284 285 284 284 284 284 285 284 284 283 285 286 284 283 282
317 317 316 315 314 310 308 305 303 301 300 299 299 298 297 294 290 289 291 291 290 288 287 287 285 285 284 283 283 285 284 284 284 285 284 284 283 285 285 284 283 282 281
316 315 315 314 311 308 305 303 302 300 299 299 298 297 294 289 289 291 291 290 289 288 287 286 285 284 283 283 283 284 285 284 285 284 284 283 283 284 283 282 281 282 283
314 313 312 309 306 305 303 302 300 299 298 298 297 293 289 289 291 291 290 288 287 287 286 285 284 283 283 283 283 284 285 285 284 284 283 283 283 282 281 281 281 282 281
310 309 309 306 303 302 301 301 299 299 298 296 292 289 288 290 290 289 289 289 287 286 284 283 283 282 282 282 283 284 284 283 284 283 283 282 281 280 280 280 280 280 280
306 306 305 303 301 299 298 298 299 298 296 293 289 288 289 289 289 289 288 287 285 284 283 282 282 282 282 282 283 283 283 283 283 282 282 281 280 280 280 280 280 279 279
303 302 302 301 299 298 298 298 298 296 292 289 288 288 289 289 289 289 287 286 284 283 282 282 282 282 282 282 283 283 283 283 282 282 280 279 279 279 280 280 279 279 279
301 300 300 299 298 297 297 297 295 292 288 288 288 288 288 289 289 288 287 285 283 282 281 281 281 282 282 282 282 283 283 282 281 280 279 278 278 278 279 279 279 279 279

GFSMW_850_thetae_021.txt.gz
Theta_e
325 324 323 322 321 321 323 329 334 335 335 337 338 336 333 333 333 332 330 328 326 311 310 310 309 310 309 307 304 302 300 299 299 300 301 300 299 299 298 299 296 296 296
323 323 321 321 321 321 321 323 327 330 332 335 336 335 333 331 331 330 329 325 310 310 310 310 310 310 308 304 301 300 298 297 296 295 296 295 296 297 296 296 295 294 294
323 323 321 321 321 321 321 322 323 324 328 335 335 335 332 330 328 328 325 310 310 310 310 310 310 309 305 302 300 298 296 295 294 293 293 293 293 292 293 293 293 293 293
323 323 321 321 321 323 323 324 324 323 330 335 334 334 331 330 328 325 312 310 310 310 310 310 309 307 304 301 299 297 295 294 293 293 292 292 291 290 291 292 292 292 291
323 323 321 321 322 324 325 327 327 327 333 334 334 334 333 330 327 313 310 310 310 310 309 308 307 305 303 300 298 296 294 293 292 292 292 291 291 290 289 289 290 290 290
322 322 321 322 324 326 328 330 331 332 333 333 332 332 331 327 316 310 310 309 310 309 308 307 306 305 301 298 296 294 292 292 291 291 291 290 289 289 288 288 287 287 288
319 321 321 325 326 327 329 329 330 330 330 330 326 325 323 315 311 310 310 309 309 308 307 306 305 302 299 296 294 292 291 291 291 291 291 290 289 288 287 287 287 286 286
319 320 321 324 326 327 329 330 330 330 328 323 320 315 311 310 310 309 309 308 308 307 306 305 303 299 296 293 292 291 291 291 291 290 289 289 288 287 287 286 285 285 285
317 319 321 324 326 327 328 328 329 328 323 317 313 310 309 310 309 309 308 307 307 306 305 303 299 296 293 292 291 291 291 291 290 289 289 288 287 287 287 286 285 285 285
316 318 321 323 325 326 326 325 324 321 316 314 312 309 309 308 308 307 307 306 306 305 303 300 297 294 292 291 291 291 291 290 289 288 288 287 287 287 286 285 285 285 285
316 317 319 321 321 322 322 320 318 316 316 314 310 308 308 307 306 306 306 306 305 303 301 298 295 293 291 291 291 291 290 289 288 287 287 287 287 286 286 285 285 285 285
314 315 318 319 318 318 317 316 315 314 312 310 308 307 307 306 305 305 305 304 303 301 298 295 293 291 291 291 291 289 289 288 287 287 287 286 286 286 285 285 285 285 285
314 315 317 317 316 316 315 314 312 310 309 307 307 306 305 305 304 304 304 303 301 298 295 293 291 291 292 291 289 289 288 287 287 286 286 286 286 286 285 285 285 286 286
315 316 316 315 315 313 312 310 309 307 307 306 305 304 304 303 303 302 302 301 299 296 293 291 291 291 290 289 289 288 287 287 286 286 286 286 285 285 285 285 286 286 285
315 316 316 315 313 311 310 308 307 306 305 304 303 303 302 301 301 301 301 299 296 293 291 290 291 290 289 289 287 286 286 286 286 286 285 285 284 284 285 285 285 284 285
315 316 316 315 313 311 310 308 307 306 305 304 303 302 300 300 301 300 299 297 294 290 290 291 291 290 289 288 287 286 285 285 285 284 284 284 283 284 284 284 285 285 286
315 316 316 316 313 311 310 309 307 306 305 303 302 300 299 300 300 298 297 294 290 290 292 291 290 289 288 286 285 284 286 284 284 284 284 284 284 283 283 284 285 286 284
316 316 316 315 314 312 310 309 307 306 304 302 300 299 299 299 298 297 294 289 290 292 291 290 289 288 286 285 284 284 284 284 284 284 284 284 284 283 284 285 286 284 283
316 316 316 316 315 314 311 309 306 304 302 301 298 298 299 298 297 292 289 290 292 291 291 289 288 286 285 284 283 283 284 284 284 284 285 284 283 283 285 285 283 283 282
316 316 316 315 315 313 311 308 305 303 300 299 298 298 298 296 293 289 290 292 291 291 289 288 286 285 284 283 283 283 284 284 284 285 284 284 283 284 285 284 283 282 282
316 315 315 315 314 311 309 306 303 300 299 298 298 297 295 293 289 290 291 291 291 290 288 286 285 284 283 283 282 284 284 284 285 284 283 283 283 284 283 282 281 281 283
314 314 314 313 311 309 306 303 301 299 298 298 297 295 292 289 290 291 291 290 289 288 286 285 284 284 283 282 282 284 284 285 284 284 283 283 283 282 281 281 281 282 281
313 312 313 310 306 304 302 303 300 299 298 297 295 292 288 289 290 290 290 290 288 286 284 284 283 283 282 282 282 283 283 283 283 283 283 282 281 280 280 281 280 280 280
311 310 308 305 302 301 300 300 299 298 296 295 292 288 288 289 289 289 290 288 286 284 283 283 282 282 282 282 282 283 283 283 283 282 281 280 280 280 280 281 281 280 280
307 307 306 304 301 299 297 297 298 296 295 292 288 288 289 289 289 289 288 287 284 283 282 282 281 281 281 282 283 283 283 283 282 281 280 280 280 280 280 281 281 280 280
303 302 302 301 298 297 297 297 296 294 291 288 288 288 288 288 289 289 288 285 283 282 282 281 281 281 281 282 282 283 282 281 280 280 279 279 279 279 279 280 280 281 281

GFSMW_850_thetae_024.txt.gz
Theta_e
324 324 325 324 324 323 322 322 322 325 332 336 338 338 335 333 333 333 332 330 328 326 315 310 309 310 310 308 305 303 302 301 301 301 301 300 299 299 299 298 297 298 296
321 323 324 324 323 322 321 321 322 329 334 336 337 337 334 333 333 332 330 326 325 314 310 309 310 310 310 308 306 303 301 299 298 297 296 295 296 297 297 295 296 295 294
321 322 323 323 322 321 321 321 322 331 334 337 337 337 332 332 331 329 328 322 313 310 310 310 310 310 309 308 305 302 300 298 296 294 293 293 292 292 293 294 294 293 292
319 322 322 323 322 321 321 321 322 325 332 335 337 336 335 330 329 327 323 319 310 310 310 310 310 309 308 307 303 300 298 296 294 293 292 291 291 290 290 291 292 291 291
319 320 322 323 322 321 321 322 323 324 325 331 335 335 334 329 327 326 323 311 310 309 310 310 309 308 307 305 301 298 296 294 292 292 292 291 291 290 289 288 289 291 291
320 320 322 323 321 321 322 324 324 324 324 331 334 333 331 328 326 324 315 310 309 309 309 309 308 307 305 302 299 296 294 292 292 291 291 290 289 289 288 287 287 287 288
320 320 322 322 321 322 323 325 326 324 328 332 331 330 330 329 329 323 311 310 309 309 308 307 307 305 303 300 296 294 292 292 291 291 291 290 289 288 288 287 287 286 287
319 320 321 322 321 322 325 327 329 330 331 331 329 329 329 328 320 310 309 309 308 308 307 306 305 303 300 297 294 293 292 292 292 291 290 289 288 287 287 287 286 285 285
318 318 319 320 322 323 325 327 330 331 330 329 329 326 321 314 309 309 308 307 307 306 306 305 304 301 297 295 293 292 292 292 291 290 289 288 288 287 287 286 286 285 284
316 317 318 320 323 324 326 328 329 329 329 326 321 317 311 309 309 308 307 306 306 305 305 304 302 298 295 293 291 291 291 291 290 289 288 288 287 287 286 286 286 285 285
316 317 318 320 324 326 327 328 328 328 326 319 314 310 309 308 307 306 306 305 305 305 304 302 300 296 293 291 291 292 291 290 289 288 288 287 287 286 286 286 285 285 285
315 316 317 320 324 325 326 327 326 325 321 314 311 308 308 307 305 305 305 305 304 303 302 301 297 293 291 291 292 291 290 289 288 288 287 287 286 286 285 285 285 285 285
314 314 315 319 323 323 323 323 321 319 315 312 309 307 306 305 304 304 304 304 303 302 301 298 294 291 292 293 291 290 289 288 287 287 286 286 285 285 284 284 285 285 285
313 312 314 319 322 321 321 319 316 315 313 309 307 306 304 304 303 303 303 302 302 301 298 294 291 292 292 291 290 289 288 287 286 286 285 284 284 284 284 285 285 285 284
311 312 314 316 317 316 315 313 312 310 308 306 305 304 303 302 302 302 302 301 300 297 294 291 292 292 291 290 289 287 287 286 285 285 284 284 284 284 285 285 285 284 284
312 311 314 314 315 314 312 310 309 307 305 304 303 302 301 301 301 301 300 299 297 294 291 292 293 292 290 289 288 286 285 285 285 284 284 284 284 284 284 284 284 285 286
313 313 314 315 315 312 311 309 307 305 304 303 302 301 300 300 300 299 298 297 294 291 292 293 292 291 289 288 286 285 284 284 284 284 284 284 284 283 283 283 284 286 284
313 314 315 314 312 310 309 308 306 305 303 301 301 300 299 299 299 298 296 294 291 292 293 292 291 290 288 286 285 284 284 284 284 284 284 284 283 283 284 284 286 284 283
315 315 315 314 313 311 309 308 306 304 302 301 300 299 298 298 297 296 293 290 291 292 292 291 290 288 286 285 284 283 284 284 284 284 284 283 283 283 284 285 284 283 282
315 315 315 315 313 311 309 307 306 303 301 300 299 297 297 296 295 293 290 291 292 291 291 290 287 285 285 284 283 283 284 284 284 284 284 283 283 284 284 283 283 282 282
315 314 314 315 313 311 309 307 305 302 300 298 297 296 295 294 293 290 291 291 291 291 290 288 286 285 284 283 282 283 284 284 284 283 283 282 282 284 283 282 281 281 283
313 313 314 313 311 310 308 305 302 300 298 297 296 295 295 293 289 290 291 291 290 290 288 287 285 284 283 282 282 283 284 284 283 283 282 282 283 282 281 281 281 282 281
312 312 313 312 309 307 305 304 301 298 296 296 295 295 292 289 290 290 290 290 289 288 286 284 284 283 282 282 282 282 283 283 283 282 282 282 281 280 280 281 280 280 281
311 310 310 308 305 302 301 301 299 296 296 296 295 291 288 289 290 289 289 290 289 286 284 283 282 282 282 281 282 282 282 283 282 282 281 280 280 280 280 281 282 281 281
308 308 307 304 300 299 299 298 297 296 296 295 291 288 288 289 289 289 289 289 286 283 282 282 281 281 281 281 282 282 283 282 282 281 280 280 280 280 281 281 282 281 281
304 304 302 301 299 298 297 296 296 295 294 291 288 288 288 288 288 289 289 286 284 283 282 281 281 281 281 281 282 282 282 281 280 280 280 280 279 279 280 281 281 281 282

GFSMW_850_thetae_027.txt.gz
Theta_e
319 321 323 324 324 324 324 324 323 323 323 324 331 336 338 337 334 335 332 332 329 329 326 324 310 310 310 309 309 306 304 302 302 301 301 299 299 298 298 299 297 296 296
316 318 320 323 324 324 324 323 322 322 322 326 330 336 336 336 334 333 332 330 327 328 317 310 310 310 310 310 309 307 304 302 301 298 297 296 297 297 297 296 296 295 295
314 315 318 320 322 323 323 323 322 322 323 327 333 336 335 333 332 332 329 326 322 319 310 310 310 310 310 309 308 307 304 301 299 296 295 294 293 293 295 295 295 294 294
311 312 315 318 321 322 322 321 321 322 325 330 334 336 335 333 331 331 330 326 321 311 309 310 310 310 309 308 307 306 302 299 297 295 294 293 292 291 291 291 292 291 292
312 312 313 317 320 322 323 321 321 322 325 333 335 336 334 332 330 329 326 318 316 309 309 310 310 309 308 307 306 303 299 297 295 294 293 293 292 291 289 289 291 291 291
315 318 317 316 320 322 322 321 321 322 324 332 335 336 334 332 329 327 322 318 313 309 309 309 309 308 307 306 304 301 298 295 294 293 292 292 290 289 288 288 288 288 289
311 312 316 319 320 322 321 321 322 323 323 328 334 333 334 331 327 324 321 317 310 309 309 309 308 307 306 305 302 299 296 294 293 292 292 291 290 289 288 288 288 287 287
311 314 315 319 320 322 321 321 322 324 324 326 330 332 330 327 325 323 319 311 308 308 309 308 307 306 305 303 300 296 294 293 293 292 291 290 289 288 288 287 287 286 287
312 313 317 320 320 321 321 321 323 324 323 326 329 329 326 324 320 317 309 308 308 308 308 306 306 305 303 300 297 294 293 293 292 291 290 289 288 288 287 287 286 286 286
313 312 317 319 320 321 322 324 325 326 326 327 326 326 324 317 317 310 307 307 307 307 307 306 305 303 301 297 294 293 293 292 291 290 289 289 288 287 287 286 286 286 285
313 313 314 317 319 321 324 326 327 328 328 326 325 323 318 314 308 307 306 306 307 306 305 304 303 301 297 294 293 293 292 291 290 289 288 288 287 286 286 285 285 285 285
312 312 315 317 319 321 325 327 328 328 327 325 323 318 312 307 306 305 306 306 305 305 304 303 300 297 294 293 293 292 291 290 289 289 288 287 286 285 284 284 284 284 284
313 314 315 317 319 322 325 326 326 326 324 319 314 309 307 306 305 305 305 305 304 303 302 300 297 295 293 293 292 291 290 289 288 287 286 285 284 284 284 284 284 285 285
311 312 313 315 318 322 324 324 324 322 317 311 308 307 306 305 304 304 304 303 302 301 300 297 295 293 293 292 291 290 289 288 287 286 285 284 284 284 284 285 285 285 285
311 310 311 313 317 320 322 321 320 317 312 308 306 305 304 304 303 303 302 301 300 299 297 295 293 293 292 292 291 289 288 287 286 285 284 284 284 284 285 285 285 285 285
312 309 310 313 317 319 319 318 316 312 309 307 305 304 303 302 301 301 300 300 298 297 295 292 293 292 292 291 289 287 286 285 284 284 284 284 284 284 284 284 284 285 285
312 310 309 313 316 317 318 315 312 310 306 305 303 302 302 301 300 300 299 297 296 294 292 293 292 292 291 290 287 286 285 284 284 284 284 284 284 283 283 283 284 285 285
312 310 309 311 313 314 312 311 308 306 304 302 301 300 300 300 299 298 297 296 294 292 292 292 292 291 289 287 286 285 284 284 284 284 284 284 283 283 283 284 285 284 283
313 313 312 312 311 311 309 308 305 303 301 301 300 300 299 298 297 296 296 294 291 292 292 292 291 289 287 286 285 284 283 283 284 284 284 283 283 283 284 285 284 283 282
314 314 313 312 310 308 307 306 303 301 300 300 299 298 297 296 296 295 293 291 292 292 291 290 289 286 285 284 284 283 283 284 284 284 283 283 283 283 284 284 283 282 281
314 313 313 311 309 307 306 304 302 300 299 299 298 296 296 296 295 293 291 291 291 291 290 290 287 285 284 283 283 283 284 284 284 283 283 283 283 284 283 282 282 281 283
313 313 312 310 308 307 305 303 301 299 298 297 296 296 296 295 293 290 291 290 290 290 290 288 286 285 284 283 282 282 283 284 283 283 283 282 283 282 281 281 281 281 281
310 310 311 309 306 304 304 304 301 299 297 296 296 296 295 292 289 290 290 289 290 289 287 285 285 284 284 282 282 282 282 283 283 282 282 282 281 280 280 281 281 282 282
310 309 309 308 305 303 302 303 300 297 297 297 296 295 291 289 289 289 289 289 289 286 284 284 283 283 282 281 282 282 282 283 282 282 282 281 280 280 280 282 282 282 282
306 307 307 306 304 301 300 299 297 296 297 296 295 290 288 289 288 288 289 289 286 284 283 282 282 281 281 281 282 282 283 283 282 281 280 280 280 280 281 282 282 282 282
305 305 305 303 299 298 298 296 296 296 296 294 290 288 288 288 288 288 288 286 284 283 282 282 281 281 280 281 281 282 282 281 280 280 280 280 279 279 281 281 282 282 283

GFSMW_850_thetae_030.txt.gz
Theta_e
318 319 321 322 322 320 322 324 324 324 323 325 334 333 335 336 337 335 334 333 330 331 329 324 325 310 310 311 311 310 309 307 305 303 300 299 299 297 297 299 298 297 296
316 317 319 321 322 322 323 324 324 324 323 325 325 330 334 335 336 336 335 333 331 330 327 320 313 310 310 311 311 310 309 307 304 300 299 300 299 297 297 297 296 295 295
314 315 316 319 321 321 323 324 324 323 323 324 328 327 333 334 336 334 333 331 330 326 321 310 310 310 311 311 310 309 308 304 302 299 297 298 299 296 296 296 295 294 294
313 313 314 316 319 320 321 323 324 323 322 323 324 326 331 335 334 332 331 330 327 324 309 309 310 310 311 310 310 308 306 303 299 297 296 295 294 295 295 295 294 293 292
312 312 313 314 315 318 319 321 323 322 322 322 325 328 333 334 333 330 328 326 324 315 308 309 310 310 310 310 309 307 304 302 298 296 294 293 293 292 292 293 294 293 292
313 313 313 315 315 317 318 321 322 322 321 323 327 331 333 334 332 328 327 326 318 310 308 309 309 309 309 308 307 305 303 299 296 294 293 293 292 292 292 292 292 292 292
312 312 314 316 317 317 317 320 321 321 321 324 329 332 334 334 331 329 328 325 315 311 309 309 309 308 308 307 305 303 300 296 294 293 293 292 291 290 290 290 291 291 291
316 313 312 315 317 318 316 320 321 321 322 324 329 332 333 331 329 328 328 318 315 311 308 308 308 307 306 305 304 301 297 294 293 293 292 291 290 290 289 289 289 290 290
316 315 314 315 317 319 318 320 321 322 322 324 328 330 331 330 328 326 321 312 312 309 307 307 306 306 305 303 301 297 294 293 293 292 291 290 290 289 289 288 288 289 289
317 316 314 315 318 320 320 320 321 322 323 323 326 329 328 327 324 318 312 311 307 307 307 306 305 304 303 301 298 295 294 293 292 292 290 289 289 288 288 288 288 288 288
316 316 314 317 319 320 321 320 321 322 322 323 325 328 327 322 317 316 309 306 306 306 306 305 304 302 301 298 295 294 294 293 292 291 290 289 288 287 287 287 287 287 287
314 315 315 317 319 319 318 318 320 321 321 323 326 325 322 320 313 307 304 305 305 305 304 303 302 300 298 296 294 294 293 292 291 290 288 287 287 286 286 286 286 286 286
314 313 312 314 316 316 315 318 320 322 323 325 323 322 320 311 306 304 304 305 304 304 303 302 300 298 295 294 294 293 292 291 290 288 287 286 286 285 286 286 286 287 287
313 312 311 313 314 314 313 315 321 323 324 323 321 317 310 306 304 303 304 303 303 302 301 300 298 295 294 294 293 292 291 289 288 287 286 285 285 286 286 286 287 286 286
314 312 310 310 310 308 310 320 323 321 320 318 314 309 305 303 303 303 303 302 301 300 299 298 295 294 293 293 292 290 288 288 287 286 286 286 285 284 285 286 286 286 285
314 311 308 307 306 309 316 320 321 317 313 310 308 306 304 303 303 302 301 300 299 299 297 295 293 293 293 292 290 289 287 287 286 286 286 286 285 285 285 285 285 285 285
313 311 307 306 303 309 319 318 316 311 308 304 304 303 302 302 301 300 299 298 298 297 295 293 293 292 292 291 289 287 286 286 285 285 285 285 285 285 285 284 285 285 285
314 310 306 303 307 311 312 314 310 307 304 303 303 302 301 300 299 298 298 297 296 294 293 293 292 291 291 289 287 286 285 285 286 285 285 285 285 285 285 285 285 285 285
311 307 304 310 309 311 310 309 305 304 303 302 301 300 299 299 298 297 297 295 293 292 292 292 291 291 288 287 286 285 285 286 286 285 285 285 285 285 284 285 285 284 284
307 305 308 310 311 311 310 309 305 302 301 300 300 299 297 297 297 296 295 293 292 292 291 291 290 289 287 285 285 284 284 285 285 285 285 285 285 284 285 284 284 283 283
312 312 311 311 310 308 306 304 301 300 300 299 298 297 297 296 296 294 292 291 291 291 291 290 289 286 285 285 284 283 283 285 285 285 285 284 284 284 284 283 282 282 282
310 310 310 308 306 305 304 301 300 299 299 298 298 297 296 295 294 291 290 290 290 290 290 289 286 285 284 284 283 282 283 284 284 284 284 283 284 283 282 281 281 281 282
309 308 308 305 302 302 301 302 300 298 298 297 297 296 295 293 290 290 290 290 290 290 288 286 285 285 284 283 282 283 283 284 284 284 283 283 282 281 281 281 282 282 281
308 307 306 303 301 300 300 301 299 298 297 296 295 294 292 290 289 289 289 289 289 287 285 284 284 283 283 283 282 283 283 283 284 283 283 282 281 280 280 281 281 280 280
307 306 305 303 301 299 299 299 297 296 296 295 294 292 289 289 289 288 289 289 287 285 284 283 282 282 282 282 282 282 283 283 283 282 281 280 280 280 280 280 280 280 280
305 305 303 302 299 298 298 296 295 295 296 296 292 289 288 288 288 288 289 287 284 284 283 282 282 281 281 281 281 282 282 282 281 280 280 280 280 279 279 279 281 282 283

GFSMW_850_thetae_033.txt.gz
Theta_e
320 320 321 322 322 322 324 325 325 325 327 330 335 337 338 336 336 335 334 331 330 330 329 330 327 325 311 310 311 311 311 311 309 307 304 302 301 300 300 300 299 298 297
317 318 319 320 321 322 324 324 324 325 327 330 333 336 337 336 336 334 333 332 332 331 329 330 327 324 309 310 311 311 311 311 309 305 302 302 302 300 299 299 298 297 296
316 316 317 318 320 321 322 323 324 325 327 330 334 336 336 336 334 332 333 333 332 331 330 328 324 312 309 311 311 311 310 308 308 304 300 300 302 300 299 298 297 296 296
314 315 315 316 317 320 322 322 324 325 328 331 333 331 327 327 328 330 333 333 331 330 329 326 313 309 310 311 311 311 310 308 305 302 299 297 296 296 297 297 296 296 295
315 314 315 315 315 317 321 322 324 326 330 330 330 328 326 324 327 331 332 332 329 328 326 326 309 309 310 310 310 310 309 307 303 300 297 295 295 295 294 295 295 295 294
313 314 314 314 314 314 316 322 324 327 330 329 327 325 324 324 327 332 330 328 328 325 321 315 309 309 309 310 309 309 307 305 302 298 296 295 294 294 293 293 293 293 293
315 316 315 313 314 315 315 321 323 327 328 326 325 325 326 325 328 331 330 328 327 323 320 309 308 308 309 309 308 307 306 303 299 296 295 294 293 293 292 291 291 291 292
316 317 318 315 314 316 317 319 324 326 325 323 326 326 325 325 330 330 330 326 325 320 311 307 308 308 308 308 307 306 304 300 297 295 295 294 293 292 291 291 290 290 291
316 317 318 317 314 316 319 320 324 325 324 324 325 325 324 328 329 329 325 323 320 312 307 307 307 307 307 306 305 304 301 298 295 295 294 293 292 291 291 290 290 290 290
315 316 317 317 316 316 318 321 323 324 322 324 324 321 323 328 329 329 324 320 313 310 307 306 307 307 306 305 303 302 299 296 294 293 293 292 291 290 289 289 289 289 289
315 315 317 316 316 318 320 323 323 322 321 321 318 322 327 326 327 325 319 318 308 308 306 305 306 305 304 303 302 299 296 295 293 292 292 291 290 289 288 288 288 287 288
315 315 316 318 319 321 322 323 322 320 319 315 314 322 326 326 324 318 316 306 308 304 305 305 305 303 302 301 299 296 294 294 293 292 291 290 289 288 287 287 287 287 287
315 315 316 316 319 321 322 321 319 317 313 311 314 322 323 321 317 313 308 306 304 304 304 304 303 302 301 299 296 294 294 293 292 291 290 288 288 287 287 287 287 287 287
313 315 314 315 317 318 318 317 314 310 309 311 315 318 316 317 314 307 303 303 303 303 302 302 301 301 298 295 294 294 293 292 291 289 288 288 287 287 287 286 286 287 286
314 314 314 314 314 315 315 311 305 305 308 313 315 314 312 308 304 302 302 303 304 302 301 301 300 298 295 294 293 292 291 290 289 288 288 287 287 286 286 286 286 286 285
312 314 311 312 313 311 307 303 303 306 310 312 312 310 305 303 301 302 302 303 304 301 300 299 297 295 294 293 293 292 290 288 287 287 287 287 286 286 286 286 286 286 286
314 314 310 310 308 303 304 302 304 309 310 310 304 303 303 301 304 302 302 301 301 299 298 297 294 293 293 292 292 290 288 286 287 287 287 286 286 286 286 285 286 285 285
314 313 309 305 302 302 302 301 303 307 309 306 303 302 301 302 302 300 299 299 299 297 296 294 293 292 292 291 289 287 286 286 286 287 286 286 286 286 286 285 285 285 285
313 309 305 302 300 300 299 301 303 304 305 307 307 302 302 302 300 298 299 299 297 295 293 292 292 292 290 290 287 286 285 285 286 286 286 286 286 285 286 285 285 285 284
308 304 300 299 299 299 299 303 305 306 303 300 300 298 298 299 298 299 298 296 294 292 292 291 291 291 289 287 286 285 284 285 285 285 285 285 285 286 285 285 285 283 283
303 301 302 302 301 302 305 305 302 302 302 298 298 298 298 299 298 297 295 293 292 291 291 291 290 288 287 286 285 284 283 284 285 285 285 285 285 285 285 284 283 283 283
300 300 299 297 297 297 296 295 297 297 298 299 298 298 298 297 296 294 292 291 291 290 290 290 287 286 285 285 284 283 283 284 284 284 284 284 284 284 284 283 282 282 283
304 303 303 300 297 298 300 300 298 298 298 298 297 297 296 295 294 292 290 290 290 290 290 287 286 285 285 284 284 284 284 284 284 284 284 284 284 283 282 281 282 282 281
300 303 303 300 299 300 301 302 300 299 298 298 296 296 295 293 290 290 290 289 290 289 286 285 285 284 284 283 283 282 282 283 283 283 283 283 282 281 281 281 281 281 281
300 299 301 301 300 299 300 299 298 298 297 296 296 294 292 290 289 289 289 289 289 287 285 284 284 283 282 282 281 282 282 282 283 283 282 281 281 281 280 280 281 282 282
299 300 300 300 299 299 298 297 296 296 297 296 295 292 289 289 288 288 289 289 286 285 284 284 283 282 281 281 281 281 282 283 282 281 280 280 280 280 280 280 281 283 283

GFSMW_850_thetae_036.txt.gz
Theta_e
320 321 321 322 321 321 323 327 326 326 326 333 337 339 338 338 336 335 334 334 333 330 328 328 328 328 326 321 310 311 312 312 312 311 309 305 303 302 301 300 300 298 298
318 319 319 320 321 322 321 321 326 326 325 325 331 336 338 336 336 335 335 334 334 331 329 328 329 329 326 315 310 311 312 312 311 310 306 303 302 301 301 300 299 298 297
316 317 317 318 319 320 322 322 323 325 325 325 327 334 338 337 336 335 335 334 334 331 329 328 329 329 324 311 311 311 312 312 311 309 306 301 301 301 299 299 298 298 297
315 315 315 316 317 318 320 320 322 324 324 325 329 334 337 336 336 334 335 334 332 331 330 329 329 326 320 310 311 311 311 311 310 309 305 301 299 297 297 297 298 297 296
314 314 314 314 315 315 318 319 321 323 324 326 329 334 335 334 333 333 334 330 330 329 327 328 328 323 313 310 311 310 310 310 309 307 303 299 297 296 295 295 296 295 295
313 313 313 314 314 314 315 316 321 322 324 327 330 334 333 331 332 333 332 331 329 326 326 326 324 317 315 310 310 309 309 309 308 306 302 298 296 295 294 294 294 293 294
313 314 316 317 317 314 314 314 315 323 323 328 332 334 332 331 328 326 325 327 327 325 325 323 319 316 310 309 309 308 308 308 307 304 300 297 295 294 293 292 292 292 293
313 316 317 317 318 318 314 314 314 323 324 328 332 331 330 328 325 323 324 328 327 325 322 321 315 309 309 309 308 308 307 307 305 301 298 296 295 294 293 292 291 291 290
315 316 315 317 317 318 314 315 315 323 326 329 330 329 325 324 324 323 327 328 326 323 322 316 309 308 308 308 307 307 306 305 302 299 296 295 295 294 292 291 290 289 289
316 315 315 314 315 317 315 316 317 320 326 328 328 325 325 325 324 325 328 325 324 318 317 311 307 307 306 306 306 305 304 302 299 296 295 294 294 293 291 290 289 289 288
315 315 315 314 315 316 316 316 319 322 325 325 325 325 326 324 323 325 323 322 321 317 309 306 306 305 305 305 304 304 302 299 296 295 295 294 292 291 290 289 288 287 287
314 314 315 315 315 319 318 318 320 323 324 324 324 325 324 322 324 320 319 316 313 308 306 304 305 305 304 304 303 302 300 297 295 294 293 292 291 290 289 288 287 287 287
313 314 315 314 316 320 321 321 322 322 322 323 324 322 319 319 315 316 310 307 309 309 305 304 304 304 304 302 302 299 296 295 294 293 292 291 289 289 288 287 287 286 286
312 314 315 314 316 319 321 322 320 320 320 320 318 316 317 313 314 310 307 310 309 303 303 304 303 303 301 300 298 296 295 294 293 292 290 289 288 288 287 287 287 287 286
311 314 315 314 315 317 319 318 317 315 315 312 311 312 310 311 309 307 304 303 300 302 302 303 303 302 301 298 295 294 293 292 291 289 288 288 287 287 287 287 287 287 286
312 313 314 313 314 315 315 313 312 311 310 308 306 304 307 307 305 302 303 304 302 302 302 302 301 301 299 295 294 293 292 291 289 288 288 287 287 286 287 287 287 286 286
312 314 313 312 313 308 308 308 306 304 303 302 300 301 303 302 302 304 302 299 299 302 300 299 299 297 295 294 293 292 290 288 288 287 287 286 286 286 286 286 286 286 285
311 312 311 311 310 307 306 305 301 299 298 297 298 301 301 301 302 300 302 305 301 299 299 299 295 294 294 293 292 290 288 287 286 286 286 286 286 286 286 286 286 285 285
312 311 309 308 306 303 299 298 296 296 296 297 298 300 304 305 306 304 298 298 299 298 297 297 293 293 292 292 290 287 287 286 285 285 285 285 285 285 286 286 285 285 285
309 307 305 301 299 297 297 297 296 299 302 304 305 303 303 303 297 296 299 298 296 299 295 292 292 292 290 288 287 287 286 285 284 284 284 284 285 286 286 285 285 285 284
299 298 297 296 296 296 297 298 300 304 306 305 305 302 299 295 297 297 297 299 296 292 292 291 291 290 288 287 286 285 285 284 284 284 284 284 284 285 285 285 285 284 283
299 298 298 298 299 300 303 305 305 303 305 307 302 295 296 298 296 297 296 293 292 291 291 290 289 287 286 285 285 284 285 285 284 284 284 284 284 285 284 284 283 283 284
300 301 301 301 301 303 306 308 306 299 296 297 297 297 295 294 295 294 292 291 290 290 290 289 287 286 285 284 283 283 283 282 283 283 283 284 283 282 282 281 282 282 281
296 294 294 294 294 296 297 297 295 295 296 295 294 294 296 295 293 291 290 290 290 290 288 286 285 284 284 283 282 282 282 282 282 283 283 283 282 281 281 281 281 282 282
295 296 297 297 296 296 297 296 296 296 296 296 296 295 294 291 290 289 289 290 290 287 285 285 284 284 283 282 281 282 282 282 283 284 282 281 280 280 280 281 282 283 283
297 298 297 297 296 296 294 294 295 296 297 297 295 293 290 289 289 289 290 289 287 285 285 285 284 282 282 281 281 282 282 283 283 282 281 280 280 280 280 281 282 283 283

GFSMW_850_thetae_039.txt.gz
Theta_e
320 320 320 320 320 319 320 321 324 330 335 336 335 337 338 337 337 335 335 333 332 332 330 330 327 327 327 326 325 311 311 312 313 312 311 308 306 304 303 301 301 300 299
317 318 319 320 320 321 320 320 322 326 330 336 335 333 333 335 336 335 334 333 333 332 332 330 327 327 327 326 325 311 312 312 312 312 311 307 305 304 302 301 299 299 298
315 316 317 318 319 319 320 321 321 322 327 329 332 331 332 335 335 335 335 334 333 333 332 331 328 327 327 326 322 311 312 312 312 312 311 307 304 303 301 300 299 298 298
315 315 315 316 316 317 317 319 320 321 322 326 328 329 331 332 335 332 334 334 333 333 332 331 328 327 327 324 317 311 312 312 311 311 310 308 305 302 300 299 298 298 297
315 315 314 314 314 315 316 316 318 318 320 322 325 325 326 331 332 332 333 333 332 330 332 330 327 328 327 324 311 311 311 311 311 310 309 307 303 300 298 298 298 297 297
314 313 314 314 314 314 314 314 315 318 319 320 324 325 325 326 331 332 331 331 331 331 331 329 327 327 326 322 310 311 310 310 310 309 308 305 302 298 296 296 296 295 296
313 313 314 315 315 316 317 315 314 314 317 320 321 325 326 327 328 328 329 329 330 330 329 327 326 325 319 315 312 309 309 309 308 307 306 303 299 297 296 294 294 293 294
313 313 315 316 316 315 315 316 317 313 314 320 321 324 326 329 329 328 329 330 330 329 328 326 325 320 317 312 309 308 309 308 307 306 304 300 297 296 294 293 292 292 291
315 315 315 314 310 309 310 316 317 314 313 315 324 325 327 331 329 329 330 330 329 328 327 324 323 315 312 307 308 308 307 307 305 304 301 298 296 295 294 293 291 290 289
315 315 315 315 313 310 311 316 316 314 314 316 325 328 328 329 329 329 328 324 323 325 325 322 317 311 307 306 307 307 306 305 304 302 298 296 295 294 293 292 290 289 288
315 315 315 314 312 310 311 316 315 315 315 320 325 327 328 327 327 328 324 322 322 324 322 318 316 308 306 305 306 305 304 303 300 298 296 295 294 293 292 290 289 288 288
314 314 314 314 311 311 312 318 317 318 318 321 325 326 327 327 327 324 323 322 322 319 317 312 306 303 303 304 304 303 302 300 297 295 294 293 292 291 290 289 288 288 287
311 313 314 312 312 312 313 320 320 319 320 321 324 325 325 325 323 323 321 319 317 314 309 306 303 303 303 303 303 302 302 298 295 294 293 292 291 290 289 288 288 287 287
312 312 314 313 313 314 315 320 320 320 320 324 323 323 323 321 321 319 315 312 310 307 302 300 300 301 302 302 299 300 298 295 294 293 292 290 289 288 288 287 287 287 287
310 312 314 314 314 314 317 319 319 320 321 322 322 321 318 315 313 310 307 304 301 300 299 302 305 302 301 302 298 297 294 294 293 292 290 289 288 287 287 287 287 287 287
312 314 314 313 313 314 316 317 314 317 317 318 317 314 310 307 305 301 301 303 302 302 301 300 301 300 297 295 294 293 294 294 291 290 289 288 287 286 286 286 286 287 287
311 311 312 312 312 312 314 310 308 308 310 312 309 306 305 303 301 300 300 301 300 304 305 301 297 300 295 293 295 293 292 291 289 288 288 287 286 286 286 285 286 286 286
310 311 312 311 310 310 307 307 306 306 306 304 301 300 300 299 297 299 304 305 304 301 301 299 296 295 296 293 292 292 290 289 288 287 286 285 285 285 285 286 286 286 286
310 311 310 308 307 306 305 305 302 302 299 297 296 296 297 301 303 303 303 303 304 300 295 293 295 292 291 292 291 290 288 288 287 286 285 284 284 284 286 286 286 285 285
305 307 305 304 303 301 301 302 298 297 297 297 299 300 302 303 304 304 303 298 294 292 293 293 292 291 291 290 289 288 288 287 285 284 284 283 284 285 286 286 286 285 284
303 302 302 302 299 298 298 297 296 299 298 299 301 303 302 301 299 296 294 294 294 293 291 291 291 290 290 288 287 286 285 285 285 284 282 283 283 285 285 285 284 284 284
298 298 299 299 298 298 299 299 300 300 301 303 304 301 299 297 295 293 297 296 291 291 291 290 290 289 287 286 285 284 284 285 283 282 282 283 284 284 283 283 282 283 283
300 299 299 297 298 300 301 301 302 302 302 302 300 296 292 292 294 295 292 291 290 290 291 290 288 286 285 284 284 283 282 282 282 282 283 284 283 282 281 281 281 281 282
304 303 303 302 301 301 303 304 303 303 298 294 293 295 298 295 292 290 290 290 290 291 289 286 285 285 284 283 282 282 282 282 283 283 284 283 282 281 280 281 282 283 283
301 304 305 303 302 302 301 299 296 295 294 295 296 295 294 291 290 290 290 290 289 287 286 286 285 284 282 282 282 282 283 283 283 283 282 281 281 281 281 283 283 283 283
298 297 297 297 295 295 295 294 294 295 296 296 296 294 291 289 289 289 290 288 286 286 285 284 283 282 282 282 282 282 283 283 281 281 280 280 280 280 282 282 283 284 284

GFSMW_850_thetae_042.txt.gz
Theta_e
319 319 320 319 320 319 319 320 319 320 331 336 334 335 336 336 336 335 335 334 334 333 330 328 328 328 329 326 325 325 320 310 312 312 311 309 307 305 304 302 301 300 300
317 317 318 318 319 319 319 319 319 319 320 329 333 334 332 333 333 334 336 335 334 333 331 330 329 329 329 326 326 325 318 311 312 312 312 309 307 305 304 302 301 300 299
314 314 315 316 318 318 318 320 320 320 319 323 329 332 334 332 332 333 335 335 335 333 330 330 330 330 329 326 326 325 318 311 312 312 312 310 308 306 305 301 300 300 299
314 315 314 314 315 316 316 318 319 319 320 321 330 331 331 332 331 329 331 334 334 333 330 330 331 331 330 327 327 325 314 311 312 312 311 311 310 307 302 301 299 299 298
314 314 315 315 314 314 315 315 316 317 317 320 321 328 331 331 329 328 329 330 332 332 330 328 329 331 330 327 327 325 314 311 311 311 311 310 309 307 304 301 299 298 297
314 314 314 314 314 314 314 314 314 315 315 316 319 320 323 333 331 330 329 329 330 330 330 330 329 330 328 327 325 323 314 310 311 310 310 309 308 305 302 299 298 297 297
313 313 313 314 313 314 314 314 314 314 314 315 315 318 320 321 329 330 329 328 329 330 329 329 330 329 327 325 324 322 310 310 310 309 308 307 305 303 299 297 296 295 295
311 313 314 314 314 314 313 313 313 313 313 313 314 314 318 320 323 327 327 327 326 326 327 328 328 326 325 322 321 314 310 309 309 307 306 305 302 300 297 296 295 294 293
311 313 315 315 314 311 309 309 310 310 313 314 314 313 314 319 320 324 326 327 326 326 327 327 326 322 322 321 317 311 310 306 307 306 305 303 301 298 296 295 294 292 290
313 313 314 315 314 314 313 312 310 310 311 316 315 313 313 319 321 324 327 327 326 326 327 326 325 320 320 317 311 310 304 306 304 304 303 301 298 296 295 294 292 291 289
312 312 312 314 314 312 310 310 309 310 314 315 314 314 314 319 326 326 325 327 326 326 327 324 322 318 315 309 306 305 302 303 302 303 302 298 296 295 294 292 291 290 289
314 313 313 313 314 312 311 311 311 310 314 316 314 315 318 324 328 327 326 326 327 326 324 320 317 312 306 305 303 304 303 299 298 299 296 296 295 294 292 291 290 289 288
314 312 313 312 314 312 311 311 311 312 319 318 318 320 323 325 326 326 325 324 322 319 318 314 309 305 304 300 299 299 300 298 296 295 294 294 293 291 290 289 289 288 287
311 311 312 313 313 312 311 311 310 315 320 320 319 320 321 324 323 322 321 320 317 316 311 306 305 301 299 302 302 299 301 303 299 294 294 293 290 289 289 288 287 287 287
311 312 310 313 313 313 312 312 315 317 319 317 319 321 321 321 316 317 316 314 312 309 306 303 301 300 299 301 303 304 301 297 291 294 293 289 288 288 287 287 287 287 286
311 311 312 313 313 313 312 314 314 312 311 310 313 315 314 315 310 312 310 306 305 302 302 301 299 301 302 302 302 296 292 294 295 290 289 288 288 287 286 286 286 287 287
306 310 310 312 312 311 310 310 309 306 307 308 310 311 308 310 307 305 301 300 299 297 298 301 303 304 303 302 300 294 296 290 289 288 288 287 286 286 285 285 284 285 286
308 309 310 311 309 307 307 308 306 305 307 306 304 304 303 304 300 299 300 300 301 302 302 301 301 299 297 295 296 291 290 288 287 287 286 286 285 284 284 285 286 286 286
305 308 307 307 305 305 304 306 304 306 305 301 298 298 298 298 300 300 301 301 302 301 300 300 301 297 293 291 291 290 288 287 287 286 285 284 283 283 285 286 286 286 285
299 300 300 301 302 303 302 303 301 299 298 297 298 300 301 302 301 301 300 300 300 299 294 293 291 291 290 290 289 287 287 287 286 285 284 283 282 283 285 286 285 284 284
299 299 299 300 300 299 298 299 297 298 298 298 300 300 300 301 300 300 300 299 293 291 291 290 290 290 289 287 286 286 285 285 285 284 283 282 282 284 285 284 284 283 283
297 297 297 296 296 297 297 297 299 299 300 300 300 299 299 300 298 293 292 293 291 290 290 290 290 289 287 286 285 284 284 283 282 282 282 283 284 284 283 282 281 282 282
300 299 300 299 298 298 299 301 301 300 300 299 300 300 298 294 292 297 294 290 290 290 290 290 288 286 285 285 284 283 282 282 282 283 283 284 283 282 281 281 281 282 283
304 303 303 303 301 301 302 303 301 300 300 299 295 294 293 293 292 290 290 289 289 290 289 287 286 285 285 284 283 283 283 283 283 283 283 282 281 280 280 281 283 283 283
304 304 304 304 303 302 302 302 302 299 296 295 296 294 292 290 289 289 289 290 290 288 287 286 285 284 283 283 283 282 283 283 283 282 281 281 281 281 282 283 283 284 284
304 304 304 304 303 302 299 296 295 294 294 293 292 291 290 289 289 289 290 290 288 287 286 285 283 283 282 282 282 281 282 282 281 280 280 280 280 282 283 283 284 284 284

GFSMW_850_thetae_045.txt.gz
Theta_e
318 318 319 319 318 319 318 319 320 320 319 320 333 336 334 334 335 336 336 333 332 333 332 330 325 326 327 327 328 325 324 323 315 310 311 310 309 306 306 304 302 301 300
318 318 318 319 319 319 319 319 318 319 319 319 321 330 333 334 333 333 334 334 333 333 331 331 328 327 327 328 328 327 325 324 313 311 312 310 308 307 306 305 303 302 301
313 314 314 315 315 317 318 319 319 319 319 319 319 326 333 335 333 332 332 335 334 333 331 330 330 328 328 328 328 328 325 324 316 311 312 310 310 307 306 305 302 301 300
313 314 314 314 314 314 314 316 317 317 318 319 319 319 321 328 333 332 331 330 333 331 330 330 329 330 329 329 328 328 326 325 317 311 312 311 311 309 307 304 302 301 300
312 313 314 314 314 314 314 314 315 315 316 316 317 320 323 325 329 330 331 331 330 330 330 330 329 328 330 329 329 327 326 326 319 311 312 311 310 310 308 305 303 300 299
313 313 314 314 314 314 314 314 314 314 315 315 316 316 319 325 328 332 330 331 329 328 329 330 329 328 328 329 329 327 325 324 321 311 311 310 309 309 308 305 302 300 298
311 312 313 314 314 313 313 314 314 314 314 314 314 314 315 318 322 323 327 330 330 328 327 327 328 327 327 328 328 325 323 320 316 314 310 309 311 308 305 303 301 298 298
311 311 313 314 315 314 314 314 314 314 314 314 314 314 314 314 315 319 320 324 329 330 327 327 328 328 326 326 325 322 319 315 316 308 311 310 309 305 303 302 299 297 296
311 312 312 312 313 314 312 313 312 310 311 311 311 312 313 314 313 314 318 320 324 327 329 328 327 326 326 325 322 319 313 312 309 310 305 306 303 302 299 297 296 295 293
314 315 314 313 314 312 314 313 312 311 311 310 311 311 312 314 314 313 315 320 321 326 328 327 325 326 324 323 320 313 309 308 306 305 303 304 301 299 296 295 294 293 292
314 315 314 314 313 314 313 312 310 311 310 310 309 310 314 315 314 313 315 320 324 327 326 327 325 324 323 319 313 308 308 306 303 303 299 299 298 296 295 294 293 292 291
314 313 312 311 312 312 313 312 311 311 311 311 310 313 315 314 315 315 319 323 325 326 326 324 323 323 318 310 308 306 302 302 303 304 304 298 294 294 294 296 294 290 289
313 312 311 311 312 311 313 312 312 311 311 310 314 318 317 316 319 320 322 321 323 322 321 321 322 315 307 306 301 301 302 303 300 297 295 297 299 301 297 291 290 289 288
312 312 311 311 312 313 313 313 311 311 311 313 318 319 320 321 321 321 319 319 320 320 319 318 314 307 305 302 302 302 303 301 298 299 301 302 301 295 289 289 288 288 287
308 309 311 312 312 312 313 312 312 313 314 314 316 315 316 317 319 317 316 316 317 318 315 311 303 302 302 303 302 300 302 302 301 301 300 298 291 289 288 288 287 287 287
303 308 310 311 312 312 312 311 311 310 310 311 311 312 312 313 314 313 311 309 310 309 304 301 301 301 301 301 302 302 302 302 302 299 291 289 288 287 287 286 286 286 286
300 307 308 310 310 311 310 309 308 307 306 306 303 303 304 305 305 306 304 302 302 301 301 301 302 302 301 300 300 301 301 297 289 288 288 287 287 286 285 285 284 284 285
302 308 308 309 309 309 307 307 306 305 305 305 305 303 303 304 300 301 302 300 300 300 300 300 300 301 300 300 299 295 290 288 288 288 287 286 286 285 284 284 285 285 285
300 303 305 305 304 304 304 304 304 304 305 303 304 301 301 300 299 299 299 299 300 300 300 299 300 301 299 294 290 289 288 288 287 286 286 285 284 283 283 284 285 285 285
299 301 302 301 301 301 300 301 299 298 298 298 299 297 296 298 299 299 300 299 300 299 299 300 299 292 289 288 287 287 287 287 287 286 285 283 282 282 284 286 285 284 283
298 299 299 299 299 298 297 297 296 297 296 296 296 297 299 299 299 300 299 299 300 300 296 291 289 288 288 287 287 286 286 285 285 284 283 283 283 284 285 284 283 282 283
297 298 297 297 297 297 296 298 298 297 297 298 298 299 300 300 299 299 297 297 294 290 289 289 289 289 288 286 286 285 284 283 282 283 283 283 284 283 282 282 281 281 282
300 298 298 298 296 296 299 300 299 299 300 300 300 299 299 298 297 297 294 291 290 289 290 290 289 287 286 285 284 283 283 283 283 283 283 283 282 281 281 281 281 282 283
303 302 301 301 301 300 301 301 301 300 301 300 298 294 294 294 292 290 289 289 289 289 288 287 285 285 285 284 283 283 283 283 283 283 283 282 281 280 280 281 282 283 283
305 304 304 303 302 302 302 302 301 299 296 295 294 294 293 291 290 289 289 289 289 288 287 286 285 284 283 283 283 282 282 282 282 282 281 281 281 280 281 283 283 283 284
305 304 304 304 303 302 302 300 297 296 297 296 293 292 291 289 289 289 289 289 288 287 286 285 283 283 283 282 282 281 281 281 280 281 280 280 280 281 282 283 284 284 284

GFSMW_850_thetae_048.txt.gz
Theta_e
319 319 319 318 318 318 318 318 318 319 319 320 321 327 336 334 334 334 333 335 335 333 329 328 324 326 325 323 326 327 327 324 323 321 310 310 311 310 307 306 304 303 302
317 316 316 316 317 318 318 318 319 318 318 318 319 320 321 323 329 333 333 332 334 334 332 331 330 327 325 323 326 327 327 325 322 321 310 310 309 310 308 306 305 305 303
311 312 312 313 313 313 315 316 318 318 318 318 318 318 320 321 325 329 332 332 332 333 333 331 330 329 327 325 326 327 327 327 324 322 312 310 311 309 308 306 305 305 303
311 311 312 313 313 314 314 313 314 317 317 317 317 317 319 320 320 322 325 331 332 330 331 332 329 328 328 327 326 327 327 325 323 323 317 310 311 310 309 307 306 304 302
309 311 312 312 312 313 313 314 314 313 315 316 317 318 318 319 320 321 324 328 331 332 330 329 329 328 328 328 327 327 326 327 325 325 323 313 310 310 309 308 308 305 304
311 311 312 313 314 314 313 313 313 314 314 315 315 315 316 317 318 322 324 325 330 331 330 330 328 327 328 328 327 327 327 327 326 324 319 312 311 310 310 308 308 306 303
313 313 312 312 313 314 314 314 314 314 313 313 313 314 314 314 316 317 319 322 325 327 331 330 330 327 327 327 328 327 327 325 324 322 312 311 310 311 310 308 307 304 302
314 315 314 314 313 313 312 313 311 312 312 313 313 314 314 314 313 314 317 319 321 323 326 329 329 328 327 326 327 327 326 323 322 315 310 308 310 309 307 307 302 301 299
314 315 315 315 314 314 314 314 313 312 311 310 310 310 310 311 312 313 313 315 317 319 320 325 327 329 328 327 327 327 324 321 317 311 308 308 307 307 306 303 302 299 297
314 315 314 313 313 312 313 314 313 313 311 310 310 310 310 310 310 312 313 314 313 316 320 322 326 328 328 327 326 325 322 316 310 307 307 306 306 304 300 301 301 295 294
315 314 313 312 312 311 311 312 312 313 311 311 311 310 310 310 309 312 314 315 314 315 320 325 327 327 327 325 324 321 317 311 307 305 305 305 304 303 298 296 296 294 296
313 312 311 311 311 311 311 311 312 312 312 311 310 310 310 311 314 314 314 314 317 319 321 324 323 324 323 322 320 317 311 306 304 304 305 302 300 301 300 297 297 300 294
310 310 311 311 311 312 312 313 312 312 311 310 310 311 311 316 317 317 317 317 318 319 321 321 321 321 320 318 312 308 304 303 303 302 302 302 300 301 301 300 300 292 289
307 307 310 310 311 312 312 312 311 311 311 312 313 313 315 317 317 316 317 318 318 318 318 317 318 318 314 309 306 302 301 302 301 301 301 302 302 301 300 296 290 288 288
306 307 307 309 311 311 311 311 311 310 311 311 311 312 313 315 314 314 315 316 314 313 315 316 312 310 306 303 302 303 302 301 301 302 301 300 300 295 289 288 288 287 287
304 305 306 308 310 310 310 309 309 309 308 307 308 310 310 310 311 312 312 311 311 309 307 304 304 302 302 302 301 301 301 302 301 300 300 296 289 287 287 287 286 286 285
302 305 305 308 309 307 308 307 307 307 305 304 305 305 306 307 306 306 305 303 304 302 303 300 300 301 300 301 301 301 300 300 300 294 289 287 287 287 287 286 285 284 284
302 302 302 302 305 306 306 305 305 305 303 302 301 301 301 302 301 301 300 300 298 298 298 299 300 300 300 300 300 300 298 291 290 288 288 287 287 286 285 284 283 284 285
300 300 300 300 301 303 304 303 304 303 301 301 300 300 300 302 300 301 299 298 299 299 299 299 299 300 299 299 296 290 289 290 288 287 287 286 285 284 283 284 285 285 285
299 300 299 299 300 302 301 300 299 299 299 300 299 298 298 299 299 298 298 298 298 298 298 299 299 299 295 290 288 287 288 287 287 286 285 283 283 283 285 286 285 284 283
299 299 298 298 299 299 297 297 297 296 296 296 296 297 298 298 298 298 297 297 298 298 298 293 290 290 288 287 287 288 287 286 285 283 283 283 283 284 285 284 283 282 282
301 299 298 297 298 297 296 298 297 296 297 298 298 298 298 298 298 298 298 297 291 290 290 290 290 289 288 287 286 285 284 283 283 283 283 283 283 283 282 281 281 281 282
304 301 299 297 298 299 299 300 300 299 299 299 299 298 298 298 296 293 290 290 289 289 290 289 288 286 286 285 284 283 283 283 283 283 283 282 281 281 281 280 280 282 283
305 305 302 302 301 300 301 301 299 299 299 299 297 295 295 293 290 289 289 289 289 289 288 286 286 285 285 284 283 284 283 282 282 282 282 281 280 280 280 281 282 283 283
306 305 304 303 302 301 301 300 299 298 297 295 294 293 292 290 289 289 289 289 289 287 287 286 285 284 283 283 283 282 282 282 281 281 281 280 280 281 281 283 283 284 284
305 305 304 303 302 302 300 298 296 294 296 295 293 292 290 289 289 289 289 288 287 286 286 284 284 283 283 282 282 281 281 281 281 280 280 280 280 281 283 283 284 284 284

GFSMW_850_thetae_051.txt.gz
Theta_e
316 317 317 318 318 318 318 318 318 318 319 321 323 322 323 327 333 332 332 332 333 334 334 333 327 322 324 325 327 325 327 327 325 321 320 318 309 310 309 308 306 304 303
312 312 312 312 313 315 316 317 318 318 318 318 319 320 322 322 324 329 331 331 332 331 331 333 331 324 321 324 327 325 325 327 326 321 319 313 311 309 310 309 306 305 304
309 311 311 312 312 312 313 313 315 317 318 318 318 317 318 319 320 322 324 327 330 331 331 330 331 329 326 324 326 325 324 327 326 324 319 313 312 311 310 309 307 306 305
310 312 312 312 311 312 313 313 313 313 316 317 317 317 317 319 319 319 319 320 323 329 331 330 330 329 329 329 327 326 324 326 327 324 323 323 318 312 310 309 308 305 304
313 313 312 313 314 314 313 312 313 313 313 313 314 316 317 317 317 318 319 320 321 324 328 330 330 329 329 329 329 328 325 325 326 326 326 325 322 319 312 310 309 307 306
315 315 314 313 313 313 314 314 314 313 313 313 313 314 315 316 318 318 319 320 320 321 326 328 329 330 328 328 328 328 327 326 325 326 325 325 323 321 311 307 308 309 306
315 316 315 315 314 313 313 313 313 312 312 314 313 312 313 314 316 317 318 320 319 320 321 323 324 328 329 329 327 327 328 327 325 325 324 324 323 319 310 309 312 308 306
315 316 315 315 314 314 314 314 313 313 312 310 310 312 313 314 313 313 313 313 315 318 321 322 324 323 326 328 328 327 327 328 326 325 323 320 318 311 310 309 309 307 304
315 315 314 314 312 312 312 313 313 313 313 313 311 310 310 310 310 311 312 313 313 313 314 320 325 327 326 327 327 327 327 327 325 323 321 318 312 308 307 309 305 303 304
315 314 313 312 311 311 311 311 311 313 313 313 313 310 310 310 310 310 309 310 311 312 313 315 320 326 327 327 328 327 327 325 324 320 320 316 309 306 306 307 307 304 300
313 312 311 311 311 312 312 311 311 311 312 312 311 311 310 311 311 310 310 310 311 312 314 315 318 322 324 325 325 324 324 322 321 316 313 307 305 305 305 302 299 300 300
312 311 310 310 311 311 312 312 312 311 311 311 310 311 311 310 310 310 310 312 313 314 316 317 318 320 322 323 323 323 322 322 320 310 306 303 303 302 299 299 299 301 303
310 309 310 309 310 311 311 311 311 310 310 310 311 312 312 311 311 314 316 316 316 317 318 316 318 319 320 321 320 319 319 314 307 305 301 301 301 299 300 300 300 300 300
306 307 308 308 309 310 310 310 311 310 310 311 312 311 311 311 312 315 315 316 315 316 315 316 316 317 317 317 316 314 309 301 299 299 301 301 302 302 300 300 299 298 292
305 305 307 307 309 307 308 309 309 310 311 310 310 309 310 310 311 311 312 313 312 312 313 314 313 312 310 309 307 302 302 300 300 301 302 301 300 300 299 298 290 289 288
302 303 305 306 307 306 307 308 309 309 308 306 305 305 305 306 308 307 308 309 307 307 306 305 305 304 301 299 299 299 301 302 302 301 300 299 300 297 288 287 287 286 286
301 302 302 304 304 305 305 306 307 307 307 305 303 302 302 302 303 303 304 304 304 303 302 300 298 298 299 301 301 300 300 300 300 299 299 293 288 287 287 286 286 285 284
300 301 301 302 302 303 303 304 305 305 306 305 303 301 301 300 300 300 300 300 301 300 300 299 299 300 298 298 300 300 299 299 293 289 288 287 287 286 286 285 284 284 284
300 300 300 301 301 302 301 301 301 301 302 301 300 300 300 299 298 298 298 297 298 298 298 298 298 298 298 299 300 297 292 289 288 287 287 287 285 284 283 284 285 285 285
300 300 300 300 300 300 298 298 298 298 298 298 298 299 298 298 298 298 298 297 298 297 297 298 298 298 298 293 290 289 288 288 287 286 285 284 283 283 285 285 285 284 283
302 299 299 299 299 297 297 297 296 297 297 298 297 297 297 297 297 298 298 298 298 298 298 297 292 290 290 288 288 287 287 285 284 284 283 283 284 284 284 284 282 281 282
303 300 299 299 298 298 298 298 298 297 297 298 298 298 298 298 298 298 298 295 292 290 290 289 289 288 287 286 286 285 284 284 284 284 283 283 283 282 282 281 281 281 282
305 302 301 301 301 301 300 300 300 299 298 299 299 298 298 296 292 290 290 290 289 289 289 288 287 286 285 285 284 283 283 283 283 283 282 282 281 281 281 281 281 282 283
306 305 304 302 302 302 301 302 300 299 299 298 296 294 292 291 290 289 289 289 289 288 287 286 286 285 284 283 284 283 283 282 282 282 281 281 281 280 280 281 282 283 283
306 305 305 304 304 302 301 298 298 298 295 295 294 292 291 290 289 289 289 289 288 287 286 285 284 283 283 283 282 282 282 281 281 281 280 280 280 280 282 283 283 284 284
306 305 304 304 303 301 299 298 297 295 295 294 292 291 290 289 289 289 289 287 286 285 284 284 284 283 282 282 281 281 281 280 280 280 280 280 280 281 283 283 284 284 284

GFSMW_850_thetae_054.txt.gz
Theta_e
316 314 316 317 317 318 318 318 317 316 319 332 325 331 336 332 332 331 329 334 333 333 334 333 332 329 326 325 326 327 327 323 326 325 322 321 320 317 309 309 308 308 305
312 311 312 314 314 315 316 317 317 318 318 322 327 320 328 332 333 329 328 330 330 330 330 331 332 332 331 326 325 326 328 325 325 326 315 314 315 319 313 309 309 308 306
312 313 313 311 311 312 312 313 314 316 317 317 322 329 330 329 323 322 323 325 327 328 331 330 331 330 331 330 325 323 325 328 325 326 321 316 318 314 316 312 310 308 306
313 314 314 314 313 313 312 312 312 313 314 316 316 323 329 329 324 318 319 320 322 324 327 330 329 331 331 329 329 326 323 327 327 325 326 323 317 314 315 316 316 309 308
314 315 314 313 313 313 313 313 313 312 312 312 313 315 326 328 328 328 323 322 320 319 322 322 327 328 329 330 329 328 326 324 327 325 325 325 322 320 321 315 314 315 318
315 316 315 315 314 313 313 313 313 313 313 312 312 312 312 323 327 327 328 327 325 320 320 321 324 327 327 328 330 329 328 327 326 327 325 325 325 323 321 313 314 315 311
315 315 315 315 315 315 314 314 313 313 313 311 312 313 312 314 323 326 328 328 327 323 319 320 321 323 324 325 328 329 328 328 327 327 326 325 326 325 324 319 319 313 310
315 315 314 314 314 314 313 313 314 314 313 313 312 311 310 313 313 313 319 325 326 325 317 318 320 322 325 326 325 325 327 328 328 328 327 326 325 323 322 320 319 309 307
316 315 313 313 312 311 311 311 311 312 312 313 313 313 312 310 310 310 311 312 312 313 315 314 314 318 324 327 327 326 326 327 327 327 327 326 324 320 320 318 308 307 307
316 313 313 312 311 311 312 312 312 312 312 312 312 312 312 311 310 310 310 310 310 310 311 311 313 314 316 323 327 325 325 326 326 325 325 323 322 315 313 310 307 306 305
314 312 311 309 311 311 312 312 311 311 311 311 311 311 311 310 310 310 310 311 311 311 311 311 312 314 316 320 322 324 325 325 325 324 322 321 316 316 311 307 306 302 304
312 309 308 308 309 311 311 311 310 310 311 311 311 311 311 311 311 311 311 311 311 311 312 313 314 315 320 321 322 322 321 323 322 320 319 317 310 307 306 301 302 303 302
309 307 306 307 308 309 310 310 310 310 310 310 311 311 311 311 311 311 311 311 313 314 315 315 316 317 317 317 317 318 318 318 318 317 312 308 306 299 300 302 302 302 302
306 305 306 306 307 308 308 308 309 310 310 310 311 311 310 310 310 310 311 312 314 315 314 314 314 314 314 315 316 317 315 313 310 305 301 299 299 300 301 301 301 300 299
305 303 305 303 306 306 308 309 309 309 309 309 309 309 309 310 310 310 310 311 312 311 311 311 312 312 310 309 310 308 305 302 300 299 299 300 300 300 300 299 298 299 293
303 301 303 301 305 305 306 307 306 307 308 308 307 307 306 307 307 306 306 307 306 305 304 304 304 303 302 301 300 300 300 299 300 300 300 300 300 299 298 298 291 289 287
301 300 302 300 303 303 304 305 305 306 306 305 305 305 303 304 304 303 303 302 300 299 300 300 299 298 298 298 299 299 299 300 300 299 298 298 296 290 287 287 286 286 286
301 302 302 302 302 301 303 303 303 303 303 302 302 302 302 301 300 300 300 300 299 298 297 297 298 299 298 299 299 299 299 299 299 299 295 291 289 287 287 286 285 284 284
302 302 301 301 301 301 301 300 300 300 301 301 301 300 301 300 299 299 298 297 298 298 298 298 298 299 298 297 298 298 297 292 289 288 287 287 286 285 284 284 285 285 286
304 300 300 300 300 299 298 298 299 298 299 299 299 299 299 299 298 298 298 297 297 297 297 297 297 297 298 293 290 288 287 287 287 286 285 284 284 284 284 286 285 285 284
303 301 299 298 299 298 298 298 298 298 298 298 298 298 298 298 298 297 297 297 297 297 296 294 291 290 289 287 287 286 286 285 284 284 284 284 284 284 283 283 283 282 282
303 301 300 299 299 299 298 298 299 297 297 297 298 298 297 297 297 297 296 293 290 290 290 289 288 288 287 286 286 285 285 284 284 283 283 283 283 282 282 281 281 281 281
304 302 301 301 301 300 300 300 300 300 299 299 299 298 298 296 291 290 290 290 290 289 289 287 287 286 285 285 284 284 284 283 283 283 282 282 282 281 281 281 281 282 283
305 304 303 303 302 302 301 301 300 300 299 298 297 293 291 290 290 290 290 290 289 288 287 286 286 285 284 284 284 283 283 282 282 282 281 281 281 281 281 281 283 283 284
305 305 304 303 302 300 300 300 299 299 297 294 293 291 290 289 289 290 290 289 288 287 286 285 284 284 283 283 283 282 282 282 281 281 281 280 280 280 281 283 283 284 284
306 305 304 302 303 302 300 300 297 296 295 294 292 290 290 289 290 290 288 287 287 286 285 284 284 283 283 282 282 281 281 281 281 280 280 280 280 281 283 283 283 284 284

GFSMW_850_thetae_057.txt.gz
Theta_e
317 317 316 316 316 317 318 319 319 319 320 325 333 337 332 323 329 333 337 339 338 337 335 334 333 332 331 331 329 329 327 324 321 319 317 316 320 320 319 314 309 310 310
316 315 313 313 313 314 315 316 318 318 319 319 324 331 331 323 323 328 332 334 336 335 334 334 333 333 332 331 331 329 328 324 323 320 318 316 315 320 320 319 312 309 310
314 315 316 315 314 314 313 313 315 316 317 318 319 323 331 333 334 332 331 332 333 335 336 334 334 333 332 332 331 330 329 325 323 324 322 319 319 319 317 319 318 309 309
315 316 316 316 316 314 313 312 312 312 313 315 317 318 323 329 332 332 333 332 327 324 325 330 335 334 333 333 332 331 330 327 323 323 324 322 320 318 314 314 315 312 308
316 317 317 316 317 314 313 313 314 313 312 312 312 313 315 320 327 330 331 330 331 329 322 321 325 330 331 331 331 331 330 329 325 324 324 324 322 319 318 318 315 312 308
317 317 317 317 317 316 314 313 313 315 315 312 312 312 312 314 321 327 328 329 330 330 330 329 328 324 326 331 326 329 330 329 328 324 323 324 325 323 321 320 318 317 315
317 317 317 316 316 315 315 314 314 315 314 314 313 312 312 313 313 319 324 327 327 327 327 328 330 329 327 329 329 328 331 329 327 327 324 324 324 325 322 321 318 317 315
318 317 316 315 315 314 313 312 313 313 313 314 314 314 314 312 312 313 316 322 325 326 327 326 323 319 320 325 330 329 328 328 327 326 325 324 324 323 325 323 321 313 312
318 316 315 314 314 313 312 312 312 312 313 313 314 315 315 316 314 314 314 315 316 319 322 324 326 323 318 321 323 328 326 326 325 325 323 322 322 324 322 321 319 317 310
317 315 314 313 313 313 311 311 311 311 311 311 312 313 313 312 311 311 310 311 311 312 314 317 321 322 319 319 326 325 324 326 324 323 322 321 320 322 321 318 315 319 314
316 313 312 311 312 311 310 310 311 311 311 311 311 311 311 311 311 311 311 311 311 311 311 312 313 312 313 317 319 321 320 320 320 321 321 320 320 319 317 314 309 312 307
314 311 310 310 311 309 309 309 310 310 310 310 310 310 310 311 311 311 311 311 311 312 311 312 313 314 314 314 317 317 318 318 318 318 317 315 315 314 312 310 309 303 303
311 309 309 309 309 307 308 309 309 309 310 310 310 310 310 310 310 310 310 310 310 311 312 313 313 313 315 315 316 316 317 316 315 315 313 312 310 308 304 302 303 303 303
309 308 308 308 307 305 307 308 309 309 309 309 309 308 309 309 310 309 309 308 309 310 311 312 313 313 314 314 314 315 315 314 310 309 307 305 303 302 301 301 302 302 301
308 306 306 306 305 304 304 307 307 307 307 308 308 307 307 308 308 309 309 309 309 309 309 310 310 310 310 310 310 312 310 306 303 301 300 299 299 300 301 301 300 300 298
307 305 303 303 303 303 304 306 306 306 307 307 307 306 306 305 305 306 306 306 305 306 306 306 304 304 303 301 301 302 301 300 299 299 299 300 300 299 299 299 298 298 295
306 304 302 301 301 302 304 303 304 305 305 305 305 304 304 303 303 302 302 302 302 302 301 301 301 299 297 297 297 297 298 299 299 299 299 299 298 298 296 292 289 287 287
304 303 302 301 301 301 300 302 303 303 302 303 304 302 303 301 301 300 299 299 299 299 299 298 298 298 297 297 297 297 297 298 297 297 297 297 294 289 288 287 286 286 285
303 302 300 301 302 300 301 300 301 300 300 302 301 300 300 299 299 299 299 298 297 297 297 297 298 298 297 297 297 297 296 292 290 289 288 287 286 286 285 284 285 286 287
304 301 299 301 301 300 298 298 298 298 299 301 300 299 299 298 299 298 298 298 298 298 297 297 297 297 296 292 289 287 287 287 286 286 285 285 285 284 284 285 286 285 285
302 300 300 300 300 299 297 297 298 298 299 299 299 299 299 298 298 298 298 297 297 296 293 291 290 290 288 287 287 286 286 285 285 285 285 284 284 284 283 283 283 283 282
302 301 302 302 300 299 299 298 299 298 298 299 299 298 298 298 298 297 294 290 290 290 289 288 288 287 287 286 286 285 285 284 284 284 284 283 283 282 282 282 282 282 282
304 302 302 303 302 300 300 300 299 298 299 298 298 298 298 293 290 290 290 290 289 288 288 287 287 286 285 285 285 284 284 284 283 283 282 282 282 282 281 282 281 282 283
305 304 303 303 303 302 301 301 300 300 299 298 298 294 291 290 290 290 290 289 288 287 287 286 286 285 285 284 284 284 284 283 283 283 282 282 281 281 281 282 283 284 285
306 305 303 303 303 303 302 301 300 299 298 296 293 291 290 290 290 290 290 289 288 288 287 286 285 285 284 284 283 283 282 282 281 281 281 281 281 281 281 283 284 284 284
307 306 304 304 303 302 301 300 300 298 296 294 292 290 290 290 290 290 289 288 288 287 286 285 285 284 284 283 283 282 282 281 281 281 281 280 280 281 282 283 284 284 284

GFSMW_850_thetae_060.txt.gz
Theta_e
317 317 317 317 318 318 318 319 320 320 321 323 329 336 337 332 332 328 330 336 338 335 333 333 334 333 331 331 330 331 329 329 327 323 320 316 315 317 320 320 319 313 310
317 316 316 315 316 316 315 316 317 318 319 319 320 325 331 332 331 329 326 325 330 338 336 333 333 332 332 331 331 330 330 329 328 323 320 315 313 317 320 320 319 318 314
314 314 316 315 314 313 313 314 315 316 317 318 319 319 322 327 333 330 325 321 323 331 335 335 335 333 332 332 331 331 330 330 328 327 321 316 317 319 320 321 321 318 317
315 316 316 316 316 314 313 312 312 312 313 316 317 318 319 320 330 331 328 328 328 329 328 330 333 333 334 332 332 331 331 330 329 326 324 321 321 320 318 318 317 317 315
316 316 316 317 317 315 313 313 313 314 313 312 312 312 314 317 320 325 330 331 332 331 329 328 327 330 332 331 331 330 330 330 330 328 327 323 321 319 320 320 318 316 315
317 317 317 317 317 316 315 314 313 313 315 315 313 312 312 312 312 314 320 327 329 329 330 329 330 333 332 328 329 329 330 329 329 328 328 326 325 322 319 318 319 319 317
317 317 317 316 316 315 315 314 314 314 314 314 315 315 314 313 312 312 314 321 325 327 327 326 326 325 327 330 329 325 326 327 328 327 326 326 324 323 322 321 318 317 315
318 317 316 315 315 314 314 313 312 313 313 313 314 314 314 315 315 314 314 315 318 324 325 325 325 325 325 325 328 327 323 325 325 325 326 325 323 323 320 320 320 317 315
318 316 315 315 314 313 313 312 311 311 312 312 313 314 315 315 315 315 314 313 312 312 316 322 322 323 323 326 325 323 322 322 322 323 325 324 322 322 321 318 318 317 315
317 316 314 313 312 313 311 311 311 310 310 311 311 311 312 312 312 312 311 311 311 311 312 312 313 317 320 320 322 322 320 320 321 321 321 321 321 320 320 319 318 317 314
316 314 312 311 311 311 310 310 310 310 310 310 310 310 310 311 311 311 311 311 311 311 311 311 311 312 313 314 313 317 318 317 317 319 319 319 318 318 319 318 315 312 310
315 312 310 310 311 309 309 309 309 310 310 310 310 310 310 310 310 310 310 310 310 310 311 311 311 312 312 312 312 313 316 314 315 316 315 316 316 316 315 313 310 309 306
313 310 309 309 310 308 307 307 308 309 309 309 310 310 310 310 310 310 310 309 309 309 309 309 310 310 312 312 313 313 313 315 313 314 314 314 313 311 309 308 305 303 303
311 308 308 308 308 307 306 306 307 308 309 309 309 309 309 309 309 309 309 309 308 309 308 309 310 310 309 309 310 310 310 311 312 310 309 308 309 307 305 303 302 302 302
309 307 306 306 306 305 305 306 307 308 308 308 307 307 307 307 307 307 307 307 308 309 309 309 309 307 306 308 308 309 306 304 303 303 306 300 302 301 300 300 301 301 300
309 306 305 304 304 304 304 304 306 306 306 306 304 304 305 304 304 304 304 304 306 305 305 304 303 304 303 301 301 301 301 300 299 298 299 300 298 298 297 298 297 297 298
308 306 304 303 303 303 304 304 305 305 304 305 303 303 302 303 302 301 302 302 302 300 300 301 301 301 300 299 299 299 299 298 298 298 297 297 297 297 297 297 295 289 287
307 305 303 302 302 302 302 303 303 303 303 303 302 301 301 302 301 300 300 299 299 299 299 299 299 300 299 298 298 298 299 298 298 297 296 296 294 292 288 287 286 285 285
307 304 303 302 302 302 302 301 301 301 301 301 300 300 300 300 300 299 298 297 297 298 298 298 298 298 298 297 297 295 293 290 289 288 287 287 286 285 285 285 286 286 286
307 304 303 302 301 301 300 299 299 299 300 300 299 299 299 300 299 299 298 298 298 298 297 297 294 290 290 289 289 288 288 287 286 285 285 285 284 284 284 284 285 285 285
308 304 302 302 300 299 299 299 299 299 300 300 299 299 299 299 299 299 298 296 292 290 290 290 289 289 288 287 286 286 285 285 285 284 284 284 284 284 283 283 283 282 282
307 304 302 301 299 300 301 301 300 300 299 299 299 299 298 298 297 294 291 290 290 290 289 288 288 287 287 286 286 285 285 284 284 284 284 283 283 283 282 282 282 282 282
307 305 304 301 301 302 301 301 300 300 299 298 297 298 297 293 291 290 290 290 289 288 288 287 287 286 286 286 286 285 284 284 284 283 283 282 282 282 282 282 282 282 283
307 305 306 303 302 302 302 301 300 300 299 299 298 295 291 290 290 290 290 290 289 288 287 287 286 286 286 286 285 284 283 283 283 282 282 282 282 281 281 281 282 284 284
307 306 306 304 303 303 302 301 301 300 299 298 294 292 291 291 290 291 290 289 288 288 287 286 286 285 285 285 284 283 283 282 282 282 282 282 281 281 281 282 284 284 284
307 307 305 304 304 303 302 302 300 299 298 296 293 291 291 290 290 290 289 289 288 288 286 286 286 285 285 284 284 283 282 282 282 281 281 281 281 281 282 282 283 283 284

GFSMW_850_thetae_063.txt.gz
Theta_e
317 317 317 317 317 317 317 318 320 321 321 323 323 331 333 333 333 334 334 333 333 333 334 334 334 334 334 332 331 331 332 331 330 329 327 326 322 318 318 317 317 318 320
316 316 316 317 317 317 318 318 318 319 320 320 319 320 322 326 331 330 330 333 333 330 330 334 334 334 334 333 332 331 331 331 331 329 327 323 321 320 318 317 318 318 317
314 315 315 315 315 316 316 315 316 316 317 318 319 319 319 320 322 325 329 332 332 327 326 329 331 333 333 333 332 331 331 330 330 329 327 321 320 320 320 320 318 319 318
315 315 315 315 315 315 314 313 313 314 314 316 317 318 318 318 319 322 331 331 329 327 327 328 330 329 329 330 330 329 331 330 330 330 328 326 323 320 319 321 321 319 317
315 316 316 315 315 314 313 313 313 314 313 313 312 312 313 315 316 318 320 322 328 330 330 328 326 327 327 327 329 329 329 330 329 329 330 328 325 322 320 320 321 320 318
317 317 317 317 317 316 315 314 313 313 313 314 313 313 312 312 312 312 313 316 319 326 329 328 327 326 326 326 326 326 327 328 328 329 328 328 327 324 321 319 318 318 318
317 317 317 316 316 315 314 314 314 314 314 314 314 314 314 314 313 312 312 312 315 323 326 325 326 325 326 326 325 326 324 325 325 325 326 327 326 326 325 323 318 316 317
317 317 316 315 314 314 314 313 312 312 312 313 313 313 314 314 314 314 313 313 314 314 318 323 324 322 324 324 323 324 324 322 323 323 323 324 324 324 324 323 321 316 315
317 317 315 315 314 313 313 312 311 311 311 311 312 313 314 314 315 315 315 314 314 312 312 314 317 321 322 322 322 320 321 320 320 320 321 321 321 321 322 320 319 320 315
317 316 315 314 313 312 312 311 311 311 311 310 311 311 311 311 312 312 312 312 311 311 311 311 311 312 314 316 317 319 317 315 318 317 318 318 320 321 321 321 319 317 315
316 315 314 312 311 312 311 310 310 310 310 310 310 310 310 310 310 310 310 311 311 311 311 310 310 311 311 312 313 314 313 311 314 315 314 315 318 318 318 318 318 317 313
316 315 313 311 310 311 310 309 309 309 309 309 310 309 309 309 309 310 310 310 310 310 310 310 310 310 311 311 311 311 311 312 313 313 313 314 314 314 315 316 315 314 312
315 314 311 309 309 309 308 308 308 308 309 309 309 309 310 309 309 309 310 309 308 308 307 307 308 308 308 308 309 309 311 310 311 312 313 312 313 312 311 311 311 309 308
314 312 309 309 309 308 307 307 307 307 308 308 308 309 308 308 308 308 309 309 308 308 308 309 308 308 309 309 310 310 309 309 310 310 310 308 310 307 305 303 303 304 303
312 310 308 307 307 306 306 306 306 306 307 307 307 307 307 307 307 307 307 308 307 308 308 307 308 307 307 307 306 306 307 307 306 305 305 304 302 299 298 298 299 299 299
311 309 307 306 305 305 305 305 305 305 305 306 306 305 306 306 306 306 306 305 304 304 304 304 304 304 302 301 302 301 302 301 301 300 300 299 299 299 298 298 297 297 298
310 308 306 305 304 304 304 304 304 304 304 305 305 305 304 304 303 302 301 301 301 301 301 301 301 301 300 300 299 299 299 299 299 298 298 298 298 297 296 296 297 294 289
309 307 305 304 303 303 303 303 303 304 304 304 304 304 303 302 301 300 300 299 300 300 299 299 299 299 298 298 297 298 297 297 296 296 295 293 291 290 288 287 287 286 286
309 307 304 303 302 302 302 302 302 302 302 303 303 302 301 300 299 299 298 298 299 299 299 299 298 297 294 291 289 289 288 288 288 287 287 286 286 285 285 285 285 286 286
309 307 305 303 303 302 301 301 301 301 301 301 301 301 301 300 298 298 298 298 298 296 295 291 290 289 288 288 288 287 287 286 286 286 285 285 285 284 284 284 284 284 284
309 307 305 304 302 302 302 300 299 299 300 301 301 300 300 299 298 298 296 291 291 290 290 289 289 288 287 287 286 286 286 286 285 285 284 284 284 283 283 282 282 282 282
308 307 305 304 303 302 302 300 299 299 300 301 300 299 299 298 296 292 291 291 290 289 289 288 288 287 286 286 286 286 285 285 284 284 283 283 282 282 282 282 282 281 281
308 307 306 305 303 303 303 302 301 300 300 299 299 299 298 294 291 291 291 290 289 289 288 288 287 287 286 286 286 285 284 284 284 283 283 283 282 282 282 282 281 282 282
308 308 307 305 304 304 304 302 301 300 299 297 298 298 292 291 290 291 291 290 289 288 288 287 286 286 286 286 285 284 284 283 283 283 282 282 282 282 281 282 282 283 284
308 308 308 306 305 304 304 303 301 300 299 299 297 293 291 291 290 291 291 290 289 288 287 286 286 286 286 285 284 284 283 283 283 282 282 282 282 281 281 282 283 284 284
308 307 308 306 304 305 304 302 301 301 299 298 295 292 291 290 291 291 290 289 288 288 287 287 286 286 285 285 284 284 283 283 283 282 282 281 281 281 281 282 282 284 284

GFSMW_850_thetae_066.txt.gz
Theta_e
317 317 317 317 317 317 317 319 321 322 323 323 326 328 332 335 336 337 336 335 335 336 335 334 333 332 333 332 333 333 331 331 331 330 329 329 328 327 327 325 321 319 318
316 316 316 316 317 317 317 317 318 318 319 320 322 322 322 322 324 327 331 334 332 332 331 330 330 331 331 333 332 333 332 331 331 330 329 327 327 327 327 327 324 321 319
315 315 315 316 316 316 317 317 317 317 318 318 318 318 319 320 320 321 323 327 329 332 332 331 327 327 329 331 332 333 332 331 331 330 329 327 325 326 325 325 324 322 319
314 314 315 315 315 315 315 315 315 314 315 315 316 316 317 318 318 318 318 319 320 324 326 327 327 327 329 329 328 329 329 330 330 329 329 328 328 324 323 323 323 321 318
314 315 315 315 315 314 313 313 313 313 313 313 313 313 314 315 316 316 317 317 319 325 329 328 329 328 326 325 327 326 326 327 328 328 327 326 328 327 325 322 323 322 322
315 316 316 315 315 315 314 313 313 313 313 313 313 313 313 312 312 312 312 312 313 315 318 326 328 327 326 327 325 325 325 325 325 325 325 327 327 325 324 322 321 321 321
316 316 316 316 315 315 314 314 314 314 314 314 314 314 313 313 313 313 312 312 312 312 316 321 325 325 324 325 324 326 325 324 324 323 323 323 324 324 324 323 320 320 321
317 316 316 316 315 314 314 313 313 312 312 313 313 313 313 313 314 314 314 314 313 312 313 314 317 322 324 323 321 322 323 322 320 321 321 321 321 321 321 320 321 317 317
317 317 316 315 314 313 313 312 312 311 311 311 311 312 312 313 314 314 314 315 314 314 314 312 312 313 315 318 320 321 322 321 320 316 318 318 319 321 318 317 319 317 315
317 317 316 314 314 313 312 312 311 311 311 310 310 310 311 311 311 311 311 311 311 311 311 311 311 310 311 311 312 314 316 319 319 316 315 313 315 316 317 317 317 318 315
316 316 315 314 312 311 311 311 310 310 310 310 310 310 310 310 310 310 310 310 310 310 310 310 310 310 310 310 310 311 312 313 312 311 310 313 313 313 315 315 315 314 315
316 315 314 313 311 311 311 310 309 309 309 309 309 309 309 309 309 309 309 310 310 309 309 309 309 309 309 310 310 310 310 310 310 309 311 311 312 312 313 313 312 311 310
315 314 314 312 310 310 310 309 308 309 308 308 308 309 309 309 309 310 310 309 309 308 307 307 307 307 307 308 308 308 307 308 308 309 309 310 310 311 311 310 309 307 306
315 314 313 310 309 309 308 308 307 307 308 308 308 308 308 308 308 308 308 308 308 308 308 308 308 308 309 309 309 309 309 308 308 308 309 308 308 308 306 305 304 303 301
314 313 311 309 308 308 307 307 306 306 307 307 307 307 307 307 307 307 307 307 307 307 308 307 308 307 306 306 305 306 306 307 306 305 305 305 304 302 301 300 300 300 300
313 312 310 308 307 306 306 305 305 305 306 306 306 306 306 305 306 306 306 305 305 306 305 304 304 303 303 301 302 301 302 301 301 301 301 300 300 299 299 299 299 299 298
313 311 309 308 306 305 305 304 305 305 305 305 305 305 305 305 304 303 303 303 303 302 301 301 301 302 301 301 301 300 300 300 300 300 299 299 298 297 296 296 296 296 293
312 311 309 307 305 304 304 304 304 303 304 304 304 304 304 303 302 302 302 301 300 300 300 300 300 300 297 293 292 291 290 290 290 289 289 288 288 287 287 287 287 286 286
312 310 308 306 304 303 303 303 302 302 302 302 303 302 301 301 301 300 299 299 299 299 299 297 292 290 290 289 289 288 287 287 287 287 287 286 286 285 285 285 285 285 285
310 310 308 305 303 302 302 302 301 301 301 301 301 301 300 299 300 299 299 298 297 294 291 290 289 289 288 287 287 287 286 286 286 285 285 285 284 284 284 284 284 283 283
310 309 307 305 304 303 302 301 299 298 299 299 299 299 300 300 300 299 296 291 291 290 289 289 288 287 287 287 286 286 285 285 285 285 284 284 283 283 283 282 282 282 282
309 309 307 305 304 303 301 300 300 301 301 300 299 299 299 300 299 293 291 291 290 290 289 288 288 287 287 287 286 286 285 285 284 284 283 283 282 282 282 282 282 282 282
307 308 307 305 304 303 302 302 302 302 302 300 299 299 299 297 292 291 291 291 290 290 289 288 287 287 287 286 286 285 284 284 284 283 282 282 282 282 282 281 281 281 282
308 308 308 306 305 304 303 302 302 302 301 300 299 299 298 293 291 291 291 290 290 289 289 288 287 287 287 286 286 285 285 284 283 283 283 282 282 282 282 281 282 282 283
308 307 308 308 305 304 304 303 302 301 301 300 299 298 293 291 291 291 291 290 289 289 288 287 287 286 286 286 286 286 285 284 283 283 283 282 282 281 281 281 282 283 283
308 308 308 307 306 305 304 304 303 301 301 301 299 296 292 291 290 290 291 290 289 289 288 287 287 287 287 286 286 285 284 284 283 283 282 282 281 281 281 281 281 282 283

GFSMW_850_thetae_069.txt.gz
Theta_e
318 318 318 317 317 317 318 318 321 332 332 338 338 337 338 338 337 338 338 337 336 337 337 336 336 336 335 334 333 334 333 332 332 330 330 330 329 328 328 328 328 327 327
317 316 316 316 317 316 316 317 318 320 321 322 323 325 327 329 330 331 333 336 336 336 333 332 331 331 331 330 330 332 333 333 332 331 330 329 328 328 328 327 327 327 326
316 316 316 316 316 316 316 316 316 317 317 318 319 320 322 324 324 323 323 325 327 330 333 333 332 331 332 329 326 330 331 331 330 330 329 327 326 326 326 326 326 325 324
315 315 315 315 315 316 316 316 316 316 316 316 316 316 317 317 318 318 319 319 319 319 320 321 325 327 326 326 326 327 329 328 329 329 329 329 328 327 326 325 324 323 323
315 315 315 315 315 315 315 315 314 314 313 313 313 313 314 314 314 314 315 316 316 317 317 319 322 326 328 327 326 325 326 327 324 325 326 327 327 326 325 323 322 322 323
314 314 315 315 315 315 314 313 313 313 313 313 314 314 313 313 312 312 312 312 312 312 312 315 317 323 326 326 325 324 325 325 325 324 325 324 324 323 323 322 322 323 320
314 315 315 315 314 315 314 314 314 314 313 313 313 313 313 313 313 313 313 312 312 312 313 313 318 322 325 327 326 325 324 325 325 324 323 322 320 322 321 323 322 321 319
315 315 316 316 315 315 314 313 313 313 313 313 313 313 313 313 313 313 313 313 313 313 313 313 313 315 318 322 323 322 322 322 323 321 320 319 315 319 319 321 319 317 315
316 316 316 316 315 314 313 313 312 312 311 311 311 311 311 312 312 313 313 314 314 314 314 313 313 313 312 313 314 316 318 320 322 322 320 319 316 314 315 315 316 317 315
316 316 316 315 314 314 313 312 312 311 311 310 310 310 310 310 311 311 310 311 311 310 310 310 310 310 310 310 310 311 312 313 316 318 318 316 314 312 312 312 313 313 314
316 316 316 315 314 313 312 312 311 310 310 310 310 310 310 310 309 309 309 309 309 309 309 309 309 309 310 310 310 310 310 311 311 311 310 310 310 310 311 311 312 312 312
316 316 316 315 314 313 311 311 310 310 309 309 309 309 309 309 309 309 309 309 309 309 309 308 308 308 308 308 308 309 309 309 309 309 308 309 309 309 308 309 311 311 310
316 315 314 314 313 311 310 310 309 308 308 308 308 308 308 308 309 309 309 309 309 309 308 308 308 308 308 307 308 308 308 308 307 307 307 308 308 308 307 308 307 306 306
315 315 314 313 311 310 309 308 308 308 307 307 307 308 308 308 307 307 307 307 308 308 307 307 307 307 307 307 308 307 308 308 307 307 306 307 306 305 305 304 303 303 303
314 314 314 313 311 309 308 308 307 306 306 306 306 307 307 306 306 306 306 307 307 307 307 306 306 305 304 304 304 304 305 305 304 303 303 302 301 301 300 300 301 301 300
314 313 313 311 310 308 307 307 306 305 305 305 306 306 306 305 305 305 306 306 306 305 305 304 304 303 302 301 302 301 302 302 302 301 301 300 300 299 299 299 300 299 299
314 314 313 311 309 307 306 306 305 305 305 305 305 305 305 305 305 304 303 304 303 302 303 303 302 302 301 300 299 297 295 294 293 292 292 292 291 291 291 290 289 288 288
314 313 312 310 308 307 305 304 304 304 304 304 304 304 304 304 303 302 302 302 301 301 301 301 299 293 291 290 289 289 289 289 288 288 287 287 287 287 286 286 286 286 286
314 312 310 309 307 305 304 303 303 303 303 303 303 303 303 302 301 300 301 300 300 300 299 293 290 290 289 289 288 288 288 288 287 287 286 286 286 285 285 285 285 284 285
312 311 310 309 307 305 304 303 302 302 302 302 302 302 301 300 299 300 300 299 299 294 291 289 289 289 289 288 288 288 288 287 287 286 286 285 285 284 284 284 283 283 283
311 310 310 309 306 305 304 303 303 301 300 299 299 300 299 298 299 299 298 294 292 291 290 289 289 288 288 288 287 287 287 287 286 286 285 284 284 283 283 283 283 283 283
310 310 310 309 307 305 304 303 302 301 299 298 299 299 299 299 298 298 292 291 290 290 289 289 289 288 288 288 287 287 287 287 286 285 285 284 284 283 283 283 282 282 282
309 308 308 308 306 305 304 303 301 301 299 298 299 300 299 298 298 292 291 291 290 289 289 288 288 288 288 287 287 287 286 286 286 285 284 284 283 283 283 282 282 282 282
309 308 307 308 307 305 304 303 301 301 300 299 299 299 300 298 293 291 291 291 290 289 289 288 288 287 287 287 287 286 286 286 286 285 284 284 283 283 282 282 282 282 283
309 308 307 307 307 305 304 303 302 302 301 300 300 299 300 296 291 291 291 291 290 289 289 288 288 287 287 287 287 287 286 286 286 285 284 284 283 282 282 282 281 282 282
308 308 308 307 306 306 305 304 303 303 302 301 300 300 299 293 291 291 291 291 290 289 289 288 288 287 287 287 286 286 286 285 285 285 285 284 283 283 282 282 281 281 282

GFSMW_850_thetae_072.txt.gz
Theta_e
318 318 317 317 319 320 322 325 328 332 337 338 337 338 339 339 338 337 337 337 336 336 336 335 336 336 335 334 333 333 332 332 332 331 329 328 329 329 329 329 327 327 327
318 318 318 318 317 317 317 317 318 319 324 333 332 336 337 334 333 332 334 336 336 336 336 336 336 334 332 331 330 330 331 330 330 331 328 327 327 326 326 326 326 326 326
316 316 316 317 317 316 316 316 316 317 319 321 321 322 322 323 325 327 329 330 330 329 329 329 330 333 334 333 331 331 330 327 329 328 328 328 326 325 326 326 325 325 324
315 315 315 316 316 316 316 316 316 316 316 316 316 316 317 317 318 319 320 320 320 320 319 319 319 319 323 327 329 327 328 326 328 328 327 327 327 327 324 324 323 323 322
315 315 315 315 315 315 315 315 315 315 315 314 314 314 314 314 314 314 314 315 315 316 316 316 317 319 321 325 328 329 327 326 326 327 325 324 324 324 323 323 321 321 321
314 314 314 314 314 315 315 314 314 313 313 313 313 313 313 313 313 312 312 312 312 312 312 311 312 312 315 320 328 327 327 325 325 326 325 324 325 324 322 320 320 318 318
314 313 314 314 315 315 314 314 313 313 313 313 313 313 313 313 313 313 313 313 312 312 312 312 312 313 316 319 322 327 328 325 325 324 324 323 323 324 322 317 318 317 316
312 314 314 315 315 314 314 314 313 313 313 313 312 312 312 313 313 313 313 313 313 313 313 313 313 313 313 314 319 323 323 324 323 323 322 322 320 320 318 316 317 315 314
313 314 315 315 315 315 314 313 313 312 312 312 311 311 311 311 311 311 312 312 312 312 312 312 312 312 312 312 312 313 315 318 320 320 319 319 318 319 318 315 313 314 314
314 315 315 315 315 314 313 313 312 312 311 311 311 310 310 310 310 310 310 310 310 310 310 310 310 310 310 310 310 310 311 312 313 313 315 316 315 313 310 310 311 311 312
315 315 315 315 315 314 313 312 312 311 311 310 310 310 310 310 310 309 309 309 309 309 309 309 309 309 308 308 309 309 309 309 310 310 310 310 310 309 309 308 309 309 309
315 316 315 315 315 314 313 312 311 311 310 309 309 309 309 309 309 309 309 309 309 309 309 309 308 307 307 307 307 308 308 308 308 308 308 308 308 308 307 306 307 307 308
315 315 315 315 314 314 312 311 310 309 309 308 308 308 308 308 308 308 308 308 308 308 308 308 308 308 307 307 307 307 307 308 307 306 306 307 306 306 305 305 305 305 305
315 315 315 314 313 312 311 310 309 308 308 307 307 307 307 307 307 307 307 306 307 307 307 307 307 307 306 307 307 307 307 307 307 305 304 306 304 303 304 303 302 302 302
314 315 314 314 313 312 310 309 308 307 307 306 306 306 306 306 306 306 306 306 306 306 306 306 306 305 304 304 304 304 305 304 304 303 302 302 301 301 301 301 301 300 300
314 314 314 313 312 311 310 308 307 307 305 305 305 305 305 305 305 305 304 304 305 304 304 304 303 302 302 301 302 302 302 301 301 299 298 297 296 294 294 294 294 295 295
314 314 314 313 312 311 309 307 306 306 305 305 304 304 304 305 304 303 301 301 302 302 302 302 301 301 301 297 294 292 290 290 289 289 289 288 288 288 288 287 287 287 287
312 313 313 313 312 310 308 306 305 305 304 304 303 303 303 303 302 300 299 300 300 301 300 300 297 292 290 289 289 289 289 289 289 288 288 288 287 287 287 286 286 286 286
311 313 313 312 311 309 307 305 304 303 303 303 302 302 302 301 300 299 300 300 300 299 299 293 291 290 289 289 289 289 288 288 288 288 288 287 287 286 286 286 285 285 284
313 313 313 311 310 308 305 304 303 303 302 302 301 301 299 299 299 299 299 299 299 296 290 290 289 289 289 288 288 288 288 288 288 288 287 286 286 286 285 285 285 284 284
313 312 311 310 309 307 305 304 303 303 301 300 298 297 298 297 298 299 299 299 295 290 290 289 289 288 288 288 288 288 288 288 287 287 286 286 285 285 284 284 284 284 283
311 310 309 309 308 307 305 304 303 301 301 299 298 297 297 297 299 299 298 293 291 290 290 289 289 288 288 288 288 288 288 287 287 286 286 286 285 285 285 284 283 283 282
309 309 308 308 307 306 305 304 302 302 301 300 298 298 297 298 299 298 293 292 291 290 290 289 289 288 288 287 287 287 287 287 287 286 286 286 285 285 284 284 283 283 283
309 308 307 307 307 307 305 304 303 302 301 300 300 299 298 299 299 296 291 291 290 290 290 289 288 288 287 287 287 287 287 287 287 286 286 286 285 285 284 284 283 283 282
312 312 310 308 307 306 306 305 304 303 303 302 301 300 300 299 298 292 291 291 290 290 289 289 289 288 287 287 287 287 287 287 287 287 286 286 285 285 284 284 283 282 282
309 309 308 308 307 307 306 306 304 304 303 303 302 301 300 300 298 292 290 291 291 291 290 289 289 288 287 287 287 286 286 286 286 286 286 286 285 285 284 284 283 282 281

GFSMW_850_thetae_075.txt.gz
Theta_e
317 316 318 328 331 328 328 333 334 335 336 337 337 336 336 336 338 338 338 337 337 337 336 335 335 335 334 333 334 332 330 330 330 331 329 327 327 327 327 325 325 325 326
318 317 317 317 319 320 319 320 322 324 326 328 331 335 334 333 334 336 335 335 335 336 335 334 333 334 333 334 334 333 332 331 331 331 329 329 326 325 325 325 325 325 325
315 317 317 317 317 317 317 317 317 318 318 319 322 328 328 327 330 329 329 330 331 331 332 330 327 325 326 326 330 334 333 332 331 328 328 328 326 325 324 324 323 323 322
315 315 316 317 317 317 316 316 316 316 317 317 319 319 318 318 318 318 319 321 322 323 322 321 320 319 319 319 320 326 330 330 329 327 326 327 327 325 323 323 323 322 321
316 316 315 315 315 315 315 315 315 315 315 315 315 315 315 315 314 314 314 314 315 315 315 315 315 316 316 316 318 322 327 329 329 327 325 326 326 325 322 323 321 320 315
316 316 314 314 314 315 315 315 315 315 314 314 313 313 313 313 313 313 312 312 312 312 312 311 311 311 312 312 313 317 327 329 328 327 325 325 324 324 322 321 319 318 315
315 316 314 314 314 314 314 314 314 314 313 313 313 312 312 312 312 312 312 312 312 312 312 312 312 312 312 313 314 317 320 326 326 325 325 324 323 321 320 319 318 318 315
313 314 314 314 314 314 314 314 314 313 313 313 313 312 312 312 313 313 313 313 313 313 313 313 313 313 313 313 313 313 318 323 325 327 325 322 323 321 321 321 319 316 314
311 312 313 314 314 315 314 314 313 313 313 312 312 312 311 311 311 311 311 311 311 311 311 311 311 311 311 311 311 312 312 314 317 320 319 318 318 317 316 316 317 313 311
309 311 314 315 315 314 314 313 313 312 312 312 312 311 311 310 310 310 310 310 310 310 310 310 309 309 309 309 310 310 310 311 313 314 314 314 313 313 314 313 310 310 309
310 313 314 315 315 314 314 313 312 312 312 311 311 310 310 310 310 310 309 309 308 308 308 308 308 309 309 309 308 308 309 309 310 310 310 311 311 310 309 309 307 307 307
313 314 315 315 314 314 313 313 312 311 311 311 310 309 309 309 309 309 308 308 309 309 309 309 309 308 308 307 307 307 307 308 308 308 308 308 307 308 307 306 306 306 306
314 315 315 315 315 314 313 313 311 311 310 309 309 309 308 308 308 308 308 308 308 308 308 308 308 308 307 307 307 307 307 307 307 307 306 306 306 306 305 305 304 305 304
315 315 315 315 314 314 313 312 311 310 309 308 308 308 307 307 307 307 307 307 306 306 307 307 307 307 306 306 306 307 307 307 306 305 304 306 306 305 304 304 303 303 303
314 315 315 314 314 314 313 312 310 309 308 308 307 306 306 306 306 306 306 306 305 305 306 306 306 305 305 305 305 305 306 305 305 304 303 303 303 303 301 300 300 299 299
314 315 315 314 314 313 313 311 309 308 307 306 305 305 305 305 305 305 304 304 304 304 304 304 303 303 303 303 302 302 302 302 299 295 293 291 291 290 289 289 289 289 289
313 313 314 314 314 313 312 310 309 307 306 306 305 304 304 304 304 303 302 301 300 301 303 302 302 302 301 298 295 291 290 290 290 289 289 289 289 288 288 287 287 287 287
313 313 313 313 313 312 311 309 308 306 305 305 304 303 303 304 303 300 299 299 299 300 301 300 297 293 290 289 289 289 289 289 289 289 288 288 288 288 287 286 286 286 286
312 313 312 312 312 312 310 308 307 305 304 304 303 302 302 302 300 299 298 298 299 299 298 293 290 289 289 288 289 289 289 289 288 288 287 287 287 286 287 286 286 285 285
310 310 312 312 312 311 310 307 306 305 303 303 302 301 300 298 299 298 298 298 299 298 292 289 288 288 288 289 289 289 288 288 288 288 287 287 287 286 286 285 285 285 285
311 312 312 312 310 309 308 306 305 304 302 302 301 299 297 298 297 297 299 298 298 292 289 289 288 288 289 289 288 288 288 288 288 287 287 287 286 286 285 285 285 285 284
312 311 311 309 309 309 307 306 305 303 302 301 299 298 298 297 296 297 298 298 295 290 289 288 288 289 288 288 288 288 288 288 288 288 287 287 286 285 285 285 285 284 284
310 309 309 309 308 308 308 306 304 303 302 301 300 299 298 296 296 298 298 296 291 290 289 289 289 288 288 288 288 288 289 289 288 288 287 287 286 285 285 284 284 284 284
310 309 309 308 307 307 307 305 304 303 302 301 300 299 298 297 297 298 297 292 291 290 290 290 289 288 288 288 288 288 288 288 288 288 287 287 286 286 285 285 284 284 283
312 312 311 310 309 308 307 306 305 303 302 301 300 300 299 298 298 298 296 291 291 290 290 290 289 289 288 287 288 287 288 288 287 287 287 286 286 285 285 285 284 284 283
309 309 308 309 309 309 308 306 305 305 303 302 302 301 300 300 299 299 295 291 291 291 291 290 290 289 288 288 287 287 287 287 287 287 287 286 286 285 285 285 284 284 283

GFSMW_850_thetae_078.txt.gz
Theta_e
320 318 321 332 334 334 334 333 334 336 338 338 338 338 337 336 336 337 337 338 338 337 337 336 336 335 335 335 335 335 333 333 331 331 331 331 330 327 327 326 327 327 326
321 318 317 316 332 333 329 330 333 333 333 335 336 335 335 336 335 335 336 337 336 336 336 335 335 335 335 334 333 332 334 334 334 332 331 330 326 325 326 325 325 324 323
321 319 315 317 316 322 325 322 323 325 326 326 325 327 328 330 332 329 332 332 330 329 329 329 331 331 331 328 327 329 331 333 333 332 331 328 325 326 326 325 324 323 322
320 318 315 316 317 316 316 317 317 319 319 320 321 322 324 324 322 321 320 319 319 320 322 324 325 324 322 321 320 320 321 333 332 331 329 328 326 326 324 323 322 322 322
321 318 317 316 316 316 316 316 316 316 317 317 317 317 317 316 316 315 315 315 315 315 315 316 316 316 315 315 315 316 317 324 327 330 328 328 327 324 323 322 322 321 320
319 317 317 316 315 315 315 315 315 315 315 315 315 315 315 314 314 313 313 313 312 312 312 312 312 312 312 312 312 312 313 316 323 325 327 327 325 323 323 322 321 319 317
320 318 315 316 315 314 314 314 315 315 314 314 314 313 313 313 312 312 312 313 312 312 312 312 312 312 312 312 312 312 313 315 322 322 324 324 324 322 321 321 319 318 317
319 316 315 315 316 315 314 314 314 314 314 313 313 313 312 313 313 313 313 313 313 313 313 313 313 313 313 313 313 313 313 315 324 324 325 322 322 321 320 318 318 316 315
312 314 312 314 314 314 314 314 314 314 313 313 312 312 312 312 312 312 312 311 311 311 311 311 311 311 310 310 310 311 311 312 314 317 319 319 319 318 317 316 316 315 313
310 311 312 313 313 314 314 314 313 313 313 312 312 312 312 311 311 311 311 310 310 310 310 310 309 309 309 309 309 309 310 310 312 314 317 317 316 316 315 313 311 312 309
310 311 312 312 314 314 314 314 313 313 313 312 312 312 311 311 310 310 310 309 309 309 308 308 308 308 309 309 309 308 308 309 310 311 312 311 311 311 311 311 309 307 306
311 312 312 314 314 314 314 313 313 312 312 311 311 311 310 310 309 309 309 308 308 308 308 309 309 309 308 308 308 307 307 308 308 309 309 309 309 308 308 308 307 306 305
313 313 313 314 314 314 314 313 313 312 312 311 310 309 309 309 308 308 308 308 307 307 307 308 308 308 308 308 308 307 307 307 307 307 307 307 306 307 306 305 305 305 305
313 313 313 314 314 314 314 314 313 312 311 311 309 309 308 308 307 307 307 307 306 306 306 306 307 307 307 307 307 307 307 307 307 306 305 305 306 306 305 303 303 303 303
314 314 314 314 314 314 314 313 312 311 311 309 309 308 307 306 306 306 306 306 306 306 306 306 306 306 306 305 306 306 306 306 306 304 304 304 303 302 301 300 298 297 297
314 314 315 315 315 314 314 313 312 311 310 308 308 307 306 306 306 305 305 305 305 305 305 305 304 303 303 304 303 303 303 303 302 297 293 291 291 290 290 290 289 289 289
312 314 314 315 315 314 314 313 312 311 309 308 306 306 305 305 305 305 304 303 302 301 303 303 302 302 302 302 301 298 293 291 290 290 290 289 289 289 289 289 289 288 288
311 312 313 314 314 314 313 312 311 309 308 307 305 305 304 304 304 303 301 300 300 300 301 301 301 300 297 291 289 289 289 289 289 289 289 289 289 289 288 288 287 287 287
310 311 312 313 313 313 312 311 310 308 307 306 305 304 303 303 302 300 300 299 299 299 300 299 295 290 289 289 289 289 289 290 290 289 289 289 289 288 288 287 287 287 286
310 312 312 312 312 312 312 311 310 308 306 305 304 303 302 302 300 299 299 298 298 298 298 293 290 288 288 289 289 289 289 289 289 289 290 289 288 288 287 286 286 286 286
310 311 311 311 312 312 311 309 308 306 305 304 303 302 301 299 298 298 298 297 297 298 295 290 288 288 289 288 288 288 289 289 289 289 289 289 288 288 287 286 287 286 285
310 311 312 312 311 310 309 308 307 305 304 303 302 301 300 299 298 297 297 297 297 296 290 288 288 288 288 288 288 288 288 288 289 289 288 288 288 287 287 287 286 286 285
310 310 310 309 309 309 308 307 306 305 304 303 302 300 299 299 298 297 297 297 297 293 289 288 288 288 288 288 288 288 288 288 288 288 287 287 288 287 287 287 287 286 285
309 309 309 309 308 308 307 307 305 305 304 303 301 300 299 298 297 296 297 298 297 291 290 289 289 288 288 288 288 288 288 288 288 287 287 287 287 287 287 287 287 286 285
311 311 310 310 309 308 307 306 307 305 303 302 302 300 299 298 297 298 299 299 296 291 290 290 289 289 288 288 288 288 288 287 287 287 287 287 287 287 287 287 286 285 285
310 310 309 310 309 309 309 309 308 305 304 302 302 301 300 298 297 297 298 298 293 291 290 290 290 289 289 289 288 287 287 287 286 287 287 287 287 286 286 286 286 286 285

GFSMW_850_thetae_081.txt.gz
Theta_e
323 320 321 327 331 339 340 342 341 341 342 341 341 341 341 341 340 340 340 340 339 338 337 337 337 339 337 337 337 336 334 334 334 334 332 332 332 331 329 329 328 327 327
323 320 318 320 326 332 334 337 339 338 339 340 340 340 340 340 340 339 338 338 337 338 337 337 337 338 337 336 336 336 334 334 331 332 332 331 328 326 325 327 327 326 324
323 322 319 318 317 325 330 331 334 339 336 338 338 335 334 334 334 336 336 333 331 333 334 332 331 331 332 333 333 334 335 331 331 331 330 328 327 325 326 326 325 324 323
322 323 320 318 317 316 326 330 326 329 329 329 330 331 332 333 335 330 328 323 323 321 320 320 321 323 325 325 324 323 322 322 325 325 325 327 327 327 325 324 323 323 322
322 323 321 317 316 317 316 316 319 319 320 322 324 325 325 322 320 318 317 316 315 315 315 315 315 316 316 316 315 315 314 315 321 323 324 324 325 325 325 324 321 321 321
321 323 320 318 317 316 316 316 315 316 316 317 317 317 316 315 315 315 314 314 313 313 312 312 312 312 312 312 312 312 312 313 316 319 324 324 324 325 324 323 321 320 319
320 323 319 317 317 317 316 315 315 315 315 315 315 315 314 314 313 313 313 313 313 312 312 312 312 312 312 312 312 312 312 313 315 324 325 322 322 324 323 321 322 321 319
320 323 320 317 317 315 315 314 314 314 314 314 314 314 314 313 313 312 312 312 313 313 313 313 313 313 313 313 313 313 313 313 313 315 320 320 320 321 321 322 321 318 316
317 318 321 316 317 315 315 314 314 314 314 314 314 313 313 312 312 312 312 312 312 312 312 311 311 311 311 310 310 310 310 310 311 313 317 317 318 320 319 318 318 315 314
314 313 314 315 316 315 314 314 314 314 314 313 313 312 312 312 312 312 311 311 311 311 310 310 310 309 309 309 309 309 309 309 310 312 314 314 315 315 317 316 315 313 311
313 313 313 315 315 314 314 313 314 314 313 313 312 312 312 312 312 311 311 310 310 310 309 309 309 308 308 308 309 309 308 308 308 310 312 313 313 313 311 311 310 310 308
313 313 314 314 314 313 313 313 314 313 313 312 312 312 312 311 311 310 310 310 309 309 309 308 308 309 309 309 308 308 308 307 307 308 308 309 309 308 308 308 308 307 306
314 314 314 313 312 312 313 314 313 313 313 313 312 312 312 311 310 310 309 309 308 308 308 307 307 307 308 308 308 307 307 307 307 307 307 307 307 306 306 306 306 306 305
315 315 314 314 313 313 313 313 313 313 313 312 312 311 310 309 309 309 308 308 307 307 307 306 306 306 307 307 306 306 307 306 306 306 306 306 306 306 306 305 305 304 303
315 315 315 315 314 313 312 313 313 313 313 312 311 310 309 308 307 307 307 307 306 306 306 305 306 306 306 306 305 305 305 306 306 306 305 305 305 304 303 302 300 299 297
314 315 315 315 315 313 313 313 313 313 313 312 311 309 308 307 306 306 305 306 306 306 305 305 305 304 304 304 305 305 304 305 303 302 299 294 291 291 290 290 290 290 289
313 315 315 315 315 314 313 313 313 313 312 311 309 308 307 306 306 306 304 304 303 303 302 302 304 303 302 302 303 302 301 298 293 291 290 290 290 290 290 290 290 289 289
313 313 314 315 315 314 313 312 313 312 312 310 308 307 306 305 305 305 304 303 301 301 301 301 301 301 301 301 296 292 290 290 290 290 290 290 290 290 289 289 289 289 288
311 311 312 314 315 313 312 312 313 312 311 310 308 307 306 305 304 304 303 301 300 300 300 300 300 300 295 290 290 289 289 290 289 289 290 289 290 289 289 289 289 288 288
309 311 312 314 313 312 312 313 312 311 310 308 307 306 305 304 303 302 301 300 300 299 298 298 296 291 289 289 289 289 289 289 289 290 289 290 289 288 288 289 288 288 289
309 310 311 311 311 311 312 312 311 310 308 307 306 305 304 303 302 301 299 299 298 298 297 297 291 289 288 289 289 289 289 289 289 289 290 290 289 289 289 288 288 288 288
308 309 309 310 311 311 311 311 310 309 307 306 305 304 303 302 300 299 298 298 297 297 297 296 290 288 288 289 289 288 288 288 289 289 289 289 289 289 289 288 288 287 287
309 309 310 310 310 310 309 308 308 307 306 305 304 303 302 301 300 299 299 297 297 296 297 293 290 289 289 289 288 288 288 288 288 288 288 288 289 289 288 288 288 287 288
308 308 309 309 309 309 308 308 307 306 305 305 304 303 302 301 300 299 298 296 296 296 297 291 290 289 289 289 289 289 288 288 288 287 288 288 288 288 288 288 288 288 287
310 310 310 309 309 308 307 307 306 306 305 305 304 303 302 301 299 299 298 297 298 298 298 292 290 290 290 289 288 288 288 287 287 287 287 288 288 288 287 287 288 288 287
311 311 311 311 310 310 310 309 308 307 306 306 305 303 302 301 299 298 297 298 297 298 296 291 291 290 289 289 289 288 287 287 287 287 287 287 287 287 287 287 287 287 288

GFSMW_850_thetae_084.txt.gz
Theta_e
324 323 324 329 335 338 340 337 338 339 339 339 339 339 338 337 338 338 338 338 338 337 337 336 337 336 335 336 335 334 334 334 334 333 332 330 330 330 331 328 329 327 326
323 322 321 323 331 335 335 335 337 338 339 339 339 337 338 338 339 338 338 338 338 337 338 339 338 337 335 335 333 334 332 332 331 330 330 327 327 325 325 326 329 327 327
322 322 320 320 326 331 333 334 334 337 334 336 336 338 338 336 338 337 337 336 336 335 333 335 337 337 338 336 336 336 330 330 329 329 328 328 327 326 325 326 326 325 324
321 322 322 322 322 322 329 331 334 335 332 332 329 328 331 332 336 335 333 326 325 324 327 326 322 321 321 320 321 322 323 328 327 324 325 327 327 324 325 324 324 323 323
321 322 323 322 319 320 319 328 330 331 332 333 330 331 332 332 332 333 330 324 318 316 315 315 314 314 314 314 314 314 314 314 314 320 322 322 323 324 322 321 322 322 321
320 320 322 323 321 320 317 316 319 323 322 323 324 327 326 325 322 318 315 315 314 314 313 313 312 312 312 312 312 312 312 312 312 320 320 322 320 324 322 323 324 323 321
319 320 321 321 319 318 319 316 316 316 316 316 317 318 317 316 315 315 314 313 313 313 312 312 312 312 312 312 312 312 312 313 313 317 321 320 321 321 323 321 321 320 321
319 320 320 321 318 317 316 317 315 315 315 315 315 315 315 314 314 313 313 312 312 312 312 312 313 313 312 312 312 312 312 312 312 313 314 319 318 321 322 322 318 320 319
317 320 320 320 320 317 316 315 315 314 315 314 314 314 314 313 313 312 312 312 312 312 312 311 311 311 311 310 310 310 310 310 310 310 311 315 320 317 317 317 319 318 317
315 316 320 318 318 318 316 314 314 314 314 314 314 314 313 313 312 312 312 312 312 311 311 311 310 310 310 309 309 309 309 308 308 309 310 314 313 313 314 315 314 315 313
313 313 313 315 316 317 317 315 314 314 314 313 313 313 313 312 312 312 312 312 312 311 310 310 310 309 309 308 308 308 308 308 308 308 310 311 311 311 312 312 312 311 310
313 313 313 315 316 316 315 318 316 314 314 314 313 312 312 312 312 312 312 311 310 310 310 309 308 308 308 308 308 308 308 308 307 307 307 308 309 310 310 309 308 308 307
313 313 314 314 315 314 314 313 314 313 314 316 316 313 313 312 312 311 311 310 309 309 308 308 308 307 307 307 307 307 307 307 307 306 306 306 307 307 307 306 306 306 305
314 314 314 314 313 313 312 312 312 312 313 313 313 312 312 312 311 310 310 309 308 308 307 307 307 307 307 307 307 307 306 306 306 306 306 306 306 306 306 306 305 305 304
315 315 315 314 313 313 312 312 312 313 312 312 312 312 311 310 310 310 309 308 307 307 306 306 306 306 306 306 306 306 304 304 305 306 305 305 304 304 304 303 303 302 300
313 314 315 315 314 313 313 312 312 313 313 313 312 312 311 310 309 308 307 307 306 306 306 306 305 305 305 305 304 303 302 303 303 303 302 300 296 293 292 291 291 290 290
313 313 314 315 315 314 313 312 312 313 313 313 312 312 310 309 308 307 306 306 306 305 304 302 302 304 303 302 302 302 302 302 301 296 291 290 290 290 290 291 289 289 289
313 313 314 315 315 315 314 313 312 313 313 312 312 311 310 308 307 306 306 305 304 303 301 301 300 302 301 300 301 300 296 291 289 289 289 290 290 290 289 290 290 290 289
311 312 312 312 315 315 315 314 313 312 312 312 311 310 308 307 306 305 305 303 303 300 300 300 299 299 299 299 293 289 289 288 289 289 289 290 290 290 289 289 290 290 289
310 310 310 310 313 315 314 314 313 312 312 311 311 309 307 306 305 304 303 302 300 299 299 298 298 299 294 290 288 288 288 289 289 289 289 289 289 288 288 289 290 290 290
309 310 312 313 315 314 314 313 312 311 311 310 309 307 306 305 304 303 302 300 299 298 298 298 298 295 290 288 288 288 288 289 289 289 289 289 289 289 289 289 289 290 290
307 309 311 312 312 313 312 310 310 309 309 309 307 306 305 304 303 302 300 299 299 298 298 297 297 292 289 289 288 288 288 289 289 289 290 289 289 289 289 289 289 290 290
307 307 308 309 309 309 309 309 309 308 308 307 306 305 304 303 303 301 300 299 298 298 297 297 297 293 289 289 289 289 288 288 288 289 289 289 289 289 289 289 289 289 290
307 307 307 308 308 308 308 308 308 307 307 306 305 305 305 305 303 301 300 299 298 297 297 297 298 292 289 289 289 289 288 288 288 288 288 289 288 288 288 288 288 289 289
310 309 309 308 308 307 307 308 307 307 306 305 305 305 304 304 303 301 299 299 297 296 297 298 297 291 290 289 289 288 288 288 288 288 288 288 288 288 288 288 288 288 288
311 311 310 310 310 309 309 309 308 308 307 306 306 305 305 304 303 302 299 298 297 297 297 298 297 292 290 289 289 289 289 288 287 288 288 288 288 287 287 288 287 287 288

GFSMW_850_thetae_087.txt.gz
Theta_e
324 324 329 336 339 339 338 336 339 339 334 338 336 336 335 335 335 337 338 338 337 336 336 335 336 335 334 334 333 333 331 331 331 331 330 329 328 327 324 324 327 328 326
323 324 324 327 335 338 340 339 338 337 337 336 336 335 335 335 335 335 335 338 337 337 336 335 335 335 334 334 333 333 332 331 330 329 328 328 325 325 324 325 325 327 327
322 323 323 323 326 333 335 336 337 336 334 337 337 338 335 336 336 335 336 336 336 337 336 336 334 335 334 334 334 333 330 329 328 328 328 327 326 326 325 325 327 326 325
321 321 322 322 323 326 333 335 334 334 334 335 336 334 332 331 331 329 327 330 333 332 331 332 331 330 325 321 319 319 319 323 321 322 324 327 327 325 325 322 324 324 324
320 320 321 322 323 323 326 332 334 333 332 332 331 332 330 330 329 330 329 330 328 325 319 317 316 315 314 314 313 313 313 313 313 313 317 321 323 321 325 325 321 321 323
319 320 320 321 322 322 322 325 330 332 332 331 331 331 329 330 331 329 326 329 324 316 315 314 313 313 312 312 312 312 312 312 312 312 311 321 320 322 321 323 322 322 323
319 319 320 320 320 320 321 321 323 328 328 330 332 332 330 329 328 327 323 316 315 314 314 313 312 312 312 312 312 312 312 312 313 313 313 316 320 319 319 321 321 322 320
318 319 320 320 321 320 318 317 318 317 316 318 318 319 320 319 317 315 314 314 313 313 312 312 312 312 312 312 312 312 311 311 311 312 311 313 314 319 320 320 319 319 318
316 318 319 320 321 320 318 317 316 315 315 315 315 315 315 315 314 314 314 313 312 312 312 312 312 311 311 311 311 310 310 310 310 310 309 310 313 316 317 318 317 318 317
314 317 319 319 319 320 317 316 315 315 315 315 315 314 314 314 313 313 312 312 312 312 312 312 311 311 311 310 310 309 309 308 308 308 308 309 310 312 313 313 314 315 315
312 313 315 319 319 318 317 316 315 314 314 314 314 314 313 312 312 312 312 312 311 312 311 311 310 310 310 309 309 308 308 308 308 308 308 307 310 310 310 310 311 311 312
312 312 313 314 317 317 317 316 315 314 314 314 314 314 313 313 312 312 312 311 311 311 310 310 310 309 308 308 308 308 308 308 308 308 307 307 307 308 309 309 310 310 308
313 312 312 313 314 315 316 316 315 315 314 313 315 315 316 317 317 316 315 313 311 310 310 309 309 308 308 307 307 307 307 307 307 307 307 306 306 307 307 307 307 307 306
314 313 313 313 314 315 315 315 314 314 313 312 314 318 317 315 312 312 311 311 310 309 308 308 308 307 307 307 306 306 306 306 306 305 306 305 305 305 305 306 306 305 305
314 314 314 313 314 313 313 313 313 313 312 312 311 312 311 311 312 312 311 309 309 308 307 307 307 306 306 306 306 306 305 304 303 304 305 305 305 305 305 305 304 303 302
313 313 313 313 313 314 312 312 312 312 312 311 312 312 312 312 312 311 310 308 307 307 307 306 306 306 306 306 306 305 301 302 302 303 304 303 304 303 301 298 295 292 292
312 312 313 314 313 314 314 313 313 312 312 311 311 311 311 311 311 309 309 307 306 306 306 305 304 303 304 304 304 303 301 301 301 301 299 294 291 290 290 290 289 289 289
311 311 312 313 314 314 314 314 313 312 312 311 311 311 311 310 309 308 307 306 305 305 304 302 300 301 302 301 301 301 301 301 297 292 289 289 290 290 290 290 289 289 290
309 310 311 311 313 315 315 314 314 313 312 312 312 311 311 310 309 307 306 306 305 304 303 300 300 300 300 299 299 299 293 290 289 289 289 289 290 290 289 289 290 289 290
308 309 309 310 310 312 315 315 314 313 312 312 311 311 309 308 307 306 305 305 303 302 300 300 299 299 299 297 294 289 289 289 289 289 289 289 288 289 288 289 290 290 290
309 308 309 310 310 310 314 315 314 314 312 310 310 309 309 307 306 305 305 303 302 300 299 299 298 298 298 292 288 288 288 289 289 289 289 289 289 289 289 289 289 289 290
308 307 309 312 313 314 314 314 313 312 310 309 309 308 307 306 305 304 303 302 300 299 299 298 298 298 295 289 288 287 288 288 289 289 289 289 289 289 289 289 289 289 289
309 307 308 310 311 311 311 311 311 310 309 309 308 307 306 305 304 303 302 301 300 299 299 298 297 297 293 290 288 288 287 287 288 288 289 289 289 289 289 289 289 289 289
308 308 308 308 308 309 309 308 309 308 308 307 306 306 305 304 304 303 302 301 300 299 298 297 297 296 294 290 288 289 288 288 288 288 288 288 288 288 289 289 288 288 289
309 309 310 309 308 308 307 307 307 307 306 306 306 305 304 305 304 303 302 301 299 298 297 296 296 296 295 290 289 288 288 288 288 288 288 288 288 288 288 288 288 288 288
310 310 310 310 310 309 309 308 307 306 306 305 305 305 305 305 304 303 303 302 300 298 296 296 296 297 295 290 289 288 288 288 287 287 288 288 288 288 288 288 288 288 287

GFSMW_850_thetae_090.txt.gz
Theta_e
323 326 336 337 339 339 338 338 338 339 340 339 338 336 338 336 336 334 336 334 334 334 334 334 334 333 334 333 333 332 332 331 330 330 328 328 326 326 324 323 322 325 327
323 323 327 331 335 337 339 338 338 338 338 337 338 339 337 337 336 334 335 337 338 336 335 334 335 334 334 333 333 332 331 330 330 328 327 326 326 324 324 324 324 323 326
322 323 323 325 329 332 334 337 336 337 338 333 336 338 336 334 334 334 334 334 336 335 335 335 334 334 334 332 332 331 331 329 328 327 327 326 324 324 325 325 325 325 325
322 322 322 323 325 326 333 334 334 336 336 336 336 336 335 335 334 333 332 333 334 334 329 329 331 331 331 327 328 327 325 323 322 319 323 323 325 323 322 323 324 324 324
320 320 321 322 322 324 326 332 332 334 335 334 334 336 333 333 334 332 329 330 329 326 325 330 328 327 325 320 316 314 313 313 313 313 313 314 324 321 321 321 322 323 322
320 320 320 320 321 322 323 326 328 332 333 332 333 333 332 331 330 329 329 328 326 328 331 325 317 315 314 313 312 312 312 312 312 312 312 312 314 317 320 321 322 322 322
319 319 319 320 320 320 321 323 327 328 330 331 331 331 331 331 330 329 328 329 329 328 323 315 314 313 312 312 312 312 312 312 312 312 312 313 313 317 317 319 319 320 322
318 318 318 319 319 320 320 320 322 325 327 329 329 329 329 328 328 327 328 327 326 317 314 313 312 312 312 312 312 312 311 311 311 311 311 312 311 312 316 317 318 320 320
315 317 317 318 319 320 320 320 319 319 319 323 325 326 326 326 326 325 321 316 314 313 313 312 312 312 312 311 311 311 311 310 310 310 310 310 309 310 313 315 316 316 318
314 314 318 318 319 319 319 318 317 317 316 316 316 317 317 317 316 315 314 313 313 312 312 311 311 311 311 310 310 310 310 309 309 308 308 308 309 309 311 313 315 315 316
311 313 315 318 318 318 318 317 316 316 315 315 315 315 315 316 315 313 312 312 312 312 312 311 311 311 310 310 310 309 309 308 308 308 308 308 308 308 309 310 310 310 311
312 312 312 313 317 318 317 316 316 315 315 315 314 315 319 317 317 318 316 314 312 312 311 311 310 310 310 309 309 308 308 308 307 307 307 307 307 306 307 307 308 308 308
313 312 312 312 312 315 317 316 316 315 315 315 314 314 313 313 313 315 316 315 315 315 312 310 310 309 309 309 308 307 307 307 307 307 306 307 306 305 305 305 306 306 307
313 313 313 313 312 312 314 315 316 315 315 314 314 313 312 311 312 315 317 316 313 311 310 309 309 309 308 307 306 306 306 306 306 306 305 305 304 304 303 304 305 305 305
312 313 313 312 312 312 313 313 314 315 315 314 313 312 311 313 314 313 312 311 310 309 309 308 308 308 307 306 306 306 306 305 304 302 302 302 303 303 304 304 304 304 304
311 312 313 313 312 312 312 313 313 313 313 313 313 312 312 311 311 311 311 310 309 309 308 307 307 306 306 306 305 305 304 302 301 302 302 302 303 303 303 302 302 301 299
311 311 311 312 312 313 313 313 313 312 312 312 311 310 310 310 310 311 311 310 308 307 306 306 305 305 303 302 304 304 301 300 301 300 301 301 296 292 291 290 290 290 289
309 310 310 310 312 312 313 314 313 312 312 311 311 311 311 311 310 310 309 308 307 306 305 304 303 302 300 300 302 301 300 299 299 300 297 291 290 290 290 289 289 290 289
308 308 308 308 310 311 313 314 314 313 312 311 311 311 311 310 310 309 308 307 306 305 304 302 300 300 299 299 300 300 300 300 297 292 289 289 290 290 290 289 290 290 290
310 309 309 309 309 310 311 314 314 314 313 312 311 311 310 310 309 308 307 306 305 304 303 301 300 299 299 299 298 297 292 290 289 288 289 289 290 290 289 289 290 290 290
310 310 308 308 309 309 310 312 314 314 314 312 311 310 309 309 308 306 305 305 304 303 302 300 300 299 298 298 296 291 288 288 288 288 289 289 289 289 288 288 290 290 290
310 309 308 308 310 311 311 310 312 314 314 312 310 309 309 308 307 306 305 304 304 302 300 300 299 299 298 297 291 288 287 288 288 289 288 289 289 289 289 288 289 289 288
310 309 308 308 311 313 313 312 312 313 312 311 309 309 308 307 306 305 304 303 302 302 300 299 299 298 298 297 290 288 287 287 288 288 288 289 289 288 288 288 288 288 288
309 308 308 308 309 310 311 311 311 311 310 309 308 307 306 306 305 303 303 303 302 301 300 299 298 297 297 297 291 288 288 287 287 287 288 288 288 288 288 288 288 288 288
308 309 309 308 308 308 308 308 308 308 308 307 306 306 305 304 303 303 303 302 302 300 299 298 297 297 297 298 293 289 288 288 288 288 287 287 288 288 288 288 288 288 288
308 308 310 310 309 309 310 308 308 307 306 306 305 304 304 303 303 303 303 302 302 300 299 297 296 296 296 296 291 289 288 288 287 288 288 288 288 288 288 287 287 288 288

GFSMW_850_thetae_093.txt.gz
Theta_e
331 331 334 336 337 335 335 336 333 333 333 333 334 335 333 328 336 336 335 335 335 334 334 334 334 334 333 332 333 332 331 330 329 328 328 326 326 324 324 323 323 323 323
324 325 330 334 335 335 336 335 337 336 334 335 333 330 330 333 336 336 336 336 335 335 334 333 332 334 333 333 332 331 330 330 329 328 327 327 324 322 322 323 324 322 322
323 323 325 330 334 335 335 336 336 337 336 336 335 336 337 336 336 335 335 334 335 334 334 333 332 333 332 332 332 330 330 328 328 326 327 325 325 324 323 322 322 323 324
321 322 323 323 324 329 331 331 332 333 334 335 335 335 337 337 337 334 334 334 335 333 332 328 326 330 330 332 334 333 327 327 327 323 322 322 325 326 323 322 321 322 321
320 321 321 322 322 323 325 330 332 332 333 334 334 334 333 334 336 333 333 333 333 333 327 326 327 327 328 330 328 323 318 315 313 313 313 313 315 317 320 320 320 320 320
320 320 320 320 320 322 322 323 329 330 330 331 332 333 332 332 333 334 333 333 332 329 328 328 327 327 326 316 314 313 312 312 311 311 311 312 312 314 315 318 318 319 319
319 320 320 319 320 320 321 321 322 325 326 328 330 330 331 331 331 331 331 331 329 328 326 326 326 326 315 313 312 312 312 312 312 312 312 312 312 314 314 315 317 317 320
318 318 318 319 319 319 320 320 321 321 323 326 329 328 329 329 330 329 330 329 327 326 323 320 320 314 313 312 312 312 312 311 311 311 311 311 312 313 312 314 315 319 319
315 315 316 317 318 318 319 319 320 320 323 325 325 326 327 328 328 328 325 323 323 324 323 316 313 312 312 312 312 311 311 311 310 310 310 309 310 310 309 310 314 314 316
313 314 314 316 317 317 318 319 318 318 319 319 318 320 324 326 328 326 324 321 319 315 313 312 312 312 312 312 311 311 311 310 310 309 309 308 308 308 309 311 311 312 314
311 311 313 314 318 317 318 318 318 317 317 317 316 316 318 321 320 319 318 316 313 313 312 313 312 312 312 311 310 310 310 309 308 308 308 308 308 308 308 309 309 309 310
312 312 312 312 312 318 318 318 317 317 316 316 315 315 315 316 315 315 316 315 317 316 317 317 316 315 314 311 310 309 309 308 308 307 307 307 307 307 307 306 307 307 308
312 312 312 312 312 312 315 317 317 317 316 315 315 315 315 314 314 315 318 318 317 315 314 313 314 311 310 309 309 308 308 307 307 306 306 306 306 305 304 305 305 305 305
312 312 312 312 312 312 312 312 315 316 316 315 315 315 314 314 314 314 315 312 312 314 314 313 310 310 309 308 307 307 307 306 306 305 305 305 303 303 303 303 303 303 304
312 313 312 312 312 312 312 312 313 314 315 315 315 314 314 313 312 311 312 315 315 311 310 309 310 308 307 307 307 307 306 305 305 304 302 302 302 301 300 301 302 302 303
312 311 311 312 313 313 312 312 312 313 314 314 314 314 314 313 311 312 313 310 309 308 309 308 308 307 306 306 306 306 305 304 301 301 301 301 301 300 302 303 303 303 302
310 310 311 311 311 311 312 312 313 313 313 313 313 313 312 311 311 312 310 310 309 308 307 306 306 305 305 304 304 305 302 300 300 300 300 301 301 297 296 296 297 295 293
309 309 309 309 309 309 310 312 313 313 313 312 312 312 312 311 310 310 310 309 308 308 307 306 305 305 304 301 300 301 300 299 298 298 299 300 294 290 289 289 289 289 289
309 308 309 309 308 308 309 311 312 313 313 312 312 311 310 310 310 310 309 308 308 307 306 306 305 304 302 300 299 299 298 298 298 298 298 291 289 289 289 289 289 289 289
309 309 310 309 309 309 309 310 311 313 313 313 312 311 311 310 310 309 309 308 307 306 305 305 303 302 300 299 299 299 299 298 296 292 289 288 289 289 289 288 288 289 289
309 309 310 310 309 308 308 309 310 313 314 314 312 311 310 310 309 309 308 307 306 305 304 304 302 301 300 299 299 298 294 289 288 288 288 288 289 288 288 288 289 289 289
308 309 309 310 308 308 310 309 309 310 313 314 313 311 310 309 309 308 307 306 305 304 303 302 301 300 300 299 298 297 289 287 288 288 288 288 288 288 288 287 288 289 289
308 309 309 309 308 309 311 313 311 310 311 312 312 311 310 309 308 307 306 305 304 304 303 302 301 300 299 299 298 295 289 287 287 288 288 288 288 288 288 288 288 288 289
307 308 308 309 309 308 310 311 312 311 311 311 310 309 309 308 307 306 305 304 303 303 302 301 301 300 299 298 298 296 289 287 287 287 287 288 288 288 288 288 288 288 288
307 308 308 308 308 308 308 309 310 310 310 310 310 308 307 306 306 305 304 303 303 302 302 301 300 299 298 298 297 296 290 288 288 287 287 288 287 288 288 288 288 288 288
305 306 307 307 308 307 307 307 307 308 308 307 308 307 307 305 304 303 303 303 303 302 302 300 299 298 297 297 296 296 292 288 288 288 288 288 288 288 288 288 288 288 288

GFSMW_850_thetae_096.txt.gz
Theta_e
332 332 333 333 334 334 332 331 329 330 329 329 331 327 326 329 336 335 335 335 335 334 334 332 330 330 331 332 332 331 331 331 329 328 327 327 325 325 323 320 321 322 322
331 332 331 330 332 334 334 334 331 330 330 329 329 331 328 329 335 335 335 335 335 334 334 334 333 333 332 332 331 331 330 329 328 327 326 326 322 320 322 322 322 323 322
324 323 327 330 332 331 334 334 334 334 333 330 331 329 331 332 334 334 331 335 336 335 335 335 334 333 332 332 330 330 331 329 326 326 326 326 323 323 322 322 322 321 321
322 323 323 323 328 331 331 333 334 334 334 334 334 333 333 333 333 330 331 335 335 334 334 334 332 331 326 325 327 327 331 332 330 325 325 323 325 325 322 322 322 321 320
322 321 321 322 322 323 327 331 331 331 331 332 332 332 333 333 333 332 333 334 334 333 332 332 333 328 326 326 326 325 327 322 315 313 312 312 313 315 321 320 317 319 319
322 321 321 321 321 321 322 322 323 328 330 330 331 332 332 332 332 331 331 332 332 333 332 332 328 327 328 326 327 318 314 312 312 311 311 311 312 312 314 316 315 316 318
319 320 320 320 320 320 320 320 322 321 327 326 328 329 329 330 331 331 331 331 331 332 331 329 327 327 324 319 314 313 312 311 312 312 312 312 312 312 313 315 316 315 315
315 317 318 319 320 319 319 320 320 321 321 324 326 327 328 329 329 329 329 330 330 330 329 324 322 320 321 317 312 312 311 311 311 311 311 311 310 311 313 314 313 314 316
313 314 315 317 318 318 318 318 319 319 320 320 322 325 327 328 327 328 328 329 329 327 323 322 321 320 320 313 311 311 311 311 311 311 310 310 309 309 310 310 309 311 312
312 313 313 314 315 316 316 318 318 318 318 319 321 322 320 320 322 324 328 328 326 323 322 322 318 313 312 312 312 311 311 311 310 310 309 309 308 308 308 308 309 312 313
311 311 311 312 314 317 316 317 318 318 318 318 318 317 317 317 320 326 326 324 322 320 316 314 312 314 315 316 317 316 314 310 310 309 309 308 308 308 307 308 310 310 309
312 312 312 312 312 312 317 317 317 317 317 317 317 316 315 315 318 320 319 317 316 315 315 315 315 316 315 316 315 314 312 309 309 308 308 307 307 307 307 307 307 307 306
312 312 312 312 312 312 312 315 317 317 317 316 316 315 315 315 316 316 314 313 313 315 316 317 316 313 313 314 311 310 309 309 308 307 306 306 306 305 304 304 304 304 305
313 313 313 312 312 312 312 312 312 314 316 316 315 315 315 315 315 314 313 315 316 316 314 313 314 314 315 310 309 308 307 308 306 305 304 305 304 302 303 302 302 302 303
312 312 312 312 312 312 312 312 312 312 312 313 314 315 314 314 314 313 313 314 314 313 314 316 315 312 309 308 307 307 307 307 306 305 303 302 302 301 300 300 301 301 300
311 310 310 311 311 311 312 312 312 312 312 312 313 314 314 314 313 313 312 311 312 314 313 311 310 309 308 307 307 307 306 306 304 302 301 301 301 301 301 299 299 299 300
310 310 309 309 309 310 310 311 311 312 312 312 312 313 314 314 313 312 310 310 312 310 310 310 309 307 306 306 305 305 305 304 301 300 301 300 300 301 297 296 300 300 300
309 309 309 308 308 308 308 309 309 310 311 312 312 313 313 313 312 311 310 311 310 310 310 309 307 306 305 304 303 300 299 299 298 298 298 299 300 296 290 289 289 289 289
309 309 308 308 309 309 309 309 308 309 311 312 312 312 312 312 311 311 310 309 309 309 309 307 306 305 303 302 300 299 299 298 298 298 298 298 294 289 289 289 289 289 289
308 308 307 308 309 309 309 308 308 308 309 311 312 312 311 311 311 310 309 309 309 308 307 306 305 304 303 301 300 300 299 299 299 298 298 292 288 289 289 289 288 289 289
307 307 307 307 309 309 309 308 308 308 309 310 312 312 311 311 310 309 309 309 308 307 306 305 305 304 303 301 300 300 299 298 294 291 289 288 288 289 288 288 287 288 289
304 306 307 307 308 309 308 308 309 309 309 309 312 312 311 310 309 308 308 307 307 307 306 305 305 303 302 301 300 300 299 296 289 288 288 288 288 288 288 287 287 288 288
302 302 304 307 308 308 308 308 310 312 311 309 311 312 311 310 309 308 308 307 306 306 305 305 304 303 301 300 300 299 299 292 288 288 288 288 288 288 288 288 287 287 287
300 302 303 305 307 307 308 308 310 311 310 309 310 311 310 309 308 308 307 307 306 305 304 304 304 304 301 300 299 299 298 294 288 287 287 288 288 288 288 288 288 288 288
301 301 303 304 306 306 307 307 308 310 309 308 309 310 309 308 307 307 306 305 305 303 303 304 303 303 302 300 298 298 298 295 289 288 287 287 287 288 288 288 288 288 288
301 301 301 303 305 305 306 306 307 308 309 308 308 309 309 308 307 306 304 304 303 302 303 303 304 302 300 299 298 298 297 295 289 288 288 288 288 288 288 287 287 287 287

GFSMW_850_thetae_099.txt.gz
Theta_e
328 326 327 332 330 329 329 327 328 328 326 327 329 327 328 331 332 333 333 335 335 334 333 334 334 332 328 328 331 331 331 330 329 328 328 327 325 326 320 320 319 318 322
331 327 324 328 332 329 328 329 329 329 327 327 328 327 329 327 331 331 332 335 335 335 334 334 333 330 330 332 331 331 330 329 328 327 327 326 324 321 319 320 321 320 321
328 330 331 331 331 330 330 330 329 331 328 329 329 328 329 329 330 329 329 332 333 332 333 334 333 333 332 332 333 330 330 330 329 328 327 325 324 323 323 322 321 321 321
321 325 329 331 330 329 329 328 331 331 330 329 331 331 329 329 328 328 330 331 333 331 331 333 333 333 332 331 330 328 328 328 331 330 329 324 327 324 322 321 320 321 320
321 321 322 322 324 330 330 329 329 330 332 332 332 333 333 332 331 328 327 331 332 332 332 332 334 333 333 328 325 326 326 325 319 321 314 313 313 313 319 320 318 318 318
321 321 321 321 321 321 322 325 329 330 330 331 330 331 331 332 331 331 331 331 331 331 331 332 331 332 329 326 327 326 324 320 314 312 311 311 312 312 312 314 314 316 315
320 321 321 321 321 320 320 321 321 322 323 329 330 330 331 330 330 331 331 330 330 330 330 331 329 327 326 323 316 313 312 312 311 311 311 311 311 311 312 312 313 315 315
320 319 319 319 320 320 319 319 319 320 321 321 327 325 326 327 329 329 330 330 330 330 330 330 329 327 324 324 322 320 320 315 311 311 311 310 310 310 310 312 313 314 313
314 315 315 316 317 318 319 318 319 318 319 320 320 323 323 325 328 328 329 329 329 329 330 329 324 324 323 323 321 320 314 312 312 311 311 310 310 309 309 310 310 311 311
312 313 313 313 315 315 316 317 318 318 318 318 319 321 323 324 322 321 323 325 328 329 328 325 322 321 321 320 316 312 311 313 314 314 311 311 310 309 308 308 308 308 310
311 311 311 311 312 316 316 316 316 317 318 318 318 319 319 318 317 318 320 327 328 326 323 322 319 314 312 311 313 316 315 314 311 310 310 310 309 308 308 307 307 310 309
312 312 312 312 312 311 315 317 317 317 317 317 317 317 317 317 316 317 323 326 324 323 321 314 312 312 314 315 316 314 313 312 310 309 309 309 308 307 307 307 306 307 308
312 312 312 312 312 312 311 312 316 317 317 317 317 317 316 316 315 316 321 322 319 316 314 314 314 315 316 314 314 314 311 310 309 309 308 307 306 306 306 305 304 303 305
312 311 311 311 311 312 312 312 312 312 314 316 316 316 316 315 315 316 317 316 315 313 313 316 316 313 313 314 313 311 309 309 309 308 307 307 305 305 303 302 302 302 302
310 311 310 310 310 310 311 312 312 312 312 312 312 313 315 315 314 315 315 314 312 313 316 314 312 314 314 313 310 310 309 308 308 307 306 306 303 302 301 300 300 300 301
308 308 309 309 309 308 309 309 310 312 312 312 312 312 314 314 314 314 314 313 312 313 312 312 314 313 311 310 309 309 308 307 307 306 304 301 301 301 301 301 299 300 300
308 309 309 308 308 308 308 308 308 308 309 310 312 312 313 314 314 314 313 312 313 311 312 312 310 310 309 308 308 308 307 306 304 302 300 301 301 301 301 299 299 301 299
307 308 308 308 307 307 308 309 309 309 308 308 309 312 313 313 313 313 312 311 309 311 311 309 309 309 308 307 307 306 304 303 301 299 300 300 300 300 300 292 290 290 291
306 306 307 307 307 307 307 308 309 309 308 308 308 310 312 312 313 312 312 310 309 310 309 309 309 308 307 307 306 305 304 301 300 299 299 299 299 299 291 289 289 289 289
302 304 305 305 307 307 307 308 309 309 309 308 308 308 310 312 312 312 311 310 309 309 309 309 308 307 306 306 305 303 301 300 298 298 298 297 297 290 289 289 289 289 289
298 300 301 302 302 305 307 307 308 309 309 308 308 308 309 311 311 311 310 310 308 308 308 308 307 306 305 304 303 301 300 300 299 298 296 293 288 288 289 289 288 288 289
297 298 298 299 301 302 304 307 308 309 309 309 310 308 309 311 311 310 310 308 307 307 307 307 306 305 305 304 302 301 300 300 299 293 289 288 288 288 289 288 288 288 289
297 298 299 300 300 302 303 305 308 308 308 309 311 309 309 311 311 310 308 307 307 307 307 306 305 304 304 303 302 301 300 300 298 290 288 288 288 288 288 288 287 288 288
299 298 300 300 300 301 303 304 307 307 307 310 311 309 309 311 310 309 308 308 307 307 306 306 304 304 304 305 304 301 300 299 297 289 287 287 288 288 288 288 288 288 288
297 298 299 299 300 300 302 303 305 306 307 310 309 308 309 310 309 308 308 307 307 306 306 305 303 303 304 305 303 301 300 298 298 291 287 287 288 288 288 288 288 288 288
297 298 298 298 298 300 301 303 304 305 306 309 308 307 308 308 308 308 306 305 304 304 303 302 303 302 302 303 302 300 299 298 296 292 289 288 287 288 287 287 287 287 287

GFSMW_850_thetae_102.txt.gz
Theta_e
330 330 330 332 330 328 326 326 328 327 327 327 327 331 334 334 333 332 331 333 334 334 333 334 335 334 331 328 327 330 332 330 329 330 331 330 329 327 321 322 318 318 319
330 330 329 326 331 330 330 329 328 327 327 329 328 328 331 331 332 332 333 332 333 334 334 334 334 334 334 331 330 331 331 330 332 330 330 327 326 325 319 319 320 320 320
329 327 325 322 325 329 329 328 328 328 327 326 328 329 328 329 330 328 329 330 329 329 332 332 333 333 333 331 330 331 330 332 329 329 329 328 325 325 325 322 321 321 320
326 327 326 326 324 325 325 327 326 326 326 325 327 328 329 329 328 328 328 328 330 330 330 331 330 330 332 332 331 331 330 330 328 328 329 329 329 325 322 323 319 318 320
321 325 327 328 328 329 328 326 328 325 326 330 329 328 329 330 329 328 327 327 328 327 328 330 330 330 330 330 330 330 329 326 326 325 321 314 312 314 322 320 320 319 316
321 320 320 321 322 327 328 329 329 329 329 330 327 328 328 329 328 330 329 328 327 327 327 330 331 330 328 326 328 327 326 325 323 315 313 312 312 317 319 319 319 319 319
319 319 319 319 319 318 321 325 327 330 329 330 330 330 330 330 330 330 331 330 329 330 330 330 330 330 330 329 327 324 325 322 318 313 314 314 313 311 311 315 316 317 318
314 318 319 319 318 319 319 319 320 320 323 326 328 328 329 330 330 330 329 330 330 330 330 330 330 330 328 325 324 323 323 321 320 319 312 311 311 311 310 310 311 314 315
314 314 315 316 317 317 318 319 319 319 319 320 320 323 327 326 327 328 329 329 329 329 329 329 330 328 328 326 324 323 322 321 320 313 311 310 310 310 310 310 310 311 313
311 312 312 313 315 315 316 317 318 318 318 318 319 319 320 324 324 326 327 327 328 329 329 330 328 325 323 323 322 322 320 316 312 312 313 312 311 310 310 309 309 309 309
311 311 311 311 311 314 317 315 315 316 317 317 318 319 321 323 322 320 319 320 322 327 329 329 325 322 321 321 319 316 312 313 315 315 313 311 310 309 308 308 308 308 307
312 312 312 312 312 311 312 317 316 316 317 317 317 318 319 318 317 317 317 319 323 327 329 326 322 321 315 312 311 313 315 315 314 313 310 309 309 308 308 307 307 307 306
311 310 311 311 311 311 311 312 314 316 317 317 317 317 317 317 317 316 317 320 325 327 325 323 321 313 312 313 315 314 313 313 311 310 309 309 308 307 307 307 306 305 304
310 309 309 310 310 311 311 311 311 312 314 316 316 316 316 316 315 315 316 322 325 324 323 319 313 312 314 315 313 314 313 311 310 309 309 308 307 306 306 305 304 303 303
309 309 309 309 308 309 309 310 311 312 312 312 313 314 315 315 315 315 316 318 320 319 315 313 313 315 316 313 314 313 311 309 309 308 308 307 307 306 305 304 302 301 301
308 308 308 308 308 308 308 308 308 309 309 311 312 312 313 314 314 314 315 316 316 315 313 313 315 314 312 314 313 310 309 308 308 307 306 306 305 303 301 301 301 301 301
307 307 307 307 307 307 307 307 308 308 308 309 309 311 312 313 313 314 314 314 314 313 312 313 312 312 313 311 310 309 308 307 306 306 305 304 303 301 301 301 301 301 300
303 304 305 305 306 306 307 307 307 307 308 309 309 308 309 311 313 313 313 313 312 312 311 311 311 312 309 309 309 308 308 306 305 305 304 302 301 301 301 300 295 291 294
300 300 301 302 302 303 304 305 306 307 307 308 309 309 308 308 311 313 313 313 312 311 311 310 311 310 309 308 308 307 306 305 305 304 301 300 301 300 300 298 290 289 289
298 298 299 300 301 300 301 302 303 304 306 307 309 309 308 308 308 311 312 312 312 311 309 310 309 308 308 308 307 307 306 305 304 303 301 300 300 299 298 290 289 289 289
298 298 298 299 299 299 300 301 302 303 304 307 307 308 308 308 308 309 312 312 311 310 308 308 307 307 307 307 306 306 305 303 303 301 300 299 298 297 290 289 290 289 289
297 297 298 299 299 300 300 301 301 302 303 305 307 307 308 309 308 308 311 311 311 309 308 307 306 306 306 305 305 305 303 302 301 300 297 296 293 289 289 289 289 288 289
296 296 296 297 298 298 300 301 300 302 302 303 306 307 307 309 308 308 310 310 309 307 307 306 306 306 305 304 304 304 302 301 300 298 294 290 288 288 288 289 288 287 288
296 296 296 297 298 298 298 298 298 301 301 302 304 305 307 308 308 308 309 310 309 307 306 306 306 305 305 304 304 304 302 301 300 298 291 289 288 288 288 288 288 287 287
294 294 295 296 296 296 298 298 298 299 300 303 303 305 307 307 306 307 309 309 309 309 307 307 307 306 305 305 306 305 304 302 300 298 290 288 287 288 288 288 288 288 287
293 293 294 294 296 297 297 300 301 301 302 303 304 305 306 305 305 306 307 307 307 306 306 305 305 305 303 304 304 304 302 300 299 298 294 289 287 288 288 288 288 288 288

GFSMW_850_thetae_105.txt.gz
Theta_e
325 327 327 329 331 328 330 327 328 327 331 332 334 332 329 329 327 324 324 328 329 332 332 334 335 334 334 333 331 330 331 331 332 331 331 330 330 329 328 326 326 324 317
328 328 327 330 329 329 328 330 329 329 331 330 330 334 335 334 332 329 326 326 328 332 334 334 334 334 334 334 332 331 331 332 332 332 330 329 327 327 325 321 320 320 319
329 328 326 327 326 324 329 328 329 329 328 328 330 330 331 331 334 335 333 333 332 332 332 333 333 333 333 334 332 332 331 331 331 332 330 328 327 326 325 325 322 319 319
326 326 323 323 323 323 329 327 326 326 327 327 328 329 330 329 329 329 330 330 330 330 330 330 330 329 330 330 331 332 331 332 331 330 328 328 326 328 322 324 322 320 317
325 325 326 325 326 324 328 328 325 325 326 327 327 327 328 328 328 329 329 329 329 328 329 328 327 327 328 327 327 328 329 331 330 328 327 325 320 315 320 321 321 322 320
324 323 324 323 324 326 325 324 324 324 325 324 325 325 326 325 327 327 329 330 329 328 327 325 326 326 326 329 327 327 327 327 327 327 325 324 324 324 317 320 319 319 320
323 324 324 325 324 325 326 327 325 325 326 325 325 324 324 324 325 324 325 327 328 328 326 326 325 327 327 330 330 328 327 326 325 326 325 320 316 314 315 318 318 318 319
317 317 317 317 318 319 323 326 327 327 327 328 328 328 328 329 329 329 329 327 328 329 327 325 327 329 330 330 330 328 327 325 325 322 319 315 314 312 311 311 312 315 315
316 315 314 315 316 316 318 319 319 320 321 323 327 329 329 328 329 329 329 329 330 329 329 329 329 328 330 330 328 326 324 324 323 321 318 319 315 311 311 311 310 311 314
312 312 312 313 315 315 315 316 317 317 317 318 319 320 320 323 327 327 327 327 327 328 328 329 328 329 329 327 325 325 324 323 321 321 318 313 311 313 312 311 310 310 311
312 312 311 312 312 313 316 315 315 314 316 316 317 318 319 320 323 325 325 325 327 326 327 327 327 329 328 327 324 323 322 321 319 315 312 314 314 312 311 310 309 308 308
312 311 311 311 311 311 311 313 316 316 315 316 316 318 320 321 323 323 322 320 320 320 324 326 328 328 326 322 321 321 319 314 312 314 314 313 312 311 309 308 308 308 307
312 312 311 311 310 310 311 311 311 312 316 316 317 318 319 320 319 318 317 318 319 320 322 327 328 327 323 321 318 313 311 313 315 314 313 311 310 309 308 308 307 306 306
311 311 311 310 310 310 309 310 310 311 311 312 314 316 316 316 316 316 316 317 319 322 325 327 326 324 322 317 312 312 314 314 313 312 310 308 308 307 307 307 306 305 305
309 309 309 309 309 309 309 308 308 309 309 310 311 312 313 315 315 315 315 316 319 325 325 325 323 322 319 312 313 314 312 313 313 311 309 309 308 307 307 306 305 304 303
308 308 308 308 308 308 308 308 308 308 307 308 308 309 310 312 313 314 315 315 317 322 322 321 322 319 312 312 315 313 313 313 310 309 309 308 307 306 306 305 303 302 302
304 304 305 305 306 306 307 307 307 307 307 307 307 308 308 309 310 312 313 314 314 316 319 319 317 312 312 315 314 312 313 310 309 308 307 307 306 305 304 303 302 301 301
300 300 300 301 301 301 302 303 304 305 306 307 307 307 308 309 308 309 311 312 313 314 314 314 313 311 314 313 312 312 309 309 308 307 306 305 305 304 302 301 301 299 296
299 300 300 300 300 300 301 301 301 302 303 304 305 306 307 308 308 308 308 311 313 313 313 313 312 311 312 311 312 310 308 307 306 305 305 305 304 301 301 300 300 294 291
300 300 300 300 300 300 301 301 301 301 301 302 302 303 304 306 307 307 307 308 311 313 313 312 311 310 310 310 309 308 307 306 305 305 304 302 300 300 299 299 296 290 290
299 298 298 297 298 298 298 299 299 300 300 301 301 302 303 304 307 307 307 307 308 311 312 311 311 310 309 309 308 308 306 304 304 303 303 301 299 299 298 298 290 289 290
298 298 297 297 297 297 297 298 298 299 300 300 300 301 302 303 305 307 307 307 306 309 310 310 309 308 308 308 307 306 305 303 302 303 302 301 300 299 298 290 289 289 289
297 296 295 295 295 295 296 296 296 297 297 298 299 300 302 303 304 305 307 306 305 306 309 308 308 307 306 305 307 306 304 303 302 302 301 300 297 296 290 289 289 289 288
295 294 294 294 294 295 295 294 295 297 298 299 298 300 301 302 303 304 304 305 305 304 307 309 308 308 306 306 306 306 304 302 301 302 301 297 292 290 288 288 289 288 288
294 293 293 293 293 292 294 294 295 297 298 299 300 300 300 302 303 303 305 304 304 305 307 310 309 308 307 307 307 306 305 304 303 302 300 295 291 288 288 289 288 288 288
292 292 292 292 292 292 293 294 294 296 297 298 299 299 301 301 303 303 302 302 302 303 306 307 309 308 307 306 306 304 304 304 302 301 300 297 291 289 288 288 289 289 288

GFSMW_850_thetae_108.txt.gz
Theta_e
321 322 324 326 328 330 329 328 328 327 322 325 328 331 333 334 334 336 334 334 334 331 329 331 333 334 333 332 331 331 330 330 330 332 330 330 329 330 330 329 326 324 321
321 327 325 327 328 330 329 328 330 324 323 324 323 323 326 328 329 329 330 331 332 332 331 330 332 334 334 334 333 331 330 330 330 332 331 330 330 330 329 325 320 321 320
323 327 327 327 327 326 326 328 329 326 326 325 327 327 327 332 332 330 327 326 326 327 329 332 333 333 333 333 333 332 331 330 331 330 329 329 327 327 326 324 321 321 317
325 325 323 323 325 325 324 326 329 326 328 329 328 329 329 329 330 330 330 331 332 332 333 332 331 332 331 330 331 329 329 330 331 330 330 329 328 326 325 325 325 322 320
325 324 323 323 322 322 325 328 328 327 326 327 327 328 328 328 328 329 329 329 330 330 329 329 329 329 329 327 327 327 325 326 326 329 330 328 326 323 317 320 321 320 322
325 324 322 321 321 323 324 327 327 326 326 324 326 325 325 325 327 326 328 329 329 329 329 328 328 327 326 326 326 326 326 325 327 327 329 327 326 326 324 323 322 319 320
325 323 321 321 323 325 321 322 322 323 322 323 325 323 324 324 325 326 324 327 327 328 328 328 328 327 326 325 325 325 327 326 327 327 327 328 326 324 323 321 319 319 319
324 324 324 324 324 324 325 325 325 325 324 323 323 324 323 324 325 324 325 325 325 325 325 324 326 327 326 325 326 326 328 329 328 327 327 325 325 324 317 316 314 314 314
316 315 315 316 316 317 317 319 324 326 326 326 326 326 327 326 325 324 328 326 327 326 325 324 327 327 326 325 327 327 330 328 327 326 325 323 318 316 315 311 311 311 311
312 312 313 314 315 315 315 315 316 317 318 321 323 325 327 327 328 327 326 328 328 328 328 328 328 328 328 327 328 330 328 327 325 325 322 318 317 319 313 311 311 311 311
311 311 311 311 311 313 315 315 315 315 315 316 317 319 322 325 323 323 326 327 327 326 327 327 326 327 327 327 329 328 326 324 323 322 320 320 317 312 311 312 312 311 310
311 311 310 310 310 310 311 311 312 315 316 315 316 317 319 320 321 325 325 325 325 324 325 326 326 326 326 328 328 326 326 324 323 321 320 314 312 313 313 312 311 309 309
311 310 310 310 310 310 310 309 310 310 311 312 315 316 317 318 320 321 322 321 320 320 321 322 325 327 326 328 327 326 323 321 320 317 312 314 314 313 311 309 309 308 308
309 309 309 309 309 309 309 308 308 308 308 309 310 311 314 315 316 317 317 317 317 317 318 320 323 326 326 326 325 322 320 316 312 312 314 314 314 311 310 309 308 307 307
307 306 307 307 307 308 308 308 307 308 307 307 307 308 309 310 312 314 315 316 316 316 316 318 322 324 323 324 322 321 315 312 312 315 313 313 313 310 309 308 308 307 306
303 302 302 302 302 303 303 303 304 306 306 307 307 307 307 308 308 310 312 313 314 315 315 318 322 322 323 323 321 319 312 312 314 313 313 312 310 309 308 307 306 305 304
302 299 299 299 298 299 299 299 300 300 301 301 303 305 306 307 308 308 308 311 312 313 314 315 319 320 320 320 319 312 311 314 313 313 312 310 309 308 306 305 304 303 303
299 298 299 299 299 299 300 300 300 300 300 300 300 301 303 304 306 307 308 308 310 312 313 314 316 318 320 319 314 310 312 312 311 311 309 309 308 307 305 304 303 303 302
299 299 299 300 300 300 300 300 301 301 301 301 301 301 301 302 304 305 306 307 308 308 311 312 313 315 317 316 312 311 313 310 310 308 308 308 307 306 304 303 302 302 301
299 299 298 298 298 297 297 298 298 298 299 300 300 300 300 301 301 302 305 306 307 308 307 309 311 312 313 312 311 312 311 311 309 308 307 307 305 303 302 301 300 300 298
298 298 298 297 297 296 296 296 296 297 297 297 297 299 300 300 300 301 301 303 305 307 308 307 308 309 310 310 310 311 310 311 309 309 307 306 305 302 300 300 299 299 292
298 297 297 296 295 294 294 295 295 295 295 296 297 297 299 300 300 299 301 302 304 306 307 307 307 308 307 308 308 309 310 309 308 308 306 305 303 301 299 298 298 293 290
296 296 295 295 294 294 293 293 294 293 294 294 296 298 299 299 299 299 301 302 303 305 305 306 305 306 307 307 307 307 308 307 307 307 305 304 302 299 298 297 296 289 289
294 294 293 294 293 292 293 292 293 293 292 294 295 296 298 299 299 299 300 301 302 304 304 303 304 304 307 305 307 306 304 305 306 304 303 303 300 298 297 295 289 289 289
293 293 292 291 292 292 292 293 293 293 293 294 294 295 296 298 299 300 300 301 301 303 304 303 303 304 305 307 308 307 306 305 305 303 301 301 298 295 293 290 289 289 288
293 293 292 291 291 291 291 290 292 292 292 292 293 294 295 296 297 299 301 301 302 303 303 303 303 303 304 305 307 306 305 304 303 301 301 300 298 296 292 290 289 289 289

GFSMW_850_thetae_111.txt.gz
Theta_e
318 319 320 319 323 327 328 327 329 328 334 333 333 330 329 328 329 328 329 330 325 325 324 323 325 327 327 328 328 327 328 329 329 329 330 330 330 329 328 328 329 328 325
318 318 319 322 324 326 327 328 329 328 330 332 330 330 330 331 332 331 329 327 329 330 329 328 329 333 333 333 332 331 331 330 329 330 330 330 329 329 328 329 328 321 318
318 319 323 326 327 326 326 328 329 328 327 328 328 329 330 330 330 330 333 333 333 333 333 330 331 333 333 332 333 333 331 330 330 330 330 330 329 329 329 330 326 320 321
318 323 323 324 324 325 326 325 324 325 324 323 321 322 322 325 326 327 330 331 329 332 332 332 333 333 333 333 333 332 331 331 330 330 330 329 328 327 326 326 324 323 322
320 322 323 323 322 322 323 324 324 326 323 323 325 326 325 326 324 324 326 326 328 329 332 330 330 330 330 329 328 329 328 326 326 327 326 329 330 327 325 323 324 324 322
323 323 322 321 323 322 323 325 325 328 325 326 326 327 327 326 327 327 327 328 329 329 330 330 329 329 328 328 327 326 326 326 326 326 326 325 326 329 326 321 320 322 322
324 322 322 321 322 321 322 325 326 327 325 327 327 327 326 325 325 326 325 326 326 328 328 329 328 328 328 328 327 326 326 326 326 326 325 326 327 329 327 325 324 322 320
322 322 322 323 323 324 324 323 323 326 325 324 325 325 326 324 324 324 323 324 324 324 326 326 328 326 325 327 328 326 326 325 326 323 326 328 327 328 328 325 322 320 319
314 315 315 315 316 317 317 322 325 324 323 324 324 323 323 323 323 323 322 324 324 323 325 325 325 325 325 325 326 327 326 326 325 325 326 327 327 327 325 321 315 316 315
312 313 314 315 315 315 315 315 316 319 324 324 325 324 323 324 325 325 326 324 324 325 326 326 326 326 324 324 326 327 326 325 325 327 328 327 325 324 318 315 314 312 312
310 310 310 310 311 312 314 315 315 315 315 316 317 319 321 323 323 324 325 326 326 326 326 326 326 326 326 327 326 327 327 327 328 329 327 324 324 321 316 318 316 311 311
310 310 309 309 309 309 309 309 310 311 314 315 316 317 320 321 321 321 320 319 320 323 325 326 325 325 326 326 326 327 327 327 329 325 325 323 321 319 319 315 311 313 312
309 309 309 309 308 308 308 308 308 308 308 309 310 312 315 316 317 319 320 321 322 322 322 323 323 323 323 326 325 325 327 328 326 324 324 322 321 319 313 312 313 312 310
305 305 305 306 306 307 307 307 307 307 308 308 308 308 309 310 311 313 315 315 316 316 317 317 317 318 319 324 324 326 325 325 324 324 321 320 317 312 313 313 311 309 309
301 300 300 300 300 300 300 300 300 302 304 305 306 307 307 307 308 309 310 311 313 314 315 315 316 317 318 318 323 325 324 323 323 320 318 313 311 313 312 310 309 308 308
301 299 298 298 298 299 299 299 299 299 299 299 299 300 302 305 306 307 307 308 309 312 313 314 315 316 317 319 322 323 322 321 320 318 311 311 313 312 311 309 308 308 308
300 298 299 299 299 299 299 300 300 300 300 300 300 300 300 300 300 302 304 306 307 308 309 312 314 316 317 321 321 322 321 321 314 311 310 313 313 313 310 309 308 307 307
298 298 298 299 299 298 298 298 299 299 299 299 299 299 299 300 300 300 301 302 304 306 307 308 310 312 316 318 319 320 320 318 316 309 313 312 312 311 309 308 307 306 305
297 297 298 298 298 298 298 298 299 299 299 298 299 299 299 298 298 299 300 301 302 305 306 307 308 309 311 313 316 316 318 316 311 311 312 313 312 310 308 307 306 305 304
297 297 297 297 297 297 297 298 298 298 299 299 299 300 299 298 298 298 299 299 300 301 302 305 307 308 308 310 312 312 311 311 309 309 311 312 311 310 308 307 305 305 304
297 297 297 297 296 296 296 296 296 296 296 296 297 298 299 299 299 299 299 299 298 300 300 301 304 306 307 308 310 311 310 308 308 310 311 311 309 310 308 306 306 304 301
297 296 296 295 294 293 293 294 293 293 294 294 293 295 296 297 298 299 299 300 299 299 300 301 302 304 306 307 308 310 311 308 308 309 310 310 308 307 306 305 303 301 300
295 294 293 292 292 292 292 291 291 291 291 292 292 292 294 295 296 297 298 299 299 299 300 300 302 302 304 306 306 307 309 309 308 308 308 307 305 304 302 303 301 300 300
294 293 293 292 292 291 291 290 290 290 291 291 290 291 292 292 293 295 297 298 299 300 300 301 302 303 302 304 304 305 305 306 307 306 305 304 303 302 301 300 299 299 299
294 293 292 292 292 291 293 292 290 290 290 290 290 289 290 291 291 293 294 295 298 299 300 300 301 302 302 304 304 304 304 305 307 306 302 302 301 300 299 299 298 298 293
294 293 292 291 291 291 293 292 291 290 290 290 289 289 289 289 291 291 293 295 296 299 301 300 302 302 303 303 303 303 303 304 305 303 302 301 301 301 300 299 297 295 289

GFSMW_850_thetae_114.txt.gz
Theta_e
308 310 317 318 319 318 318 322 327 327 328 328 331 329 327 331 331 330 330 330 331 331 332 330 328 326 323 323 326 325 324 327 328 328 328 330 330 330 330 329 328 328 328
310 317 317 317 317 317 320 325 327 327 328 328 330 329 331 330 330 330 331 330 329 332 331 330 328 325 324 327 325 325 326 328 329 329 329 330 331 330 330 329 327 328 328
314 317 317 317 317 321 324 325 327 326 327 328 332 332 330 329 328 325 329 330 331 331 330 326 325 323 328 328 329 329 328 329 329 330 329 330 330 330 329 329 328 329 328
316 317 317 320 324 325 326 326 325 324 324 327 328 331 329 329 329 328 328 329 328 328 325 325 327 328 330 331 329 331 330 330 330 329 329 329 330 328 328 328 329 327 325
316 317 317 321 322 322 322 324 325 325 323 325 327 330 329 329 329 328 328 327 328 327 331 332 332 330 334 332 332 329 329 329 329 329 327 328 329 329 327 326 326 325 324
317 318 321 322 322 322 322 323 326 325 323 325 326 326 325 323 325 325 326 327 327 327 328 328 328 328 328 328 329 329 327 327 327 326 326 327 327 327 329 326 325 325 324
319 321 322 321 322 322 323 324 325 325 325 324 326 324 324 321 324 323 324 325 324 325 326 325 326 326 326 328 328 326 325 325 326 325 326 326 326 326 325 327 324 323 321
319 320 320 320 319 321 323 323 325 326 325 324 323 326 326 325 325 325 325 326 326 326 326 327 326 326 327 327 327 327 327 327 326 326 326 326 326 327 326 326 327 322 322
316 316 315 315 315 315 316 322 323 324 324 324 323 324 326 324 324 324 325 325 324 323 323 323 324 324 326 325 326 325 325 325 327 327 326 325 325 327 327 326 327 326 323
311 312 314 314 315 315 315 314 315 321 323 323 323 325 324 324 323 323 322 324 324 323 323 322 323 324 325 324 324 324 324 325 326 325 326 325 324 325 327 327 326 325 320
309 309 309 309 308 309 310 312 314 315 316 316 317 322 324 324 324 325 325 325 325 325 324 324 323 325 325 325 324 326 326 325 324 325 326 326 325 326 326 326 324 318 314
308 308 308 308 308 308 308 308 308 309 309 311 315 317 318 319 320 321 321 322 321 321 322 324 325 325 325 325 323 325 326 325 325 326 327 327 327 327 325 324 319 315 316
306 306 306 306 306 306 306 307 307 307 307 307 308 308 310 312 314 315 316 318 319 321 322 322 322 323 324 324 324 324 324 324 325 327 326 326 325 324 324 321 316 317 313
300 299 299 299 299 299 299 300 301 302 304 305 306 307 307 307 308 308 310 312 313 314 315 315 316 317 317 320 320 322 324 324 323 326 326 325 324 323 322 320 319 314 311
300 298 298 298 298 299 299 299 299 299 299 299 299 300 301 303 305 306 307 307 308 309 311 312 313 314 316 316 317 319 322 324 324 324 325 324 322 322 321 319 312 311 312
299 298 298 298 298 298 298 298 298 298 298 299 299 299 299 300 300 299 299 302 305 306 307 308 309 311 313 318 318 318 319 323 323 323 324 323 322 320 317 311 313 312 311
298 297 297 298 298 297 297 297 298 297 297 297 298 298 299 299 299 300 300 300 300 299 302 305 307 308 308 310 315 316 317 319 320 321 321 321 319 316 311 313 312 310 309
298 297 297 297 297 297 297 297 297 297 297 297 297 298 298 298 298 298 299 299 300 300 300 300 303 306 307 308 310 313 315 316 318 319 319 319 318 311 310 311 312 310 309
297 297 297 297 296 296 297 297 297 297 297 296 297 297 297 297 297 296 296 297 298 298 300 300 300 300 304 307 308 309 312 313 313 315 316 313 314 311 312 309 309 309 308
297 297 297 297 297 297 296 296 296 296 296 296 296 297 297 297 297 297 296 296 295 297 298 298 300 300 300 302 306 308 309 310 312 312 311 312 310 312 314 308 306 307 308
296 296 296 295 295 295 295 295 295 295 295 296 296 296 296 296 296 296 297 297 296 295 297 298 298 299 300 300 301 306 307 308 310 311 311 309 310 307 307 307 305 307 306
296 295 294 294 294 293 293 293 293 293 294 294 294 295 295 294 294 294 295 296 296 295 297 298 298 299 299 300 301 302 306 306 307 310 311 310 308 307 306 305 305 304 303
295 294 293 293 292 292 291 290 290 290 290 289 290 290 290 291 292 293 293 293 293 294 295 297 298 300 300 300 301 301 304 306 306 307 308 309 308 307 306 304 302 301 302
294 294 293 292 292 291 291 290 290 290 289 288 289 288 288 288 289 290 290 290 292 291 293 295 297 299 300 301 301 302 301 305 306 305 305 306 306 305 304 303 302 300 300
294 294 293 292 291 291 290 291 291 290 290 288 288 288 288 288 288 289 288 289 290 291 291 292 293 295 299 301 301 302 302 303 304 305 303 302 301 303 302 301 301 302 299
293 293 293 292 291 290 290 290 291 289 289 289 288 288 287 287 287 288 289 291 290 292 294 294 293 295 298 300 301 301 302 303 303 303 303 302 301 301 303 302 302 301 299

GFSMW_850_thetae_117.txt.gz
Theta_e
306 305 305 307 312 318 318 316 316 317 321 325 326 326 326 327 327 327 327 332 332 334 330 328 325 326 328 323 322 322 325 326 327 329 329 329 329 330 330 330 329 329 328
305 305 306 309 316 318 316 316 315 317 324 327 327 328 328 327 328 328 327 331 332 332 333 324 323 328 326 323 323 324 324 326 327 328 329 328 328 330 330 330 330 329 328
307 311 310 317 317 316 314 313 313 320 325 327 328 327 327 329 330 328 327 334 332 332 331 325 331 330 326 324 324 325 326 328 326 329 329 328 329 330 330 330 329 329 328
309 312 316 317 316 315 319 319 324 324 326 326 323 327 328 330 329 328 330 332 332 330 329 329 330 330 329 327 325 326 328 327 327 329 329 329 329 329 329 329 329 328 328
311 314 316 317 316 321 322 322 323 325 325 325 324 327 329 329 330 330 331 330 331 330 327 324 328 330 328 327 326 329 328 329 328 328 329 329 329 328 328 328 328 327 327
314 316 318 319 321 322 322 323 321 322 324 324 324 327 326 329 329 328 326 326 326 325 327 329 328 326 326 326 328 331 330 329 328 328 328 328 327 327 328 328 328 327 325
317 318 319 320 321 321 321 322 323 322 324 325 326 326 328 327 326 327 327 328 327 327 327 325 324 324 324 324 326 328 327 327 327 327 327 326 326 326 326 326 327 327 325
316 318 316 318 319 320 318 323 323 325 324 326 325 324 324 324 324 324 322 326 326 326 326 326 326 326 326 326 327 327 326 325 327 325 324 324 324 325 325 326 326 326 324
312 311 314 315 315 315 315 320 324 323 324 324 324 324 325 325 323 325 323 322 322 321 322 326 326 325 325 325 325 326 326 327 326 326 326 326 326 326 326 326 326 326 322
309 309 309 308 308 311 314 316 317 318 320 322 324 324 324 325 323 323 324 322 322 322 322 322 321 322 322 323 323 324 325 326 326 325 325 324 325 326 326 326 325 326 326
306 306 306 307 307 307 308 308 310 313 314 316 319 322 324 324 324 324 323 322 324 325 324 324 323 323 323 323 323 323 324 324 324 323 323 325 325 327 325 325 325 326 325
302 303 304 304 304 303 304 305 306 307 307 308 311 316 318 320 321 322 322 322 322 323 326 323 324 325 324 323 324 324 324 325 325 324 323 325 326 324 323 325 325 325 326
298 298 298 298 298 299 299 299 299 300 301 303 305 307 308 311 312 313 314 315 316 317 319 322 322 322 322 323 324 325 325 325 323 322 323 324 325 325 325 325 325 326 323
298 298 298 298 298 298 299 299 299 299 299 299 299 299 300 301 303 305 306 307 308 309 312 313 314 315 316 317 318 320 321 322 323 324 324 323 324 324 325 325 325 323 320
299 297 297 297 298 298 297 298 298 298 298 298 298 298 298 299 299 299 299 300 300 302 305 306 308 309 310 311 312 316 317 317 319 320 321 323 323 324 325 325 324 319 315
299 297 297 297 297 297 297 297 297 297 297 297 297 297 298 298 298 298 299 299 299 299 300 299 300 304 306 307 308 310 313 314 315 316 318 320 321 322 323 323 322 319 318
299 297 297 297 296 296 296 296 296 296 296 296 296 296 296 296 297 297 297 298 298 299 300 300 300 300 300 301 305 307 309 311 314 315 316 318 319 320 320 320 319 316 316
298 297 297 296 296 296 295 295 295 295 295 295 295 295 295 296 296 296 296 296 296 297 298 299 300 300 300 300 300 302 307 308 311 314 315 316 317 317 318 317 318 314 311
297 297 296 296 295 295 295 294 294 294 294 295 295 295 295 295 295 295 295 295 295 295 293 295 297 299 300 300 300 300 302 307 308 311 313 314 315 315 314 312 314 309 310
296 296 296 295 294 294 294 294 294 294 294 294 294 294 294 294 294 294 294 294 294 294 293 294 295 297 297 298 299 299 300 302 306 308 310 312 313 313 313 311 308 308 311
296 296 295 295 295 294 294 294 293 294 294 294 293 293 293 293 293 293 294 292 291 291 293 293 293 294 296 297 298 299 299 300 302 305 306 309 311 313 312 310 310 310 312
296 296 296 295 294 293 293 293 292 292 292 292 292 292 292 293 293 293 293 293 291 289 290 291 292 293 295 297 298 299 300 300 300 303 305 306 308 310 311 310 309 310 307
295 295 295 294 294 293 292 291 291 291 291 290 290 290 288 290 289 287 287 287 288 290 290 290 291 292 292 294 297 299 300 300 301 301 304 306 307 308 308 309 309 306 308
295 294 294 293 293 292 291 290 290 289 290 290 290 289 289 289 290 290 288 287 287 288 288 289 290 291 291 292 296 299 300 301 301 301 304 306 306 306 305 305 306 306 306
294 293 293 293 292 291 290 290 289 290 290 289 290 291 290 291 290 290 288 287 289 288 289 289 290 290 291 291 293 296 299 300 301 301 303 304 304 303 301 302 303 304 304
293 293 293 292 292 290 290 289 289 289 290 290 290 290 289 289 289 288 290 288 290 290 291 290 290 290 291 292 293 296 297 299 300 301 302 303 302 302 302 301 302 302 301